Date StartTime U_cm/s V_cm/s W_cm/s Ustd_cm/s Vstd_cm/s Wstd_cm/s Uvar_(cm/s)^2 Vvar_(cm/s)^2 Wvar_(cm/s)^2 KE_(m/s)^2 TurbulentKE_(m/s)^2 HorizWindSpeed_cm/s FrictionSpeec_cm/s DragCoef SpeedOfSound_m/s SonicTemperature_C Pressure_mb 
08/28/2013  00:00:00     -152.770      -54.021       -7.348       65.649       75.811       43.283     4309.770     5747.277     1873.437        1.912        0.597      162.040       27.514        0.029      344.594       21.524      859.426
08/28/2013  00:01:00     -239.749       -2.318      -20.521       85.849       80.275       54.485     7370.079     6444.072     2968.600        3.734        0.839      239.760       43.452        0.033      344.625       21.573      859.465
08/28/2013  00:02:00     -221.351      -22.899      -15.347       70.195       71.299       43.990     4927.278     5083.579     1935.157        3.085        0.597      222.532       41.221        0.034      344.603       21.536      859.502
08/28/2013  00:03:00     -129.922      -46.315        9.186       76.052       64.960       36.748     5783.861     4219.845     1350.421        1.523        0.568      137.930       41.628        0.091      344.611       21.554      859.512
08/28/2013  00:04:00     -183.614      -35.453       -6.541       79.712       63.680       37.997     6353.926     4055.198     1443.804        2.343        0.593      187.005       36.609        0.038      344.617       21.560      859.488
08/28/2013  00:05:00     -131.646      -49.297       -2.041       55.712       66.141       35.898     3103.844     4374.688     1288.663        1.426        0.438      140.573       20.385        0.021      344.543       21.434      859.465
08/28/2013  00:06:00     -201.852      -45.804      -11.808      109.249       60.813       46.223    11935.351     3698.200     2136.567        3.037        0.889      206.983       56.052        0.073      344.574       21.485      859.459
08/28/2013  00:07:00     -197.478      -30.278       -8.927       78.938       57.646       40.898     6231.133     3323.020     1672.627        2.561        0.561      199.786       44.888        0.050      344.527       21.405      859.476
08/28/2013  00:08:00     -195.936      -53.150        1.028       73.683       68.881       40.101     5429.220     4744.605     1608.130        2.650        0.589      203.017       38.058        0.035      344.541       21.429      859.514
08/28/2013  00:09:00     -254.331      -22.917      -22.183       65.989       47.802       40.022     4354.558     2285.040     1601.783        3.697        0.412      255.362       26.335        0.011      344.537       21.423      859.548
08/28/2013  00:10:00     -180.664      -28.392       -1.205       88.998       62.710       36.443     7920.691     3932.501     1328.123        2.331        0.659      182.882       41.237        0.051      344.500       21.360      859.559
08/28/2013  00:11:00     -201.754      -18.382      -22.373       62.120       55.857       24.780     3858.922     3119.958      614.053        2.457        0.380      202.590       27.699        0.019      344.534       21.418      859.569
08/28/2013  00:12:00     -224.831       18.809      -17.029      116.436       66.842       36.998    13557.302     4467.903     1368.833        3.529        0.970      225.617       49.545        0.048      344.636       21.592      859.560
08/28/2013  00:13:00     -191.688       -0.734      -14.538       51.101       35.819       33.037     2611.291     1282.970     1091.452        2.097        0.249      191.690       29.328        0.023      344.626       21.577      859.557
08/28/2013  00:14:00     -107.480       -2.920       -4.955       58.217       41.457       27.080     3389.221     1718.644      733.315        0.871        0.292      107.520       23.078        0.046      344.553       21.455      859.583
08/28/2013  00:15:00      -82.695       -8.702        0.057       48.145       27.345       18.158     2317.948      747.771      329.721        0.515        0.170       83.152       21.768        0.069      344.540       21.432      859.621
08/28/2013  00:16:00      -46.563       78.399      -20.021       32.242       27.333       19.642     1039.566      747.096      385.801        0.544        0.109       91.184       20.695        0.052      344.552       21.453      859.640
08/28/2013  00:17:00      -47.713       78.227      -11.442       35.716       46.573       19.022     1275.603     2169.012      361.845        0.617        0.190       91.630       15.180        0.027      344.501       21.364      859.660
08/28/2013  00:18:00      -30.259       12.282        1.409       18.080       23.889       14.885      326.884      570.677      221.554        0.109        0.056       32.657       12.699        0.151      344.471       21.310      859.670
08/28/2013  00:19:00      -58.529       71.065      -15.164       21.214       25.256       11.399      450.018      637.887      129.946        0.496        0.061       92.064        3.028        0.001      344.503       21.371      859.661
08/28/2013  00:20:00      -18.065       39.529        3.333       27.154       31.060       17.495      737.318      964.717      306.092        0.195        0.100       43.461       21.122        0.236      344.465       21.305      859.661
08/28/2013  00:21:00      -57.267      -37.597       -6.881       34.680       26.492       15.850     1202.702      701.822      251.233        0.345        0.108       68.506       10.184        0.022      344.548       21.446      859.671
08/28/2013  00:22:00      -49.139       10.101        8.151       30.791       50.826       25.896      948.114     2583.318      670.606        0.339        0.210       50.166       20.913        0.174      344.506       21.374      859.690
08/28/2013  00:23:00      -52.808      -27.927        5.932       39.757       36.866       15.561     1580.624     1359.096      242.135        0.339        0.159       59.738       20.075        0.113      344.458       21.290      859.709
08/28/2013  00:24:00     -110.868      -41.979       -2.875       41.797       43.816       25.043     1746.975     1919.816      627.137        0.918        0.215      118.550       19.114        0.026      344.520       21.397      859.707
08/28/2013  00:25:00      -34.110      -17.775       19.868       52.333       50.713       26.195     2738.779     2571.798      686.185        0.393        0.300       38.463       28.627        0.554      344.427       21.237      859.692
08/28/2013  00:26:00     -107.473      -43.577       -1.635       51.368       43.912       25.778     2638.717     1928.288      664.498        0.934        0.262      115.972       13.951        0.014      344.491       21.347      859.680
08/28/2013  00:27:00      -51.091       17.108      -11.256       26.025       36.352       15.653      677.297     1321.481      245.018        0.264        0.112       53.880        8.184        0.023      344.350       21.106      859.695
08/28/2013  00:28:00      -92.617        9.434      -15.177       21.318       23.702       15.631      454.452      561.763      244.322        0.508        0.063       93.096        8.983        0.009      344.431       21.244      859.713
08/28/2013  00:29:00     -110.331       26.777      -10.053       23.338       17.228       14.212      544.682      296.796      201.978        0.702        0.052      113.534       12.076        0.011      344.602       21.538      859.717
08/28/2013  00:30:00     -106.213       25.394      -12.282       25.449       18.635       15.367      647.635      347.261      236.144        0.665        0.062      109.207       11.533        0.011      344.479       21.328      859.724
08/28/2013  00:31:00      -48.231       33.756       -9.139       27.343       14.682       12.601      747.617      215.571      158.790        0.234        0.056       58.870        7.209        0.015      344.666       21.648      859.731
08/28/2013  00:32:00      -49.609        0.597       -7.511       19.159       21.646        9.363      367.051      468.562       87.663        0.172        0.046       49.612       11.793        0.057      344.616       21.563      859.753
08/28/2013  00:33:00        4.142       16.680       14.304       10.393       14.404       15.063      108.023      207.488      226.884        0.052        0.027       17.187        6.534        0.145      344.266       20.964      859.752
08/28/2013  00:34:00        0.663       25.123       -2.149       20.291       10.139        8.789      411.722      102.801       77.246        0.061        0.030       25.132        7.690        0.094      344.634       21.593      859.754
08/28/2013  00:35:00      -42.589       12.846       -4.648       14.904       13.904        6.774      222.136      193.332       45.885        0.123        0.023       44.485        2.922        0.004      344.383       21.163      859.744
08/28/2013  00:36:00      -61.060       30.484       -7.780       16.397       26.432       13.494      268.876      698.663      182.079        0.293        0.057       68.247       15.055        0.049      344.408       21.206      859.723
08/28/2013  00:37:00      -41.544       84.705      -18.521       39.014       29.891       20.206     1522.085      893.500      408.263        0.603        0.141       94.344       11.965        0.016      344.596       21.528      859.703
08/28/2013  00:38:00       -5.504       63.318       -9.704       17.821       35.060       13.078      317.601     1229.238      171.023        0.293        0.086       63.557       12.000        0.036      344.588       21.513      859.684
08/28/2013  00:39:00       -5.639      102.263      -13.288       24.184       25.069       11.335      584.875      628.460      128.493        0.600        0.067      102.418       10.338        0.010      344.521       21.398      859.679
08/28/2013  00:40:00      -36.827       42.518       -3.935       18.786       42.247       13.150      352.917     1784.820      172.933        0.274        0.116       56.249        5.809        0.011      344.313       21.043      859.691
08/28/2013  00:41:00      -64.878      -42.751      -13.208       12.975       11.498        8.464      168.339      132.206       71.642        0.329        0.019       77.697        5.645        0.005      344.326       21.064      859.705
08/28/2013  00:42:00       -9.211      -33.170       -4.248       42.701       42.935       25.424     1823.405     1843.375      646.399        0.276        0.216       34.425       19.442        0.319      344.524       21.403      859.698
08/28/2013  00:43:00      -73.932      -51.460        0.990       47.148       37.482       19.486     2222.917     1404.913      379.693        0.606        0.200       90.078       20.474        0.052      344.659       21.635      859.702
08/28/2013  00:44:00      -20.923      -35.226        6.906       32.660       33.853       16.795     1066.678     1146.023      282.089        0.211        0.125       40.971       20.096        0.241      344.671       21.656      859.705
08/28/2013  00:45:00     -127.245      -47.044       -6.079       47.283       27.840       17.678     2235.668      775.043      312.521        1.088        0.166      135.663       14.080        0.011      344.456       21.289      859.697
08/28/2013  00:46:00      -42.339      -22.585        6.871       41.629       31.946       15.026     1732.946     1020.573      225.793        0.266        0.149       47.986       20.092        0.175      344.320       21.055      859.702
08/28/2013  00:47:00      -37.663       20.819       -1.490       45.699       11.250       20.497     2088.392      126.554      420.123        0.224        0.132       43.034       27.206        0.400      344.410       21.210      859.697
08/28/2013  00:48:00     -120.651        4.365      -12.617       19.377       18.513        8.214      375.482      342.741       67.476        0.776        0.039      120.730        5.823        0.002      344.574       21.492      859.709
08/28/2013  00:49:00     -124.918      -55.162        1.152       37.854       32.954       19.054     1432.930     1085.958      363.061        1.076        0.144      136.555       18.166        0.018      344.585       21.510      859.707
08/28/2013  00:50:00     -108.537      -65.333        2.896       52.208       41.856       27.231     2725.669     1751.951      741.548        1.064        0.261      126.684       24.056        0.036      344.552       21.451      859.704
08/28/2013  00:51:00      -75.435      -30.388        8.904       45.722       64.502       29.625     2090.494     4160.528      877.636        0.691        0.356       81.326       25.982        0.102      344.582       21.503      859.722
08/28/2013  00:52:00      -70.165       14.713        0.654       56.774       34.641       24.428     3223.337     1199.994      596.737        0.508        0.251       71.691       25.292        0.124      344.594       21.523      859.726
08/28/2013  00:53:00      -71.413       -0.159       -9.539       27.784       24.967       15.973      771.947      623.340      255.124        0.342        0.083       71.413        6.314        0.008      344.636       21.597      859.730
08/28/2013  00:54:00     -174.739      -64.734      -12.533       56.746       39.512       31.182     3220.083     1561.233      972.318        2.032        0.288      186.344       15.867        0.007      344.746       21.780      859.730
08/28/2013  00:55:00     -150.381      -33.049       -1.207       63.789       44.442       28.919     4069.045     1975.086      836.295        1.529        0.344      153.969       29.890        0.038      344.665       21.643      859.727
08/28/2013  00:56:00      -93.861       36.471        2.889       47.607       63.731       32.153     2266.435     4061.704     1033.836        0.875        0.368      100.698       27.159        0.073      344.474       21.319      859.737
08/28/2013  00:57:00      -93.385       65.698      -10.683       57.024       50.603       15.853     3251.711     2560.619      251.304        0.961        0.303      114.180       15.649        0.019      344.392       21.179      859.751
08/28/2013  00:58:00     -101.981       71.646      -30.478       48.540       41.492       21.337     2356.135     1721.566      455.265        1.050        0.227      124.632        7.336        0.003      344.162       20.784      859.766
08/28/2013  00:59:00     -116.876      144.456      -31.430       32.430       31.388       23.585     1051.732      985.192      556.267        1.905        0.130      185.816       19.005        0.010      344.218       20.880      859.767
08/28/2013  01:00:00     -116.932      129.036      -29.000       19.305       20.240       15.373      372.698      409.652      236.341        1.609        0.051      174.137        9.407        0.003      344.182       20.819      859.769
08/28/2013  01:01:00      -72.402       69.752      -18.836       26.403       29.164       16.212      697.139      850.559      262.816        0.614        0.091      100.535       15.259        0.023      344.039       20.576      859.767
08/28/2013  01:02:00      -60.217       51.088      -11.916       27.150       41.310       12.349      737.117     1706.487      152.494        0.449        0.130       78.969       11.781        0.022      344.016       20.535      859.766
08/28/2013  01:03:00      -48.078       24.502       -9.202       24.924       29.625       18.214      621.203      877.649      331.767        0.241        0.092       53.962       14.282        0.070      343.973       20.463      859.780
08/28/2013  01:04:00      -99.639      -22.502      -14.581       42.886       19.464       12.162     1839.176      378.831      147.914        0.651        0.118      102.148       16.506        0.026      343.926       20.380      859.785
08/28/2013  01:05:00     -171.008      -55.487      -13.015       51.814       37.343       27.727     2684.681     1394.522      768.801        1.867        0.242      179.784       28.003        0.024      343.848       20.246      859.784
08/28/2013  01:06:00     -139.400       43.938       -8.193       41.653       43.451       20.647     1735.004     1888.027      426.306        1.274        0.202      146.160       20.575        0.020      343.942       20.409      859.757
08/28/2013  01:07:00     -122.498       65.375      -16.037       30.276       35.100       16.874      916.643     1232.034      284.746        1.098        0.122      138.851       19.549        0.020      344.085       20.654      859.721
08/28/2013  01:08:00      -72.339       22.550       -8.412       58.598       15.086       15.209     3433.779      227.582      231.312        0.485        0.195       75.772       20.775        0.075      343.979       20.473      859.712
08/28/2013  01:09:00     -156.052       26.149      -18.537       34.400       31.716       20.547     1183.372     1005.919      422.185        1.400        0.131      158.228       12.656        0.006      343.932       20.391      859.699
08/28/2013  01:10:00     -149.598      -43.664      -14.190       27.622       36.366       19.046      762.947     1322.498      362.765        1.347        0.122      155.841       12.244        0.006      343.875       20.295      859.702
08/28/2013  01:11:00      -87.059       -9.360      -11.167       24.976       32.685       17.581      623.785     1068.304      309.091        0.490        0.100       87.561       18.047        0.042      343.862       20.274      859.715
08/28/2013  01:12:00     -109.027       19.355      -21.767       41.936       44.221       21.988     1758.661     1955.484      483.492        0.847        0.210      110.732       10.156        0.008      343.934       20.395      859.732
08/28/2013  01:13:00     -106.331       46.590      -10.632       33.794       35.354       22.895     1142.053     1249.924      524.181        0.825        0.146      116.090       18.814        0.026      343.949       20.421      859.736
08/28/2013  01:14:00      -84.076       38.973       -7.539       34.271       19.479       18.842     1174.497      379.447      355.016        0.528        0.095       92.670       16.875        0.033      343.988       20.488      859.733
08/28/2013  01:15:00      -59.688       31.894       -3.258       30.244       26.316       15.286      914.704      692.529      233.670        0.322        0.092       67.675       12.678        0.035      344.017       20.538      859.710
08/28/2013  01:16:00     -120.727       -1.574      -12.026       30.113       29.791       15.601      906.779      887.481      243.393        0.838        0.102      120.737       10.476        0.008      343.771       20.117      859.697
08/28/2013  01:17:00     -137.077       -1.503      -22.036       25.764       21.402       15.615      663.806      458.042      243.813        1.032        0.068      137.085       11.042        0.006      343.713       20.019      859.689
08/28/2013  01:18:00     -130.583      -17.693      -13.320       29.767       27.722       17.825      886.098      768.504      317.739        0.976        0.099      131.776       12.116        0.008      343.604       19.833      859.698
08/28/2013  01:19:00     -127.472       -2.845       -9.046       36.809       41.128       17.056     1354.905     1691.521      290.910        0.984        0.167      127.503       13.801        0.012      343.624       19.866      859.721
08/28/2013  01:20:00     -111.456        3.124      -10.908       20.005       27.138       19.054      400.198      736.470      363.047        0.703        0.075      111.500       15.545        0.019      343.589       19.807      859.729
08/28/2013  01:21:00     -141.698       -1.970      -17.733       20.625       19.713       13.586      425.377      388.603      184.570        1.070        0.050      141.711        3.433        0.001      343.591       19.811      859.731
08/28/2013  01:22:00     -130.962        4.833      -13.243       28.234       24.688       16.898      797.171      609.481      285.528        0.952        0.085      131.051       15.398        0.014      343.568       19.772      859.714
08/28/2013  01:23:00     -102.290       11.321       -7.908       42.032       29.355       24.538     1766.685      861.691      602.118        0.694        0.162      102.915       16.741        0.026      343.502       19.660      859.693
08/28/2013  01:24:00     -103.111       -0.629      -11.805       39.637       37.075       23.176     1571.117     1374.586      537.138        0.713        0.174      103.113       20.181        0.038      343.550       19.740      859.688
08/28/2013  01:25:00      -93.627        6.371       -1.813       63.355       39.691       20.299     4013.854     1575.338      412.051        0.740        0.300       93.844       23.409        0.062      343.488       19.634      859.681
08/28/2013  01:26:00     -171.319       20.965      -14.994       48.026       51.215       21.200     2306.507     2623.025      449.456        1.770        0.269      172.597       15.517        0.008      343.501       19.655      859.687
08/28/2013  01:27:00     -138.620      -51.931       -2.292       63.177       33.731       25.741     3991.313     1137.786      662.615        1.385        0.290      148.028       19.581        0.017      343.405       19.491      859.708
08/28/2013  01:28:00     -143.171      -46.015       -3.421       27.201       35.864       22.641      739.919     1286.222      512.617        1.258        0.127      150.383       19.351        0.017      343.383       19.455      859.721
08/28/2013  01:29:00     -122.432      -34.890       -2.640       37.411       35.257       25.754     1399.586     1243.075      663.244        0.976        0.165      127.306       23.561        0.034      343.395       19.476      859.723
08/28/2013  01:30:00     -117.973      -22.712      -15.407       32.505       25.612       18.517     1056.573      655.994      342.891        0.836        0.103      120.140       11.178        0.009      343.421       19.521      859.723
08/28/2013  01:31:00     -146.038      -31.259       -7.808       37.147       40.593       24.708     1379.926     1647.780      610.482        1.300        0.182      149.346       18.825        0.016      343.321       19.350      859.718
08/28/2013  01:32:00     -197.808      -12.286      -15.767       50.992       42.471       26.015     2600.211     1803.802      676.772        2.230        0.254      198.189       21.320        0.012      343.302       19.315      859.712
08/28/2013  01:33:00     -174.863       -5.620      -14.576       38.891       31.681       26.541     1512.494     1003.705      704.429        1.702        0.161      174.953       20.662        0.014      343.287       19.292      859.704
08/28/2013  01:34:00     -140.607       -3.956       -8.288       48.384       47.949       23.068     2341.045     2299.066      532.127        1.251        0.259      140.663       25.544        0.033      343.323       19.354      859.702
08/28/2013  01:35:00     -166.811       -1.960      -16.978       37.271       35.265       19.077     1389.121     1243.616      363.930        1.556        0.150      166.823       16.421        0.010      343.327       19.361      859.714
08/28/2013  01:36:00     -178.759      -39.143      -13.576       42.575       42.202       30.073     1812.624     1781.000      904.378        1.908        0.225      182.994       28.291        0.024      343.266       19.256      859.724
08/28/2013  01:37:00     -153.394      -16.981      -10.932       58.010       32.708       30.535     3365.147     1069.805      932.400        1.465        0.268      154.331       33.464        0.047      343.245       19.220      859.728
08/28/2013  01:38:00     -133.317       14.694      -10.551       65.515       54.181       28.565     4292.278     2935.564      815.964        1.307        0.402      134.124       25.753        0.037      343.291       19.298      859.717
08/28/2013  01:39:00     -180.716       27.823      -18.164       36.965       49.673       23.348     1366.431     2467.376      545.144        1.907        0.219      182.845       16.503        0.008      343.366       19.426      859.722
08/28/2013  01:40:00     -143.695       26.250      -15.704       43.847       42.896       27.026     1922.592     1840.069      730.392        1.304        0.225      146.073       22.589        0.024      343.487       19.631      859.729
08/28/2013  01:41:00     -106.551       44.054      -17.610       41.404       26.412       18.093     1714.297      697.586      327.365        0.817        0.137      115.299       12.717        0.012      343.517       19.683      859.698
08/28/2013  01:42:00      -46.844       17.359       -2.414       22.495       14.529       13.547      506.039      211.090      183.514        0.170        0.045       49.957       10.182        0.042      343.459       19.585      859.683
08/28/2013  01:43:00      -90.853      -22.548      -10.121       48.847       25.301       10.201     2386.059      640.134      104.066        0.600        0.157       93.609       13.260        0.020      343.401       19.485      859.681
08/28/2013  01:44:00     -106.568      -22.073       -6.849       31.679       32.774       19.196     1003.557     1074.119      368.486        0.717        0.122      108.830       16.132        0.022      343.352       19.404      859.681
08/28/2013  01:45:00     -108.057      -34.179       -4.692       27.203       23.290       19.813      740.023      542.421      392.548        0.727        0.084      113.334       15.482        0.019      343.359       19.416      859.679
08/28/2013  01:46:00      -45.216        4.454       -7.350       26.436       32.087       12.901      698.879     1029.562      166.436        0.201        0.095       45.435       10.658        0.055      343.390       19.467      859.677
08/28/2013  01:47:00      -44.897       28.966       -9.004       15.826       45.975       14.343      250.474     2113.721      205.730        0.275        0.128       53.430       12.202        0.052      343.717       20.026      859.675
08/28/2013  01:48:00     -100.127      -42.803       -7.472       29.365       15.144       15.203      862.316      229.331      231.130        0.662        0.066      108.892       13.669        0.016      343.539       19.722      859.679
08/28/2013  01:49:00      -85.463      -11.169       -5.175       32.113       31.614       18.377     1031.213      999.450      337.707        0.491        0.118       86.190       18.191        0.045      343.409       19.501      859.680
08/28/2013  01:50:00      -74.154       18.552       -3.856       54.564       30.203       18.478     2977.268      912.220      341.454        0.504        0.212       76.439        9.192        0.014      343.421       19.519      859.681
08/28/2013  01:51:00      -50.187       27.153       -1.509       30.697       36.585       18.721      942.302     1338.476      350.478        0.294        0.132       57.061       21.164        0.138      343.815       20.193      859.677
08/28/2013  01:52:00      -94.054      -58.836       -3.195       39.326       26.237       18.522     1546.510      688.373      343.055        0.745        0.129      110.941       12.020        0.012      343.339       19.380      859.684
08/28/2013  01:53:00     -132.497      -46.781       -3.043       35.503       24.680       17.843     1260.496      609.125      318.365        1.097        0.109      140.513       17.532        0.016      343.294       19.304      859.684
08/28/2013  01:54:00       -4.659       -9.539        9.134       34.406       17.931       13.630     1183.781      321.517      185.774        0.094        0.085       10.616       12.355        1.354      343.320       19.349      859.671
08/28/2013  01:55:00      -72.862      -18.792        2.125       28.502       27.478       17.308      812.392      755.053      299.578        0.377        0.093       75.246       13.393        0.032      343.558       19.755      859.678
08/28/2013  01:56:00      -60.903        0.389       -8.440       29.569       18.003        9.487      874.313      324.112       90.009        0.253        0.064       60.904       10.793        0.031      343.408       19.498      859.685
08/28/2013  01:57:00      -66.028      -27.400       -3.293       25.074       29.178       15.801      628.721      851.337      249.684        0.343        0.086       71.488       13.584        0.036      343.235       19.204      859.684
08/28/2013  01:58:00      -15.829       -5.953        1.466       18.252       10.572        7.695      333.125      111.772       59.210        0.040        0.025       16.911        8.663        0.262      343.278       19.278      859.666
08/28/2013  01:59:00      -77.209      -12.945       -4.718       40.296       39.144       19.035     1623.736     1532.243      362.321        0.483        0.176       78.287       12.658        0.026      343.368       19.430      859.670
08/28/2013  02:00:00      -89.586      -38.509       -4.325       32.397       15.078       10.038     1049.544      227.334      100.752        0.545        0.069       97.512        7.933        0.007      343.181       19.113      859.671
08/28/2013  02:01:00       -9.116        1.993       -2.072       24.473       12.084        9.241      598.911      146.012       85.393        0.046        0.042        9.331        3.546        0.144      343.239       19.212      859.671
08/28/2013  02:02:00       20.222      -33.866       -8.585       13.205       15.656       10.636      174.379      245.096      113.132        0.108        0.027       39.444        9.446        0.057      343.240       19.214      859.668
08/28/2013  02:03:00      -24.149       -3.430       -2.069       39.580       33.543       10.894     1566.565     1125.149      118.677        0.170        0.141       24.391       10.877        0.199      343.219       19.176      859.675
08/28/2013  02:04:00      -83.402        3.719       -7.012       17.483       13.789        7.982      305.654      190.130       63.708        0.379        0.028       83.484        8.297        0.010      343.153       19.064      859.677
08/28/2013  02:05:00       -8.848      -23.167        6.251       16.519       12.740       10.767      272.863      162.317      115.919        0.060        0.028       24.799        5.488        0.049      343.138       19.038      859.672
08/28/2013  02:06:00       23.376       -1.192        4.576       14.805       15.488       11.766      219.187      239.866      138.435        0.058        0.030       23.407        7.317        0.098      343.191       19.129      859.665
08/28/2013  02:07:00        1.843        3.231        7.206       15.025        9.289        8.891      225.751       86.279       79.051        0.023        0.020        3.719        8.193        4.852      342.987       18.781      859.667
08/28/2013  02:08:00      -15.614       10.769       -4.361       13.488       14.273        5.433      181.934      203.732       29.519        0.040        0.021       18.967        8.186        0.186      343.239       19.209      859.663
08/28/2013  02:09:00      -31.241       67.641       -7.019        9.802       16.315        9.675       96.071      266.168       93.613        0.303        0.023       74.507        6.779        0.008      343.193       19.134      859.644
08/28/2013  02:10:00       -7.673       19.534       -1.746        6.772       10.754        5.491       45.866      115.649       30.151        0.032        0.010       20.987        4.807        0.052      343.297       19.311      859.640
08/28/2013  02:11:00      -17.884       29.363       -2.056       16.933        8.216        6.484      286.732       67.495       42.047        0.079        0.020       34.381        2.485        0.005      343.441       19.555      859.639
08/28/2013  02:12:00      -57.451       15.539      -11.482        9.789        6.704        7.037       95.828       44.945       49.513        0.193        0.010       59.516        4.522        0.006      343.145       19.052      859.647
08/28/2013  02:13:00      -49.885       -1.468       -2.154        9.278        8.917        6.327       86.086       79.513       40.037        0.135        0.010       49.907        3.078        0.004      343.001       18.805      859.643
08/28/2013  02:14:00      -67.283      -13.964      -10.140        9.582       12.105        6.847       91.806      146.541       46.882        0.255        0.014       68.717        5.258        0.006      342.993       18.792      859.639
08/28/2013  02:15:00      -60.611      -17.793      -10.519       10.648       11.494        8.329      113.390      132.106       69.379        0.221        0.016       63.168        6.263        0.010      342.876       18.593      859.639
08/28/2013  02:16:00      -42.513      -15.686      -12.387       14.174       11.058        9.809      200.901      122.278       96.226        0.131        0.021       45.315        9.159        0.041      342.905       18.639      859.644
08/28/2013  02:17:00      -91.047      -40.095      -19.067       25.543       21.340       13.569      652.438      455.394      184.108        0.578        0.065       99.484        6.651        0.004      342.913       18.654      859.659
08/28/2013  02:18:00      -89.108       -3.898       -6.812       43.443       34.150       22.829     1887.320     1166.208      521.181        0.579        0.179       89.194       23.285        0.068      342.753       18.384      859.662
08/28/2013  02:19:00     -117.932      -35.257       -6.376       30.075       48.288       21.718      904.507     2331.733      471.650        0.945        0.185      123.090        8.577        0.005      342.694       18.283      859.653
08/28/2013  02:20:00     -105.620      -30.244        0.279       38.791       24.839       19.169     1504.708      616.983      367.456        0.728        0.124      109.865       20.095        0.033      342.672       18.245      859.647
08/28/2013  02:21:00      -99.790      -33.692       -5.540       28.200       20.408       12.095      795.228      416.476      146.294        0.624        0.068      105.324        7.255        0.005      342.809       18.478      859.639
08/28/2013  02:22:00     -115.596      -35.748      -10.296       19.087       15.996       11.353      364.294      255.859      128.896        0.775        0.037      120.997        9.811        0.007      342.767       18.407      859.632
08/28/2013  02:23:00     -108.811      -35.430       -3.085       17.174       20.734       14.365      294.932      429.905      206.347        0.702        0.047      114.434        7.674        0.004      342.733       18.348      859.626
08/28/2013  02:24:00      -82.321      -12.235       -8.308       19.662       29.460       14.061      386.602      867.910      197.724        0.422        0.073       83.226        7.851        0.009      342.693       18.281      859.615
08/28/2013  02:25:00     -106.341       -9.531      -10.831       20.605       18.542       14.329      424.569      343.802      205.322        0.624        0.049      106.767        9.477        0.008      342.735       18.352      859.597
08/28/2013  02:26:00      -72.865       -7.060       -3.064       24.351       21.474       15.694      592.964      461.117      246.303        0.333        0.065       73.207       14.350        0.038      342.672       18.246      859.569
08/28/2013  02:27:00     -102.589       15.571       -4.210       45.843       27.290       17.716     2101.598      744.765      313.857        0.697        0.158      103.764       18.208        0.031      342.691       18.276      859.550
08/28/2013  02:28:00      -66.505       17.856        1.507       36.900       22.112       16.679     1361.606      488.955      278.182        0.344        0.106       68.860       14.466        0.044      342.680       18.259      859.530
08/28/2013  02:29:00      -73.632       10.093      -11.901       28.399       27.235       14.276      806.504      741.763      203.791        0.371        0.088       74.321       15.482        0.043      342.721       18.327      859.525
08/28/2013  02:30:00      -14.998        4.372       -8.432       30.454       23.180       20.480      927.450      537.323      419.429        0.110        0.094       15.622       12.456        0.636      342.719       18.326      859.534
08/28/2013  02:31:00      -62.342       14.003      -16.798       53.678       29.417       26.040     2881.351      865.334      678.078        0.439        0.221       63.895       33.567        0.276      342.776       18.422      859.551
08/28/2013  02:32:00      -68.130       28.253       -8.500       35.925       30.516       20.809     1290.578      931.229      433.018        0.408        0.133       73.756       20.233        0.075      342.695       18.284      859.561
08/28/2013  02:33:00      -58.638        5.206       -5.882       18.030       29.713       13.834      325.083      882.880      191.384        0.245        0.070       58.868        8.135        0.019      342.657       18.220      859.556
08/28/2013  02:34:00      -55.622        2.502       -3.479       19.096       18.544       13.883      364.650      343.895      192.738        0.201        0.045       55.678       11.622        0.044      342.714       18.315      859.559
08/28/2013  02:35:00      -64.747       -3.553       -7.441       15.849       17.545       13.503      251.197      307.826      182.318        0.250        0.037       64.844        7.128        0.012      342.739       18.359      859.573
08/28/2013  02:36:00      -67.682      -14.190       -9.448       21.834       20.728       11.233      476.744      429.663      126.191        0.295        0.052       69.153       10.535        0.023      342.710       18.311      859.594
08/28/2013  02:37:00      -23.622      -19.712       -2.002       20.256       16.005       19.154      410.298      256.163      366.881        0.099        0.052       30.766       16.629        0.292      342.695       18.285      859.597
08/28/2013  02:38:00      -34.744      -26.690        3.436       29.766       19.612       13.284      886.023      384.649      176.457        0.169        0.072       43.813       11.924        0.074      342.744       18.368      859.605
08/28/2013  02:39:00      -68.274      -19.993      -12.162        9.743       12.420        9.047       94.936      154.268       81.849        0.277        0.017       71.141        5.292        0.006      342.654       18.214      859.606
08/28/2013  02:40:00      -75.026       -6.442      -10.297       17.739       12.876       10.213      314.667      165.787      104.304        0.318        0.029       75.303        6.901        0.008      342.602       18.124      859.592
08/28/2013  02:41:00      -50.082      -13.419       -4.972       15.252       15.088       10.917      232.620      227.633      119.179        0.165        0.029       51.849        7.766        0.022      342.521       17.988      859.571
08/28/2013  02:42:00      -58.318       -3.712       -7.341       17.244       12.559       12.495      297.367      157.734      156.125        0.204        0.031       58.436       12.001        0.042      342.538       18.018      859.552
08/28/2013  02:43:00      -72.092      -10.979      -10.244       14.821       13.882        8.438      219.648      192.700       71.204        0.295        0.024       72.923        5.562        0.006      342.526       17.998      859.552
08/28/2013  02:44:00      -68.699      -25.815       -9.216       19.026       16.587       12.686      362.003      275.113      160.941        0.313        0.040       73.389       12.255        0.028      342.436       17.844      859.552
08/28/2013  02:45:00      -53.487      -20.833       -4.803       18.707       14.005        9.861      349.942      196.148       97.240        0.198        0.032       57.401        6.589        0.013      342.447       17.862      859.559
08/28/2013  02:46:00      -51.869      -10.441       -5.656       16.062       15.136        9.362      257.983      229.099       87.648        0.170        0.029       52.909        8.364        0.025      342.547       18.033      859.550
08/28/2013  02:47:00      -20.911      -18.045       -3.305       14.301       17.056        8.406      204.524      290.891       70.665        0.067        0.028       27.620        9.569        0.120      342.480       17.920      859.554
08/28/2013  02:48:00      -15.375       20.031       -8.126       16.178       14.082        7.647      261.743      198.308       58.483        0.061        0.026       25.251        9.286        0.135      342.804       18.471      859.563
08/28/2013  02:49:00       -9.867       -7.047        0.137        7.975        9.439        8.656       63.602       89.102       74.934        0.019        0.011       12.125        4.969        0.168      342.773       18.415      859.577
08/28/2013  02:50:00      -58.316      -23.845       -5.132       14.635       12.619        8.927      214.180      159.241       79.694        0.222        0.023       63.002        8.516        0.018      342.584       18.097      859.589
08/28/2013  02:51:00      -57.000      -11.666      -12.820       10.854       12.057        7.526      117.803      145.360       56.641        0.193        0.016       58.182        4.241        0.005      342.496       17.945      859.593
08/28/2013  02:52:00      -29.730       14.430       -4.909       16.280       17.795        6.761      265.035      316.649       45.714        0.087        0.031       33.047        6.084        0.034      342.659       18.223      859.587
08/28/2013  02:53:00       29.402       54.968      -10.304       15.743       13.192        9.852      247.844      174.027       97.067        0.226        0.026       62.338        6.951        0.012      342.558       18.053      859.593
08/28/2013  02:54:00       32.277       39.796       -8.872       31.414       21.799       18.506      986.853      475.181      342.462        0.225        0.090       51.240        6.977        0.019      342.192       17.431      859.607
08/28/2013  02:55:00       -0.558       45.749       -7.439        8.407       14.381        7.115       70.684      206.826       50.624        0.124        0.016       45.753        4.582        0.010      342.302       17.618      859.605
08/28/2013  02:56:00      -11.903       -0.645        0.160        7.390       18.437        6.559       54.615      339.928       43.022        0.029        0.022       11.921        7.116        0.356      342.281       17.581      859.615
08/28/2013  02:57:00      -22.226      -21.811      -10.299       12.102       13.324       11.254      146.467      177.525      126.651        0.076        0.023       31.140        7.939        0.065      342.663       18.231      859.628
08/28/2013  02:58:00        0.925      -22.547       -0.214        8.160       10.127        6.213       66.583      102.565       38.597        0.036        0.010       22.566        3.665        0.026      342.601       18.127      859.641
08/28/2013  02:59:00      -37.616      -31.634       -4.254       12.586        9.703        6.520      158.409       94.147       42.508        0.136        0.015       49.149        5.677        0.013      342.484       17.926      859.660
08/28/2013  03:00:00      -54.785      -31.773       -4.785        8.272        7.063        5.376       68.433       49.886       28.904        0.209        0.007       63.332        2.590        0.002      342.413       17.806      859.679
08/28/2013  03:01:00      -37.665      -22.160       -8.686       19.303       12.871       11.445      372.596      165.662      130.990        0.133        0.033       43.701        6.050        0.019      342.412       17.803      859.687
08/28/2013  03:02:00      -14.779      -18.833        1.097       20.455       17.084       12.297      418.406      291.850      151.226        0.072        0.043       23.940        8.758        0.134      342.342       17.684      859.693
08/28/2013  03:03:00      -14.733       -9.287        1.648       23.348       16.053       11.986      545.137      257.694      143.652        0.063        0.047       17.416       14.781        0.720      342.370       17.732      859.700
08/28/2013  03:04:00      -32.963      -29.601        2.618       29.180       14.014        9.381      851.455      196.384       88.000        0.155        0.057       44.303       13.412        0.092      342.427       17.830      859.706
08/28/2013  03:05:00      -69.546      -33.484       -7.649       15.273       11.052        6.846      233.263      122.137       46.872        0.321        0.020       77.187        3.023        0.002      342.411       17.804      859.702
08/28/2013  03:06:00      -70.556      -15.950       -6.023       21.017       16.597       11.827      441.727      275.456      139.871        0.306        0.043       72.337        8.230        0.013      342.328       17.661      859.690
08/28/2013  03:07:00      -64.353      -21.941       -6.598       14.056       12.097        8.488      197.580      146.332       72.047        0.254        0.021       67.990        5.511        0.007      342.351       17.698      859.686
08/28/2013  03:08:00      -53.307       -5.795       -4.566       13.655       11.040       11.134      186.454      121.892      123.956        0.166        0.022       53.621        6.658        0.015      342.279       17.576      859.669
08/28/2013  03:09:00      -82.285       -7.978       -7.919       14.602       10.096        8.222      213.233      101.922       67.608        0.364        0.019       82.671        3.956        0.002      342.327       17.658      859.663
08/28/2013  03:10:00     -111.650      -12.816      -10.347       21.724       12.584       12.131      471.926      158.365      147.163        0.676        0.039      112.383       10.418        0.009      342.290       17.596      859.654
08/28/2013  03:11:00     -111.574      -18.308      -12.657       27.950       12.793       13.093      781.204      163.654      171.434        0.703        0.056      113.067       14.149        0.016      342.154       17.364      859.648
08/28/2013  03:12:00     -113.483      -51.108      -15.607       13.015       16.224       11.936      169.387      263.226      142.476        0.815        0.029      124.460        7.317        0.003      342.094       17.263      859.651
08/28/2013  03:13:00     -131.632      -43.860      -13.507       18.419       19.609       13.201      339.257      384.526      174.277        1.017        0.045      138.747        7.132        0.003      342.054       17.194      859.663
08/28/2013  03:14:00     -133.836      -16.074       -7.920       28.281       24.055       17.595      799.794      578.642      309.575        0.996        0.084      134.798       13.622        0.010      342.008       17.117      859.687
08/28/2013  03:15:00     -102.270      -20.923       -6.332       28.584       18.475       13.594      817.044      341.333      184.803        0.614        0.067      104.388        9.641        0.009      341.981       17.071      859.686
08/28/2013  03:16:00      -81.157      -23.330       -4.250       27.353       19.248       13.867      748.194      370.490      192.294        0.423        0.066       84.444       11.698        0.019      342.021       17.138      859.681
08/28/2013  03:17:00      -93.804       -4.778       -3.026       20.168       29.029       14.521      406.765      842.707      210.862        0.515        0.073       93.925       11.523        0.015      342.046       17.182      859.680
08/28/2013  03:18:00      -95.016       -1.426       -7.514       27.254       31.578       19.424      742.799      997.161      377.299        0.560        0.106       95.027       17.675        0.035      342.049       17.188      859.695
08/28/2013  03:19:00      -98.751       21.671       -8.429       39.939       32.742       25.550     1595.156     1072.020      652.804        0.681        0.166      101.101       24.146        0.057      342.029       17.153      859.721
08/28/2013  03:20:00     -144.177       32.484      -10.355       38.880       30.784       20.479     1511.652      947.680      419.406        1.241        0.144      147.791       19.258        0.017      342.148       17.355      859.736
08/28/2013  03:21:00     -116.860        5.770       -9.679       25.643       19.301       11.992      657.550      372.523      143.817        0.748        0.059      117.002        7.577        0.004      342.085       17.248      859.731
08/28/2013  03:22:00      -51.922      -17.916       -2.914       17.353       16.055        9.649      301.111      257.769       93.100        0.184        0.033       54.926        7.558        0.019      341.968       17.049      859.733
08/28/2013  03:23:00      -49.181      -12.335       -3.377       13.267       12.859        8.276      176.016      165.362       68.488        0.150        0.020       50.704        4.012        0.006      342.064       17.212      859.759
08/28/2013  03:24:00      -55.305       -6.424       -4.924       22.747       14.338        9.689      517.410      205.578       93.884        0.197        0.041       55.677        5.320        0.009      342.017       17.132      859.771
08/28/2013  03:25:00      -58.647      -22.318       -3.390       15.084       14.231        9.920      227.537      202.520       98.399        0.224        0.026       62.750        6.292        0.010      342.088       17.254      859.767
08/28/2013  03:26:00      -49.347        1.254       -0.550       19.755       22.900       12.417      390.247      524.412      154.171        0.175        0.053       49.363        9.835        0.040      342.015       17.127      859.735
08/28/2013  03:27:00      -67.759        6.771       -5.614       15.865       12.345        9.825      251.712      152.405       96.538        0.258        0.025       68.097        4.566        0.004      341.991       17.087      859.708
08/28/2013  03:28:00      -51.228       -7.222       -2.276       33.997       16.383       17.176     1155.799      268.419      295.011        0.220        0.086       51.735       16.470        0.101      341.965       17.045      859.692
08/28/2013  03:29:00      -50.864       -4.416       -6.510       21.557       22.088       13.406      464.687      487.866      179.710        0.189        0.057       51.056        6.334        0.015      341.908       16.947      859.697
08/28/2013  03:30:00      -52.933      -17.827       -3.587       21.484       20.465       11.594      461.559      418.833      134.413        0.207        0.051       55.854        7.160        0.016      341.847       16.843      859.717
08/28/2013  03:31:00      -36.648      -40.762       -0.222       32.997       21.105       16.852     1088.806      445.424      283.979        0.241        0.091       54.815       13.648        0.062      341.806       16.774      859.730
08/28/2013  03:32:00      -80.695       -0.020       -8.418       20.457       25.397       15.742      418.501      645.032      247.815        0.395        0.066       80.695        9.314        0.013      341.737       16.658      859.735
08/28/2013  03:33:00      -78.632      -29.159       -3.110       29.511       20.436       17.152      870.870      417.630      294.190        0.431        0.079       83.864       13.319        0.025      341.664       16.536      859.714
08/28/2013  03:34:00      -18.402        9.767        5.159       31.691       16.608       17.006     1004.315      275.821      289.204        0.101        0.078       20.834       15.763        0.572      341.564       16.363      859.694
08/28/2013  03:35:00      -39.775       -0.020       -6.269       26.800       18.489       14.355      718.243      341.831      206.056        0.144        0.063       39.775       11.028        0.077      341.691       16.580      859.675
08/28/2013  03:36:00     -117.074       28.917      -13.169       34.042       28.066       16.982     1158.846      787.727      288.397        0.848        0.112      120.593        8.752        0.005      341.797       16.759      859.672
08/28/2013  03:37:00      -75.306        4.774      -12.229       16.594       20.027       14.093      275.358      401.099      198.627        0.336        0.044       75.457        4.311        0.003      341.815       16.790      859.675
08/28/2013  03:38:00      -69.636        3.387       -7.585       24.654       17.769       10.853      607.826      315.728      117.796        0.298        0.052       69.718        7.058        0.010      341.818       16.795      859.678
08/28/2013  03:39:00      -74.329       -3.235      -12.964       23.076       16.708       11.651      532.517      279.169      135.756        0.333        0.047       74.399       11.684        0.025      341.712       16.616      859.666
08/28/2013  03:40:00      -38.289       19.321       -5.638       16.045       25.126       10.222      257.436      631.317      104.481        0.143        0.050       42.888        8.619        0.040      341.745       16.671      859.662
08/28/2013  03:41:00      -47.345       -6.510       -5.607       32.007       24.573       16.358     1024.441      603.837      267.584        0.211        0.095       47.791       11.873        0.062      341.752       16.684      859.689
08/28/2013  03:42:00      -97.116       -7.808      -10.031       34.655       22.071       19.912     1200.993      487.148      396.503        0.584        0.104       97.429       16.827        0.030      341.691       16.580      859.703
08/28/2013  03:43:00      -68.538      -14.438       -3.312       42.527       30.538       18.803     1808.507      932.550      353.534        0.401        0.155       70.042       12.049        0.030      341.697       16.588      859.696
08/28/2013  03:44:00      -68.210        4.072        1.255       43.130       31.120       22.298     1860.219      968.449      497.217        0.400        0.166       68.332       16.469        0.058      341.721       16.631      859.700
08/28/2013  03:45:00      -91.354       -6.334      -14.389       37.744       28.441       17.801     1424.602      808.880      316.872        0.557        0.128       91.573       12.422        0.018      341.712       16.616      859.695
08/28/2013  03:46:00     -115.328        6.043      -11.842       47.831       31.014       25.116     2287.830      961.879      630.815        0.868        0.194      115.487       14.480        0.016      341.684       16.568      859.684
08/28/2013  03:47:00      -68.327       -6.802       -8.263       42.813       27.638       21.844     1832.963      763.873      477.161        0.393        0.154       68.665       17.877        0.068      341.629       16.475      859.683
08/28/2013  03:48:00      -65.983       16.276       -3.506       49.503       41.169       26.766     2450.565     1694.888      716.406        0.475        0.243       67.961       28.662        0.178      341.677       16.556      859.672
08/28/2013  03:49:00      -92.760       28.436      -16.395       48.428       50.102       26.903     2345.289     2510.221      723.745        0.763        0.279       97.020       20.233        0.043      341.901       16.935      859.666
08/28/2013  03:50:00     -132.842      -27.212       -0.010       48.232       46.688       23.500     2326.283     2179.801      552.231        1.172        0.253      135.601       18.375        0.018      341.789       16.746      859.668
08/28/2013  03:51:00     -151.647       31.061      -12.216       39.490       39.154       20.054     1559.478     1533.030      402.181        1.380        0.175      154.795       15.482        0.010      341.875       16.892      859.659
08/28/2013  03:52:00     -170.060       54.126      -16.025       57.643       35.045       27.822     3322.718     1228.143      774.063        1.871        0.266      178.466       21.926        0.015      341.918       16.963      859.636
08/28/2013  03:53:00      -63.391       44.100       -6.969       41.921       26.881       25.392     1757.369      722.595      644.749        0.457        0.156       77.222       20.671        0.072      341.957       17.031      859.605
08/28/2013  03:54:00      -44.888       27.021       -0.108       22.571       18.596       16.050      509.434      345.828      257.599        0.193        0.056       52.393       13.876        0.070      341.888       16.914      859.588
08/28/2013  03:55:00      -40.166       44.379       -4.783       20.686       26.036       11.083      427.903      677.848      122.831        0.242        0.061       59.857       12.017        0.040      341.974       17.059      859.584
08/28/2013  03:56:00      -53.877       34.020       -6.143       22.347       18.718       15.373      499.399      350.347      236.327        0.259        0.054       63.719       14.065        0.049      341.911       16.952      859.616
08/28/2013  03:57:00      -48.345       -3.294        0.931       20.730       15.220       13.707      429.712      231.651      187.879        0.160        0.042       48.457       11.011        0.052      341.924       16.974      859.639
08/28/2013  03:58:00      -58.169      -13.425       -6.960       17.381       14.547        8.879      302.088      211.612       78.834        0.210        0.030       59.698        6.102        0.010      341.922       16.972      859.672
08/28/2013  03:59:00      -62.430      -19.690       -6.085       18.297       13.354        6.613      334.795      178.329       43.738        0.244        0.028       65.461        5.542        0.007      341.844       16.839      859.687
08/28/2013  04:00:00       27.019      -10.037       14.853       29.566       26.141       23.371      874.159      683.365      546.220        0.158        0.105       28.823       12.819        0.198      341.747       16.676      859.688
08/28/2013  04:01:00       10.725        4.406       12.686       30.441       37.001       22.055      926.675     1369.041      486.409        0.154        0.139       11.594       15.480        1.783      341.714       16.619      859.676
08/28/2013  04:02:00       17.747      -11.532       20.516       29.349       37.119       29.776      861.381     1377.837      886.619        0.200        0.156       21.165       23.553        1.238      341.577       16.388      859.670
08/28/2013  04:03:00       13.608      -52.537        2.738       30.186       30.463       20.992      911.211      928.003      440.663        0.262        0.114       54.271       13.736        0.064      341.470       16.205      859.680
08/28/2013  04:04:00       15.647      -26.683        4.391       27.925       26.372       19.149      779.801      695.467      366.695        0.141        0.092       30.933       10.844        0.123      341.647       16.505      859.676
08/28/2013  04:05:00        6.941      -11.342        6.192       50.119       17.782       19.674     2511.926      316.196      387.086        0.171        0.161       13.298       18.817        2.002      341.618       16.456      859.687
08/28/2013  04:06:00     -100.463        0.378      -12.247       14.483       10.828        8.680      209.749      117.255       75.340        0.532        0.020      100.463        5.493        0.003      341.755       16.689      859.669
08/28/2013  04:07:00     -135.984      -18.606      -18.410       22.920       17.260       14.820      525.342      297.919      219.637        1.011        0.052      137.251       13.465        0.010      341.698       16.590      859.669
08/28/2013  04:08:00     -101.298      -23.970       -6.926       26.341       25.467       16.632      693.837      648.564      276.626        0.625        0.081      104.095       15.932        0.023      341.685       16.569      859.663
08/28/2013  04:09:00      -48.201      -28.865       -2.837       39.633       18.413       15.651     1570.758      339.025      244.960        0.266        0.108       56.183       13.986        0.062      341.777       16.727      859.673
08/28/2013  04:10:00      -23.424      -31.439        1.055       29.408       15.400       12.130      864.823      237.168      147.134        0.139        0.062       39.206        4.962        0.016      341.816       16.790      859.698
08/28/2013  04:11:00      -25.854      -55.954       -2.672       22.327       29.284       14.906      498.483      857.558      222.197        0.269        0.079       61.639       11.756        0.036      341.877       16.896      859.697
08/28/2013  04:12:00      -32.487      -20.206        0.760        9.762        8.237       10.106       95.302       67.841      102.141        0.086        0.013       38.258        3.924        0.011      341.923       16.974      859.693
08/28/2013  04:13:00      -56.860       -9.439       -8.575        7.006        7.695        5.336       49.083       59.212       28.470        0.177        0.007       57.638        4.020        0.005      341.990       17.088      859.682
08/28/2013  04:14:00      -56.749        5.585       -9.802        6.015        7.742        6.324       36.182       59.942       39.993        0.174        0.007       57.023        4.161        0.005      342.012       17.127      859.681
08/28/2013  04:15:00      -49.653        2.560       -8.185        5.382        4.778        5.396       28.970       22.832       29.120        0.131        0.004       49.719        1.446        0.001      342.017       17.134      859.694
08/28/2013  04:16:00      -49.824      -10.446       -7.553        6.118        7.357        5.241       37.427       54.130       27.467        0.138        0.006       50.908        3.041        0.004      342.023       17.145      859.684
08/28/2013  04:17:00      -61.347       -2.737       -9.518        5.987        5.068        5.511       35.845       25.685       30.376        0.198        0.005       61.408        3.177        0.003      341.978       17.066      859.687
08/28/2013  04:18:00      -39.795      -16.106       -8.958       11.430        6.167        3.154      130.653       38.029        9.949        0.105        0.009       42.931        3.644        0.007      342.070       17.221      859.680
08/28/2013  04:19:00      -26.947      -12.925       -4.872        5.171        7.470        4.505       26.737       55.795       20.293        0.051        0.005       29.887        3.738        0.016      342.194       17.432      859.682
08/28/2013  04:20:00      -49.136      -20.329      -11.403        6.909       10.217        5.786       47.732      104.389       33.482        0.157        0.009       53.175        5.647        0.011      342.280       17.579      859.666
08/28/2013  04:21:00      -82.076      -33.155      -10.255       10.804       10.866        8.051      116.716      118.059       64.814        0.412        0.015       88.519        4.626        0.003      341.954       17.024      859.668
08/28/2013  04:22:00      -84.051      -31.449      -14.709       16.591       15.540        9.186      275.246      241.477       84.388        0.444        0.030       89.742        2.590        0.001      341.928       16.980      859.680
08/28/2013  04:23:00      -72.087      -17.283       -5.239       16.505       13.959        8.071      272.410      194.842       65.141        0.303        0.027       74.130        5.961        0.006      341.897       16.928      859.683
08/28/2013  04:24:00      -35.039      -11.080       -7.328       24.612        8.483        5.484      605.771       71.957       30.073        0.106        0.035       36.749        7.779        0.045      341.923       16.970      859.688
08/28/2013  04:25:00       -6.065      -17.062       -4.448        4.559        8.908        4.525       20.786       79.351       20.477        0.023        0.006       18.108        4.010        0.049      341.974       17.060      859.697
08/28/2013  04:26:00       -2.986      -26.192       -4.297       23.594       11.902       11.164      556.659      141.655      124.628        0.077        0.041       26.362        9.396        0.127      342.008       17.116      859.710
08/28/2013  04:27:00       10.636      -14.084      -10.748       20.522       12.981       10.252      421.161      168.496      105.096        0.056        0.035       17.649        2.834        0.026      342.011       17.123      859.726
08/28/2013  04:28:00      -20.351       -4.736        3.003       47.368       16.337       17.830     2243.762      266.909      317.899        0.164        0.141       20.895       14.677        0.493      341.817       16.793      859.725
08/28/2013  04:29:00      -40.497      -17.719       -8.337       13.873       12.839        8.351      192.464      164.830       69.743        0.123        0.021       44.204        6.384        0.021      341.907       16.946      859.750
08/28/2013  04:30:00      -48.041      -12.081       -9.180       10.812        7.646        9.512      116.894       58.463       90.482        0.140        0.013       49.536        8.368        0.029      341.715       16.619      859.760
08/28/2013  04:31:00      -50.360      -17.877       -4.882        9.768       11.278        5.239       95.419      127.203       27.447        0.156        0.013       53.438        3.294        0.004      341.825       16.805      859.757
08/28/2013  04:32:00      -68.892      -33.203       -6.703       11.354       10.657        6.988      128.917      113.581       48.836        0.309        0.015       76.476        3.117        0.002      341.885       16.907      859.741
08/28/2013  04:33:00      -64.996      -34.475       -9.327       27.285       15.894       11.065      744.449      252.609      122.443        0.331        0.056       73.573        8.618        0.014      341.827       16.811      859.738
08/28/2013  04:34:00     -124.886      -44.576       -8.738       15.281       18.070       10.125      233.497      326.520      102.519        0.916        0.033      132.603        5.662        0.002      341.798       16.763      859.741
08/28/2013  04:35:00     -101.943      -60.794       -6.745       39.471       26.823       19.732     1557.979      719.495      389.340        0.840        0.133      118.694       17.968        0.023      341.693       16.582      859.743
08/28/2013  04:36:00      -86.812      -62.832       -1.200       41.005       31.936       23.997     1681.376     1019.887      575.833        0.738        0.164      107.165       24.349        0.052      341.623       16.464      859.749
08/28/2013  04:37:00      -83.980      -55.056        8.731       48.767       31.179       24.548     2378.226      972.100      602.604        0.706        0.198      100.418       21.464        0.046      341.667       16.539      859.756
08/28/2013  04:38:00     -111.336      -32.554       -2.337       31.557       26.570       14.900      995.852      705.985      222.023        0.769        0.096      115.998       10.181        0.008      341.739       16.660      859.753
08/28/2013  04:39:00      -90.458       -6.149       -6.733       25.986       14.989       12.887      675.281      224.668      166.085        0.467        0.053       90.666       14.112        0.024      341.771       16.716      859.730
08/28/2013  04:40:00     -102.615       21.799       -6.664       40.580       26.236       18.712     1646.770      688.312      350.153        0.687        0.134      104.905       18.594        0.031      341.733       16.651      859.710
08/28/2013  04:41:00     -138.518       21.802      -10.998       33.313       28.885       17.930     1109.756      834.362      321.493        1.102        0.113      140.224       13.304        0.009      341.754       16.687      859.688
08/28/2013  04:42:00     -163.236       18.618      -13.400       48.430       34.206       27.200     2345.431     1170.034      739.847        1.571        0.213      164.294       24.110        0.022      341.820       16.798      859.684
08/28/2013  04:43:00     -114.472       -8.632      -10.560       56.509       38.800       21.534     3193.256     1505.404      463.704        0.923        0.258      114.797       22.240        0.038      341.775       16.721      859.687
08/28/2013  04:44:00      -80.787      -36.545        2.861       52.569       43.153       29.155     2763.495     1862.186      849.986        0.667        0.274       88.669       33.121        0.140      341.757       16.692      859.699
08/28/2013  04:45:00     -115.530      -44.969       -2.357       36.238       27.610       19.159     1313.193      762.298      367.081        0.891        0.122      123.973       19.599        0.025      341.679       16.559      859.726
08/28/2013  04:46:00      -96.868      -35.581        1.017       24.305       26.020       15.772      590.739      677.051      248.768        0.608        0.076      103.196       11.112        0.012      341.609       16.439      859.741
08/28/2013  04:47:00      -93.847      -53.173       -1.854       25.585       25.614       14.085      654.616      656.083      198.373        0.657        0.075      107.864       11.807        0.012      341.633       16.482      859.742
08/28/2013  04:48:00      -78.710      -66.002       -2.464       27.772       29.395       19.072      771.289      864.048      363.756        0.628        0.100      102.721       12.443        0.015      341.643       16.498      859.742
08/28/2013  04:49:00      -88.497      -55.160        2.402       37.487       29.959       15.862     1405.298      897.543      251.603        0.672        0.128      104.280       17.352        0.028      341.664       16.533      859.749
08/28/2013  04:50:00      -69.367      -48.514        1.152       33.658       22.662       18.098     1132.845      513.561      327.532        0.457        0.099       84.649       16.427        0.038      341.736       16.655      859.771
08/28/2013  04:51:00      -97.792      -56.556       -6.046       21.860       13.903       15.390      477.854      193.284      236.837        0.685        0.045      112.968       13.490        0.014      341.823       16.803      859.771
08/28/2013  04:52:00      -94.938      -38.998       -9.966       18.942       19.855       13.226      358.816      394.213      174.931        0.578        0.046      102.636       13.275        0.017      341.732       16.649      859.780
08/28/2013  04:53:00     -108.739      -29.070       -3.602       36.872       31.498       16.133     1359.560      992.150      260.268        0.765        0.131      112.558       13.217        0.014      341.675       16.552      859.773
08/28/2013  04:54:00     -114.609      -12.700       -5.136       48.382       36.214       24.732     2340.798     1311.462      611.656        0.879        0.213      115.311       23.813        0.043      341.630       16.475      859.763
08/28/2013  04:55:00     -180.735       32.426      -16.929       40.924       28.537       23.900     1674.786      814.348      571.215        1.853        0.153      183.621       18.969        0.011      341.755       16.686      859.756
08/28/2013  04:56:00     -160.025       21.960      -17.759       40.199       32.876       19.343     1615.976     1080.864      374.168        1.474        0.154      161.524       12.622        0.006      341.716       16.623      859.750
08/28/2013  04:57:00      -75.430      -15.138        3.625       55.522       49.920       24.065     3082.677     2491.968      579.142        0.604        0.308       76.934       22.088        0.082      341.713       16.617      859.763
08/28/2013  04:58:00        1.296      -16.909        8.937       31.135       23.321       13.646      969.415      543.854      186.202        0.103        0.085       16.958       11.183        0.435      341.680       16.561      859.788
08/28/2013  04:59:00        6.687       -8.275        0.372       18.285       12.510       11.536      334.346      156.492      133.073        0.037        0.031       10.639        9.861        0.859      341.687       16.573      859.819
08/28/2013  05:00:00       -5.157        9.899       16.987       14.350       23.533       16.593      205.929      553.796      275.313        0.072        0.052       11.162        6.766        0.367      341.681       16.563      859.827
08/28/2013  05:01:00       -2.276       19.358      -11.601       12.745       16.221       12.767      162.442      263.107      162.992        0.055        0.029       19.491       10.033        0.265      341.657       16.521      859.820
08/28/2013  05:02:00      -57.525        1.500      -18.518       16.104        8.018       12.366      259.324       64.289      152.910        0.207        0.024       57.544        5.867        0.010      341.717       16.626      859.804
08/28/2013  05:03:00     -107.882      -19.643      -10.033       30.604       19.391       11.285      936.595      375.992      127.351        0.678        0.072      109.656       15.114        0.019      341.645       16.502      859.782
08/28/2013  05:04:00     -115.728      -34.848       -6.835       23.037       20.429       13.864      530.702      417.327      192.221        0.790        0.057      120.861       11.042        0.008      341.563       16.361      859.783
08/28/2013  05:05:00      -64.347      -32.335        0.127       29.548       18.454       12.277      873.104      340.554      150.723        0.327        0.068       72.015       13.825        0.037      341.587       16.400      859.782
08/28/2013  05:06:00      -37.202        2.658        3.092       28.552       23.791       13.158      815.190      566.033      173.136        0.148        0.078       37.297       11.570        0.096      341.588       16.403      859.794
08/28/2013  05:07:00       -8.251       -1.582       -1.794       14.806       10.461       10.574      219.206      109.425      111.800        0.026        0.022        8.401       11.611        1.910      341.567       16.372      859.802
08/28/2013  05:08:00      -48.451        6.990       -7.921       13.800       14.565       12.813      190.436      212.132      164.181        0.151        0.028       48.953        9.360        0.037      341.674       16.550      859.806
08/28/2013  05:09:00     -100.814        0.467      -15.585       18.412       27.220       15.058      339.018      740.954      226.753        0.586        0.065      100.815       10.003        0.010      341.700       16.596      859.811
08/28/2013  05:10:00     -132.910      -19.859      -19.833       19.842       19.451       12.614      393.701      378.330      159.106        0.969        0.047      134.386        8.534        0.004      341.651       16.513      859.816
08/28/2013  05:11:00     -142.663      -58.034      -14.685       26.968       23.378       18.499      727.263      546.531      342.203        1.278        0.081      154.015        9.262        0.004      341.582       16.395      859.833
08/28/2013  05:12:00     -126.341      -65.814        1.656       37.846       25.398       20.767     1432.289      645.042      431.286        1.140        0.125      142.455       20.844        0.021      341.526       16.301      859.869
08/28/2013  05:13:00      -87.129      -44.353        1.315       40.503       32.149       19.501     1640.486     1033.544      380.270        0.631        0.153       97.769       21.229        0.047      341.494       16.245      859.895
08/28/2013  05:14:00      -31.223      -48.975        2.648       24.104       23.028       14.341      580.979      530.290      205.656        0.235        0.066       58.081        9.538        0.027      341.624       16.465      859.912
08/28/2013  05:15:00      -21.509      -49.816        3.893       15.222       17.780       11.065      231.716      316.117      122.433        0.181        0.034       54.261        6.634        0.015      341.771       16.715      859.902
08/28/2013  05:16:00      -58.958      -19.738       -2.158       13.518       11.836        9.635      182.736      140.100       92.830        0.214        0.021       62.174        7.666        0.015      341.741       16.666      859.889
08/28/2013  05:17:00      -40.809      -20.761       -1.691       28.271       12.284        8.876      799.268      150.905       78.786        0.156        0.051       45.786        5.402        0.014      341.673       16.547      859.879
08/28/2013  05:18:00     -111.137      -48.631       -7.747       22.688       19.040        8.610      514.767      362.509       74.127        0.786        0.048      121.311        9.512        0.006      341.665       16.535      859.876
08/28/2013  05:19:00     -124.344      -54.980      -11.297       18.210       22.018       13.179      331.602      484.770      173.690        0.980        0.050      135.956       10.963        0.007      341.512       16.276      859.873
08/28/2013  05:20:00      -93.881      -15.590       -1.651       32.274       24.649       18.675     1041.590      607.567      348.757        0.553        0.100       95.166       16.678        0.031      341.409       16.103      859.882
08/28/2013  05:21:00      -98.939      -31.203       -5.539       15.356       10.607       10.674      235.822      112.500      113.925        0.563        0.023      103.743        9.111        0.008      341.416       16.112      859.899
08/28/2013  05:22:00      -53.005      -34.457       -2.535       28.657       21.963       14.279      821.239      482.382      203.893        0.276        0.075       63.220       13.371        0.045      341.430       16.136      859.908
08/28/2013  05:23:00        0.526      -14.517        1.378       14.247       12.894       11.740      202.984      166.244      137.835        0.036        0.025       14.526        7.805        0.289      341.441       16.154      859.934
08/28/2013  05:24:00      -35.086      -36.069       -1.620       21.045       10.232        9.026      442.897      104.687       81.474        0.158        0.031       50.319        9.070        0.032      341.461       16.191      859.942
08/28/2013  05:25:00      -48.604      -14.456       -2.798       13.521       13.622       11.715      182.821      185.553      137.234        0.154        0.025       50.708        6.029        0.014      341.417       16.115      859.932
08/28/2013  05:26:00      -74.605      -11.694       -8.464       10.482       11.143        7.206      109.869      124.159       51.926        0.303        0.014       75.516        3.210        0.002      341.474       16.210      859.934
08/28/2013  05:27:00      -87.233      -15.505      -11.273       12.332       14.910       10.703      152.084      222.294      114.547        0.423        0.024       88.600        3.780        0.002      341.465       16.196      859.928
08/28/2013  05:28:00      -85.295      -18.574      -11.693       12.068       16.068       10.522      145.626      258.168      110.713        0.414        0.026       87.294        5.015        0.003      341.437       16.148      859.924
08/28/2013  05:29:00      -96.072      -33.131      -14.347       10.006       12.325        8.101      100.128      151.893       65.629        0.543        0.016      101.624        6.611        0.004      341.439       16.150      859.937
08/28/2013  05:30:00      -76.972      -28.533       -5.467       27.749       11.907       12.315      770.028      141.778      151.670        0.392        0.053       82.090       13.798        0.028      341.427       16.132      859.950
08/28/2013  05:31:00      -47.518      -29.683       -0.210       23.746       17.390       15.615      563.895      302.399      243.837        0.212        0.056       56.027        8.455        0.023      341.418       16.116      859.966
08/28/2013  05:32:00      -75.419      -24.927       -8.621       12.782       12.017       11.179      163.383      144.414      124.968        0.341        0.022       79.432        2.728        0.001      341.446       16.164      859.994
08/28/2013  05:33:00      -74.321      -46.286       -8.551       11.842       18.629       11.993      140.232      347.021      143.822        0.419        0.032       87.556        6.561        0.006      341.473       16.209      859.999
08/28/2013  05:34:00      -64.086      -38.080      -11.483       12.693       14.215        9.562      161.107      202.078       91.433        0.307        0.023       74.546        6.900        0.009      341.467       16.199      859.995
08/28/2013  05:35:00      -94.254      -25.567      -16.808       10.833       13.348        7.516      117.363      178.158       56.485        0.509        0.018       97.661        6.002        0.004      341.455       16.178      859.989
08/28/2013  05:36:00      -92.290      -44.599      -15.440       13.743       12.314        8.924      188.883      151.644       79.644        0.558        0.021      102.501        6.505        0.004      341.433       16.142      859.971
08/28/2013  05:37:00     -112.410      -45.713      -17.905       21.610       15.993       13.053      466.993      255.771      170.374        0.797        0.045      121.350        9.730        0.006      341.401       16.088      859.968
08/28/2013  05:38:00     -129.248      -47.382      -14.647       18.285       13.996        8.167      334.335      195.885       66.705        0.988        0.030      137.659        4.861        0.001      341.451       16.171      859.989
08/28/2013  05:39:00     -155.345      -34.754      -12.229       18.468       18.521       11.688      341.058      343.019      136.604        1.315        0.041      159.185        7.852        0.002      341.440       16.153      859.996
08/28/2013  05:40:00     -138.820      -24.724       -8.041       21.669       21.350       11.845      469.527      455.810      140.312        1.051        0.053      141.004        9.622        0.005      341.354       16.009      860.007
08/28/2013  05:41:00     -127.904      -54.844       -9.601       21.070       26.717       14.880      443.946      713.812      221.412        1.042        0.069      139.166        6.289        0.002      341.370       16.036      860.014
08/28/2013  05:42:00     -124.192      -49.184       -2.561       23.828       26.208       18.787      567.793      686.855      352.956        0.973        0.080      133.577       14.102        0.011      341.415       16.111      860.011
08/28/2013  05:43:00     -123.617      -49.392       -2.749       28.539       25.477       17.329      814.465      649.095      300.284        0.975        0.088      133.120       15.682        0.014      341.345       15.993      860.036
08/28/2013  05:44:00     -103.221      -57.108       -4.304       36.905       20.436       15.775     1361.950      417.614      248.847        0.798        0.101      117.965       13.577        0.013      341.413       16.108      860.048
08/28/2013  05:45:00     -120.320      -43.577      -10.941       23.191       20.627       21.180      537.819      425.493      448.589        0.895        0.071      127.968       16.864        0.017      341.428       16.134      860.046
08/28/2013  05:46:00      -90.109      -12.406       -2.678       39.504       36.976       18.328     1560.579     1367.226      335.910        0.577        0.163       90.959       19.676        0.047      341.471       16.205      860.043
08/28/2013  05:47:00      -76.334       15.129       -6.637       38.550       41.019       23.932     1486.075     1682.561      572.731        0.492        0.187       77.819       19.374        0.062      341.764       16.702      860.016
08/28/2013  05:48:00     -121.599       34.967      -11.562       63.235       46.109       27.585     3998.702     2126.058      760.907        1.151        0.344      126.526       23.487        0.034      341.893       16.922      859.994
08/28/2013  05:49:00     -142.571       -3.180      -11.540       42.362       34.671       27.389     1794.531     1202.104      750.165        1.211        0.187      142.606       23.330        0.027      341.818       16.793      860.003
08/28/2013  05:50:00     -127.852      -26.642       -9.638       50.152       37.498       31.215     2515.254     1406.123      974.388        1.102        0.245      130.599       30.500        0.055      341.820       16.798      860.024
08/28/2013  05:51:00     -122.344      -24.786       -7.569       47.846       41.185       23.395     2289.216     1696.175      547.309        1.009        0.227      124.830       24.172        0.037      341.618       16.456      860.045
08/28/2013  05:52:00     -120.304      -22.545      -12.521       29.505       24.468       18.192      870.552      598.672      330.950        0.847        0.090      122.398       16.522        0.018      341.667       16.539      860.071
08/28/2013  05:53:00     -115.535      -24.436      -11.288       34.278       27.986       17.163     1174.954      783.189      294.575        0.816        0.113      118.091       15.991        0.018      341.578       16.387      860.062
08/28/2013  05:54:00      -43.549       15.198       -2.522       32.184       30.139       22.897     1035.782      908.339      524.289        0.230        0.123       46.125       19.507        0.179      341.739       16.661      860.038
08/28/2013  05:55:00      -78.660       19.695      -12.053       49.011       39.089       27.991     2402.040     1527.962      783.488        0.572        0.236       81.088       22.816        0.079      341.982       17.074      860.015
08/28/2013  05:56:00     -149.639       35.069      -16.362       64.868       44.242       23.954     4207.805     1957.351      573.795        1.531        0.337      153.694       21.707        0.020      342.035       17.161      860.011
08/28/2013  05:57:00     -151.630       14.189      -20.603       46.823       39.486       21.534     2192.374     1559.151      463.703        1.392        0.211      152.292        4.336        0.001      341.961       17.037      860.026
08/28/2013  05:58:00      -97.935      -24.515      -15.727       35.924       46.889       24.451     1290.501     2198.589      597.841        0.726        0.204      100.956       16.696        0.027      341.893       16.922      860.057
08/28/2013  05:59:00     -123.599      -18.668       -6.351       32.499       30.157       20.900     1056.193      909.416      436.828        0.903        0.120      125.001       13.960        0.012      341.611       16.444      860.074
08/28/2013  06:00:00     -129.664      -11.631      -13.018       27.448       36.760       17.504      753.367     1351.326      306.393        0.976        0.121      130.185       12.865        0.010      341.558       16.353      860.094
08/28/2013  06:01:00      -86.379       14.308      -10.790       34.457       28.433       20.446     1187.259      808.442      418.035        0.510        0.121       87.556       20.419        0.054      341.594       16.414      860.106
08/28/2013  06:02:00      -64.358       -2.958       -5.840       23.080       22.308       13.677      532.698      497.644      187.049        0.270        0.061       64.426       13.625        0.045      341.624       16.466      860.104
08/28/2013  06:03:00      -21.942       -8.785        0.887       16.592       14.144        8.929      275.303      200.041       79.727        0.056        0.028       23.636        4.837        0.042      341.576       16.385      860.109
08/28/2013  06:04:00      -25.580      -39.743       -0.261       29.691       20.236       14.937      881.538      409.483      223.101        0.187        0.076       47.264       14.559        0.095      341.714       16.620      860.124
08/28/2013  06:05:00       -7.351       -4.043       13.484       14.064       15.878       12.675      197.785      252.106      160.647        0.043        0.031        8.389        6.615        0.622      341.498       16.253      860.131
08/28/2013  06:06:00        3.710      -30.529        1.050       16.417       22.197       12.989      269.530      492.726      168.726        0.094        0.047       30.754       11.318        0.135      341.593       16.413      860.132
08/28/2013  06:07:00       12.343      -20.552        6.918       15.674       22.910       21.620      245.661      524.869      467.404        0.093        0.062       23.974       14.156        0.349      341.502       16.259      860.161
08/28/2013  06:08:00        4.806      -53.102       -9.427       16.281       12.532       10.762      265.086      157.043      115.823        0.173        0.027       53.319        6.958        0.017      341.631       16.478      860.173
08/28/2013  06:09:00      -28.870      -31.831       -5.253       12.457       17.539       10.421      155.168      307.626      108.596        0.122        0.029       42.973        4.345        0.010      341.672       16.546      860.173
08/28/2013  06:10:00      -50.646      -15.139       -2.158       25.689       20.679        8.065      659.914      427.627       65.039        0.198        0.058       52.860        5.229        0.010      341.573       16.379      860.175
08/28/2013  06:11:00      -90.760      -71.563       -2.462       31.915       30.926       17.922     1018.555      956.423      321.215        0.783        0.115      115.580       17.185        0.022      341.450       16.171      860.177
08/28/2013  06:12:00     -105.830      -68.959        9.623       48.626       33.673       23.990     2364.503     1133.891      575.530        1.006        0.204      126.314       20.208        0.026      341.308       15.930      860.167
08/28/2013  06:13:00     -117.243      -86.525       -4.996       59.812       35.112       35.009     3577.417     1232.824     1225.625        1.365        0.302      145.714       19.862        0.019      341.216       15.774      860.165
08/28/2013  06:14:00      -93.844      -30.314      -14.158       56.777       35.435       34.387     3223.575     1255.652     1182.500        0.779        0.283       98.619       20.213        0.042      341.159       15.679      860.165
08/28/2013  06:15:00      -29.293      -30.730       16.520       37.571       44.467       25.654     1411.612     1977.288      658.127        0.306        0.202       42.455       20.395        0.231      341.120       15.611      860.174
08/28/2013  06:16:00      -72.629      -76.619       -2.036       53.937       59.373       30.522     2909.242     3525.145      931.618        0.926        0.368      105.572       20.991        0.040      341.050       15.495      860.189
08/28/2013  06:17:00      -43.973      -71.707       10.908       69.028       74.294       43.554     4764.818     5519.584     1896.930        0.969        0.609       84.116       45.007        0.286      341.061       15.512      860.213
08/28/2013  06:18:00       -5.962      -36.013       11.486       43.271       51.152       28.880     1872.386     2616.503      834.078        0.339        0.266       36.503       26.555        0.529      341.021       15.446      860.227
08/28/2013  06:19:00      -83.732      -28.520        9.067       61.961       40.247       25.220     3839.180     1619.791      636.024        0.700        0.305       88.456       14.325        0.026      340.957       15.337      860.213
08/28/2013  06:20:00     -127.439      -71.418      -10.165       30.230       41.690       20.707      913.869     1738.096      428.777        1.226        0.154      146.086       13.884        0.009      340.986       15.386      860.200
08/28/2013  06:21:00     -147.008      -42.024       -8.492       28.358       25.800       17.783      804.186      665.626      316.224        1.262        0.089      152.897       14.190        0.009      340.997       15.405      860.174
08/28/2013  06:22:00     -108.548      -61.469       -1.127       66.084       34.482       24.140     4367.068     1189.005      582.742        1.085        0.307      124.744       25.340        0.041      341.037       15.472      860.184
08/28/2013  06:23:00     -152.064      -58.503       -3.418       45.271       29.898       21.922     2049.479      893.865      480.571        1.499        0.171      162.929       24.979        0.024      341.140       15.645      860.211
08/28/2013  06:24:00      -92.617      -94.710        9.307       53.815       34.579       32.220     2896.047     1195.709     1038.110        1.138        0.256      132.468       29.490        0.050      341.113       15.601      860.238
08/28/2013  06:25:00     -103.930      -70.410       -1.571       55.049       31.018       24.505     3030.435      962.128      600.519        1.018        0.230      125.535       28.621        0.052      341.090       15.563      860.263
08/28/2013  06:26:00      -95.751      -69.620       -0.873       38.554       35.905       23.352     1486.373     1289.155      545.301        0.867        0.166      118.386       22.189        0.035      341.082       15.548      860.291
08/28/2013  06:27:00      -88.794      -56.707        7.874       54.088       40.583       28.842     2925.529     1646.993      831.851        0.828        0.270      105.357       28.498        0.073      341.130       15.628      860.302
08/28/2013  06:28:00      -77.092      -52.584        4.214       44.350       41.905       25.058     1966.916     1756.006      627.885        0.654        0.218       93.318       24.098        0.067      341.270       15.865      860.307
08/28/2013  06:29:00      -89.067      -44.701       -4.903       23.292       20.578       16.589      542.494      423.453      275.202        0.560        0.062       99.655       10.023        0.010      341.261       15.851      860.322
08/28/2013  06:30:00     -109.228      -26.643       -7.936       23.767       22.764       15.979      564.892      518.218      255.338        0.702        0.067      112.431       10.447        0.009      341.158       15.678      860.349
08/28/2013  06:31:00      -81.313      -33.492        0.667       23.619       23.184       12.186      557.857      537.480      148.494        0.449        0.062       87.940        7.222        0.007      341.145       15.655      860.363
08/28/2013  06:32:00      -56.230      -43.478        3.502       30.666       19.124       13.624      940.401      365.723      185.610        0.328        0.075       71.079       10.993        0.024      341.093       15.567      860.375
08/28/2013  06:33:00      -46.742      -71.684       -2.945       45.838       36.085       29.123     2101.158     1302.150      848.137        0.579        0.213       85.577       27.001        0.100      341.079       15.544      860.389
08/28/2013  06:34:00      -36.023      -36.665       18.713       78.166       31.290       25.212     6109.986      979.078      635.665        0.536        0.386       51.400       37.622        0.536      341.048       15.490      860.409
08/28/2013  06:35:00     -118.054      -66.943       -0.170       78.475       50.497       36.218     6158.330     2549.938     1311.745        1.422        0.501      135.713       45.347        0.112      340.951       15.325      860.418
08/28/2013  06:36:00     -131.482      -67.203       -5.201       43.228       48.206       23.863     1868.658     2323.858      569.425        1.330        0.238      147.661       20.281        0.019      340.961       15.343      860.415
08/28/2013  06:37:00     -102.074      -48.678        1.009       41.849       30.156       21.724     1751.300      909.358      471.914        0.796        0.157      113.087       19.642        0.030      340.927       15.287      860.410
08/28/2013  06:38:00      -35.482      -27.941        0.152       22.212       20.653       19.071      493.376      426.537      363.700        0.166        0.064       45.163       13.616        0.091      340.949       15.323      860.418
08/28/2013  06:39:00      -21.665      -21.281        5.784       17.975       18.759       15.723      323.084      351.908      247.202        0.094        0.046       30.369       15.007        0.244      341.026       15.450      860.425
08/28/2013  06:40:00      -72.151      -15.655       -6.423       26.298       16.467       14.702      691.601      271.147      216.140        0.334        0.059       73.830       15.236        0.043      340.997       15.402      860.429
08/28/2013  06:41:00      -61.556      -22.452       -9.784       11.596       11.184        8.746      134.458      125.092       76.500        0.236        0.017       65.523        7.057        0.012      341.002       15.412      860.441
08/28/2013  06:42:00      -92.027      -16.422       -8.151       37.627       22.686       15.788     1415.762      514.659      249.273        0.549        0.109       93.481       19.045        0.042      340.996       15.403      860.453
08/28/2013  06:43:00     -101.205      -37.148      -11.160       14.180       14.845        9.771      201.081      220.379       95.464        0.613        0.026      107.807        3.175        0.001      341.012       15.427      860.460
08/28/2013  06:44:00      -99.856      -27.044       -7.554       16.997       24.545       13.337      288.904      602.475      177.872        0.591        0.053      103.454        7.114        0.005      340.974       15.367      860.459
08/28/2013  06:45:00     -103.371       10.228      -19.863       33.806       22.714       16.792     1142.853      515.924      281.978        0.656        0.097      103.876       12.916        0.015      340.886       15.215      860.459
08/28/2013  06:46:00     -146.764       -3.813      -10.022       38.386       22.556       20.007     1473.506      508.780      400.265        1.202        0.119      146.814       21.868        0.022      340.814       15.095      860.464
08/28/2013  06:47:00      -92.441      -18.362       -6.355       24.783       20.371       15.127      614.187      414.996      228.821        0.509        0.063       94.247       13.160        0.019      340.888       15.219      860.470
08/28/2013  06:48:00      -97.282      -40.590      -10.437       18.968       24.122       13.524      359.794      581.860      182.905        0.617        0.056      105.410        8.592        0.007      340.975       15.364      860.481
08/28/2013  06:49:00      -76.780      -47.846       -2.504       18.015       19.225       12.934      324.550      369.603      167.300        0.453        0.043       90.468       11.434        0.016      340.920       15.272      860.490
08/28/2013  06:50:00      -54.064      -26.446       -4.828       17.446       15.365       12.930      304.361      236.082      167.195        0.218        0.035       60.185        8.833        0.022      340.933       15.296      860.489
08/28/2013  06:51:00      -25.120       -2.653        0.600       15.901       14.569       12.257      252.849      212.254      150.235        0.063        0.031       25.260        8.377        0.110      340.947       15.318      860.489
08/28/2013  06:52:00      -60.618        3.592       -2.237       32.387       23.801       15.989     1048.933      566.498      255.644        0.278        0.094       60.725       14.539        0.057      341.007       15.423      860.492
08/28/2013  06:53:00     -102.589       -2.251       -9.371       34.156       14.911       18.427     1166.623      222.345      339.543        0.617        0.086      102.613       17.948        0.031      340.995       15.402      860.510
08/28/2013  06:54:00      -27.183      -20.941        5.295       31.076       19.912       13.251      965.743      396.483      175.596        0.137        0.077       34.314       10.708        0.097      341.001       15.411      860.528
08/28/2013  06:55:00      -29.495       -4.739       -2.812       22.369       23.066       10.567      500.375      532.043      111.653        0.102        0.057       29.873        8.460        0.080      341.016       15.438      860.542
08/28/2013  06:56:00      -42.135       -9.465       -2.037       12.639       17.743       10.035      159.754      314.804      100.708        0.122        0.029       43.185        7.597        0.031      341.015       15.435      860.539
08/28/2013  06:57:00      -40.683      -14.126       -4.187       18.542       11.341       11.573      343.794      128.617      133.944        0.124        0.030       43.066        9.515        0.049      341.043       15.484      860.550
08/28/2013  06:58:00      -54.837       -6.079       -5.257        9.213       11.364        6.867       84.875      129.149       47.153        0.167        0.013       55.173        4.525        0.007      340.998       15.406      860.563
08/28/2013  06:59:00      -71.879      -27.195       -6.662       15.727       10.091        7.726      247.324      101.819       59.688        0.318        0.020       76.852        2.891        0.001      340.996       15.402      860.596
08/28/2013  07:00:00      -44.307      -30.061       -2.883       19.459       16.699       10.832      378.640      278.844      117.323        0.182        0.039       53.542       11.149        0.043      341.066       15.522      860.619
08/28/2013  07:01:00      -62.813      -38.939       -3.382       13.271       14.604        8.982      176.111      213.262       80.679        0.297        0.024       73.903        3.799        0.003      341.053       15.499      860.640
08/28/2013  07:02:00      -24.807      -35.603       -3.429       17.759       18.728       11.886      315.398      350.745      141.275        0.135        0.040       43.393        9.827        0.051      341.135       15.638      860.647
08/28/2013  07:03:00      -29.402      -26.710        2.642       29.175       23.842       16.034      851.182      568.434      257.100        0.163        0.084       39.723        8.946        0.051      341.179       15.711      860.650
08/28/2013  07:04:00      -70.529      -41.039      -10.573       20.036       17.329       14.047      401.423      300.297      197.329        0.383        0.045       81.600       13.395        0.027      341.147       15.659      860.648
08/28/2013  07:05:00      -50.362      -39.877        3.654       41.728       24.261       15.430     1741.217      588.583      238.070        0.335        0.128       64.237       19.575        0.093      341.166       15.690      860.640
08/28/2013  07:06:00      -59.708      -36.051        2.115       24.601       19.837       13.411      605.197      393.488      179.855        0.302        0.059       69.748       13.040        0.035      341.098       15.576      860.632
08/28/2013  07:07:00      -71.012      -37.649       -8.290       20.236       19.654       10.055      409.509      386.264      101.111        0.371        0.045       80.375        5.856        0.005      341.111       15.598      860.637
08/28/2013  07:08:00      -68.743      -39.168        0.500       18.282       13.733       11.393      334.221      188.582      129.808        0.346        0.033       79.119        6.874        0.008      341.110       15.597      860.650
08/28/2013  07:09:00      -77.545      -38.083       -9.216       24.040       16.544       11.572      577.901      273.705      133.919        0.427        0.049       86.392       10.805        0.016      341.118       15.609      860.648
08/28/2013  07:10:00      -58.959      -25.267       -1.456       16.520       12.074        9.992      272.923      145.792       99.832        0.232        0.026       64.145        8.573        0.018      341.103       15.582      860.655
08/28/2013  07:11:00       -6.565      -24.917        6.900       17.777       21.819       14.557      316.027      476.059      211.919        0.086        0.050       25.767       13.667        0.281      341.235       15.808      860.660
08/28/2013  07:12:00      -36.996      -52.600        1.764       18.640       15.787       12.695      347.440      249.239      161.157        0.245        0.038       64.308       11.065        0.030      341.233       15.804      860.675
08/28/2013  07:13:00      -43.060      -41.849       -0.326       15.538       15.333       12.800      241.416      235.098      163.846        0.212        0.032       60.046       11.918        0.039      341.256       15.842      860.689
08/28/2013  07:14:00      -48.426      -27.444        1.394       23.602       15.705       12.421      557.054      246.647      154.289        0.203        0.048       55.662        9.175        0.027      341.257       15.844      860.703
08/28/2013  07:15:00      -36.663      -33.253        3.721       29.365       20.477       15.840      862.314      419.308      250.918        0.200        0.077       49.497       12.501        0.064      341.287       15.895      860.717
08/28/2013  07:16:00      -50.119      -40.467       -0.434       22.141       23.539       11.755      490.237      554.088      138.183        0.267        0.059       64.417       12.291        0.036      341.338       15.982      860.733
08/28/2013  07:17:00      -58.988      -55.451       -3.435        9.642       18.458        9.298       92.968      340.689       86.461        0.354        0.026       80.959        4.899        0.004      341.402       16.089      860.738
08/28/2013  07:18:00      -35.415      -26.335       -4.854       11.751       10.638        7.353      138.077      113.173       54.073        0.114        0.015       44.134        7.247        0.027      341.402       16.088      860.746
08/28/2013  07:19:00      -12.580      -13.331       -4.174       25.545       19.945       11.095      652.553      397.815      123.091        0.076        0.059       18.329       10.266        0.314      341.446       16.163      860.752
08/28/2013  07:20:00      -32.092      -17.760       -1.615       20.180       15.290       11.303      407.223      233.773      127.761        0.106        0.038       36.678        6.520        0.032      341.436       16.148      860.757
08/28/2013  07:21:00      -37.798      -14.378        0.342       25.981       16.082       13.768      674.990      258.617      189.545        0.138        0.056       40.440       12.006        0.088      341.482       16.225      860.779
08/28/2013  07:22:00      -46.979      -51.200       -4.574       30.694       34.153       15.395      942.141     1166.441      236.993        0.360        0.117       69.487       10.112        0.021      341.386       16.060      860.803
08/28/2013  07:23:00      -54.853      -69.500        0.666       26.968       35.761       16.607      727.286     1278.871      275.786        0.506        0.114       88.538       10.962        0.015      341.342       15.988      860.813
08/28/2013  07:24:00      -66.582      -70.636       -7.286       23.107       22.058       11.801      533.946      486.556      139.265        0.532        0.058       97.071        8.232        0.007      341.376       16.046      860.818
08/28/2013  07:25:00      -34.853      -89.337       -2.061       24.464       31.037       14.483      598.463      963.277      209.747        0.549        0.089       95.895       11.119        0.013      341.393       16.075      860.845
08/28/2013  07:26:00      -33.579      -71.646        4.382       37.210       49.240       24.296     1384.567     2424.551      590.280        0.534        0.220       79.124       26.999        0.116      341.456       16.182      860.864
08/28/2013  07:27:00      -17.049      -26.613        6.638       23.013       34.869       15.265      529.602     1215.832      233.028        0.151        0.099       31.606       17.874        0.320      341.563       16.362      860.874
08/28/2013  07:28:00      -30.990        0.674        9.007       20.991       15.186       17.584      440.632      230.611      309.197        0.101        0.049       30.997       11.015        0.126      341.515       16.280      860.864
08/28/2013  07:29:00      -26.217      -17.639        5.212       29.015       21.278       12.846      841.893      452.745      165.011        0.124        0.073       31.599       10.255        0.105      341.484       16.227      860.863
08/28/2013  07:30:00      -38.280      -51.005        1.441       23.026       22.150       14.361      530.208      490.627      206.239        0.265        0.061       63.772       12.786        0.040      341.490       16.238      860.873
08/28/2013  07:31:00      -46.297      -56.618       -2.529       30.966       36.814       19.640      958.903     1355.295      385.716        0.403        0.135       73.137       21.683        0.088      341.488       16.235      860.892
08/28/2013  07:32:00      -47.101      -57.773        3.758       38.420       44.612       23.006     1476.084     1990.201      529.270        0.478        0.200       74.540       25.655        0.118      341.506       16.267      860.907
08/28/2013  07:33:00      -97.086      -98.927      -13.562       27.706       27.784       21.284      767.631      771.950      453.011        1.069        0.100      138.608       18.135        0.017      341.430       16.137      860.914
08/28/2013  07:34:00      -57.351      -35.211       -0.037       40.456       38.507       20.076     1636.680     1482.781      403.054        0.403        0.176       67.298       19.188        0.081      341.477       16.217      860.927
08/28/2013  07:35:00      -64.006       -6.891       -5.402       28.070       21.019       17.334      787.909      441.778      300.466        0.285        0.077       64.376        7.980        0.015      341.466       16.197      860.922
08/28/2013  07:36:00      -44.218      -14.263       -2.372       18.231       11.784       13.123      332.369      138.856      172.213        0.140        0.032       46.462       11.798        0.064      341.534       16.310      860.928
08/28/2013  07:37:00      -39.377      -42.610       -0.232       13.647       14.974       11.657      186.248      224.226      135.890        0.196        0.027       58.019        6.391        0.012      341.502       16.260      860.912
08/28/2013  07:38:00      -58.810      -68.772       -5.417       18.514       19.649       16.540      342.772      386.088      273.558        0.461        0.050       90.488       12.417        0.019      341.515       16.279      860.910
08/28/2013  07:39:00      -27.041      -26.693       11.105       33.321       24.815       18.387     1110.280      615.778      338.066        0.182        0.103       37.996       18.998        0.250      341.591       16.408      860.899
08/28/2013  07:40:00      -62.027      -45.775        6.083       46.908       31.642       17.140     2200.395     1001.193      293.784        0.474        0.175       77.089       16.021        0.043      341.510       16.272      860.913
08/28/2013  07:41:00      -62.542      -53.870        4.035       38.700       40.018       20.668     1497.673     1601.473      427.173        0.518        0.176       82.544       17.579        0.045      341.474       16.210      860.933
08/28/2013  07:42:00      -80.946      -55.351       -5.884       44.140       36.789       22.497     1948.305     1353.453      506.095        0.673        0.190       98.061        6.353        0.004      341.469       16.202      860.964
08/28/2013  07:43:00      -76.471      -54.678       -3.319       37.325       41.215       19.434     1393.130     1698.638      377.699        0.616        0.173       94.008       18.409        0.038      341.491       16.241      860.967
08/28/2013  07:44:00      -22.860      -31.766       11.100       28.263       29.262       16.595      798.803      856.268      275.382        0.179        0.097       39.136       15.508        0.157      341.545       16.333      860.953
08/28/2013  07:45:00      -34.775        2.537       10.970       25.588       13.632       15.541      654.746      185.839      241.509        0.121        0.054       34.867       10.540        0.091      341.541       16.324      860.952
08/28/2013  07:46:00        9.771       23.521       15.891       26.548       13.684       12.129      704.789      187.239      147.112        0.097        0.052       25.470        5.194        0.042      341.546       16.332      860.950
08/28/2013  07:47:00       -4.750      -11.715       11.318       16.858       17.959       10.246      284.203      322.536      104.971        0.050        0.036       12.642        9.248        0.535      341.535       16.314      860.967
08/28/2013  07:48:00      -54.430      -32.138       -3.363       27.032       24.030       14.319      730.739      577.443      205.041        0.276        0.076       63.210       11.425        0.033      341.556       16.350      860.996
08/28/2013  07:49:00      -27.357      -32.790        3.703       37.814       27.031       16.196     1429.927      730.672      262.301        0.213        0.121       42.704        9.645        0.051      341.611       16.444      861.024
08/28/2013  07:50:00      -85.401      -69.949       -5.670       42.910       38.722       24.885     1841.293     1499.388      619.280        0.809        0.198      110.391       22.767        0.043      341.517       16.284      861.062
08/28/2013  07:51:00     -111.136      -88.845       -4.694       38.807       34.141       22.971     1505.994     1165.603      527.689        1.173        0.160      142.283       17.177        0.015      341.448       16.167      861.079
08/28/2013  07:52:00     -122.761      -80.777       -4.776       49.129       45.103       32.970     2413.696     2034.285     1087.023        1.358        0.277      146.953       33.294        0.051      341.420       16.120      861.090
08/28/2013  07:53:00     -106.238      -60.052       -5.727       45.778       46.708       23.488     2095.636     2181.640      551.683        0.988        0.241      122.035       16.940        0.019      341.392       16.071      861.107
08/28/2013  07:54:00     -124.651      -94.941       -2.715       51.696       38.637       29.796     2672.487     1492.816      887.801        1.481        0.253      156.690       26.662        0.029      341.348       15.998      861.107
08/28/2013  07:55:00     -134.693     -114.593       -5.797       37.220       30.483       23.778     1385.315      929.219      565.405        1.709        0.144      176.844       20.946        0.014      341.344       15.990      861.106
08/28/2013  07:56:00      -77.435      -54.543       -5.121       47.887       24.223       16.750     2293.179      586.756      280.578        0.608        0.158       94.716       20.533        0.047      341.405       16.094      861.106
08/28/2013  07:57:00      -69.373      -60.435       -4.750       55.730       29.760       23.371     3105.782      885.640      546.209        0.651        0.227       92.005       27.626        0.090      341.428       16.133      861.099
08/28/2013  07:58:00      -32.175      -58.676        7.786       27.778       31.314       20.315      771.614      980.593      412.686        0.335        0.108       66.919       12.769        0.036      341.445       16.164      861.097
08/28/2013  07:59:00      -20.517      -37.942        3.145       15.460       22.675       14.113      239.016      514.143      199.179        0.141        0.048       43.134       14.754        0.117      341.488       16.234      861.085
08/28/2013  08:00:00       -9.010        8.988       10.768        6.899        9.034       10.964       47.603       81.608      120.217        0.026        0.012       12.726        4.506        0.125      341.679       16.558      861.070
08/28/2013  08:01:00      -10.935       11.049        4.833        9.576        8.737       12.936       91.697       76.344      167.348        0.030        0.017       15.545        8.289        0.284      341.655       16.517      861.066
08/28/2013  08:02:00      -12.648        9.491       -2.176        6.280        6.615        6.936       39.441       43.760       48.110        0.019        0.007       15.814        1.519        0.009      341.587       16.402      861.071
08/28/2013  08:03:00      -27.111       -1.464        0.653       14.134        7.478        9.626      199.777       55.926       92.662        0.054        0.017       27.151        3.009        0.012      341.594       16.413      861.070
08/28/2013  08:04:00      -24.823       -8.879       -4.958        9.947       11.792        7.882       98.933      139.054       62.128        0.051        0.015       26.363        6.571        0.062      341.586       16.401      861.080
08/28/2013  08:05:00      -46.846      -14.671       -3.593       10.931       16.711        9.064      119.491      279.258       82.152        0.145        0.024       49.089        6.289        0.016      341.613       16.447      861.090
08/28/2013  08:06:00      -59.758      -39.975       -3.951       24.475       14.728       13.979      599.028      216.903      195.409        0.310        0.051       71.896        9.369        0.017      341.644       16.499      861.100
08/28/2013  08:07:00      -62.550      -78.243       -1.839       33.875       35.808       17.646     1147.504     1282.246      311.377        0.639        0.137      100.172       13.033        0.017      341.617       16.454      861.098
08/28/2013  08:08:00      -59.194      -72.715        1.622       39.260       28.836       22.958     1541.352      831.541      527.079        0.585        0.145       93.763       23.089        0.061      341.603       16.430      861.100
08/28/2013  08:09:00      -88.499      -80.644      -12.322       32.080       31.908       17.387     1029.153     1018.095      302.312        0.842        0.117      119.731       20.079        0.028      341.577       16.386      861.098
08/28/2013  08:10:00      -83.124      -64.187      -11.611       18.870       15.593       14.172      356.063      243.142      200.855        0.598        0.040      105.022        9.580        0.008      341.633       16.479      861.099
08/28/2013  08:11:00      -65.927      -61.474       -7.587       12.228       18.775       12.540      149.518      352.487      157.260        0.442        0.033       90.142        9.048        0.010      341.625       16.468      861.122
08/28/2013  08:12:00      -51.570      -61.054       -5.451       20.889       17.488       10.760      436.345      305.838      115.774        0.364        0.043       79.919        5.290        0.004      341.684       16.568      861.150
08/28/2013  08:13:00      -43.915      -75.179       -5.115       10.881       12.422        8.615      118.405      154.299       74.216        0.398        0.017       87.065        5.813        0.004      341.658       16.524      861.167
08/28/2013  08:14:00      -29.352      -68.797       -1.491       21.345       23.366       15.585      455.621      545.962      242.905        0.342        0.062       74.797       15.223        0.041      341.765       16.705      861.196
08/28/2013  08:15:00      -25.157      -56.311        1.534       17.690       20.329       13.772      312.948      413.257      189.673        0.236        0.046       61.675       13.221        0.046      341.812       16.786      861.198
08/28/2013  08:16:00      -16.526      -11.181        0.307       13.543       13.071        8.026      183.424      170.847       64.411        0.041        0.021       19.953        5.055        0.064      341.904       16.940      861.216
08/28/2013  08:17:00      -22.945        2.808       -0.503       21.602       14.333       12.479      466.654      205.438      155.736        0.068        0.041       23.116        4.855        0.044      341.904       16.941      861.231
08/28/2013  08:18:00      -22.390        1.276        7.819       13.772       17.127       11.937      189.674      293.333      142.493        0.059        0.031       22.426       11.117        0.246      342.037       17.166      861.233
08/28/2013  08:19:00        4.384       17.795       29.219       20.073       21.375       11.857      402.907      456.877      140.582        0.109        0.050       18.327       11.476        0.392      342.270       17.563      861.239
08/28/2013  08:20:00       15.427       -1.870       10.388       23.708       20.612       14.794      562.070      424.849      218.859        0.078        0.060       15.540       14.972        0.928      342.117       17.302      861.231
08/28/2013  08:21:00        7.883        2.426       -1.816       13.898       15.312       13.601      193.164      234.452      184.979        0.034        0.031        8.248        5.941        0.519      341.975       17.062      861.232
08/28/2013  08:22:00      -11.548      -15.908        4.221       14.077       19.004       16.083      198.174      361.155      258.668        0.061        0.041       19.658       11.420        0.337      342.011       17.122      861.221
08/28/2013  08:23:00      -37.655      -14.606       -3.828       16.638       13.274       19.344      276.831      176.198      374.206        0.124        0.041       40.389       13.930        0.119      341.939       17.000      861.235
08/28/2013  08:24:00      -34.630       -4.930       -8.678       12.795       11.005        8.418      163.713      121.101       70.862        0.083        0.018       34.979        5.840        0.028      341.937       16.996      861.229
08/28/2013  08:25:00      -66.647      -18.510        8.821       30.709       25.783       15.218      943.060      664.755      231.592        0.335        0.092       69.170       15.066        0.047      341.984       17.075      861.236
08/28/2013  08:26:00      -29.506      -13.219        9.568       34.718       21.814       16.133     1205.334      475.855      260.286        0.154        0.097       32.331       19.731        0.372      342.211       17.463      861.233
08/28/2013  08:27:00      -37.933      -18.584       -2.249       22.840       14.826       13.810      521.666      219.797      190.729        0.136        0.047       42.241       13.239        0.098      342.057       17.201      861.228
08/28/2013  08:28:00      -53.812      -35.632        0.613       15.320       19.463       12.265      234.713      378.808      150.419        0.246        0.038       64.540       10.734        0.028      342.032       17.158      861.210
08/28/2013  08:29:00      -34.725      -27.729        1.795       22.925       12.926       16.741      525.563      167.075      280.270        0.148        0.049       44.438        7.600        0.029      342.101       17.275      861.201
08/28/2013  08:30:00      -36.612      -51.131       -9.524       22.362       15.998       14.184      500.044      255.935      201.197        0.250        0.048       62.888       11.759        0.035      342.116       17.300      861.195
08/28/2013  08:31:00      -33.190      -16.714       -9.397       26.086       19.000       14.234      680.458      360.996      202.613        0.136        0.062       37.161       10.207        0.075      342.174       17.399      861.199
08/28/2013  08:32:00      -50.432       -6.246       -5.105       15.080       10.392        8.538      227.393      108.002       72.889        0.151        0.020       50.817        7.614        0.022      342.100       17.273      861.202
08/28/2013  08:33:00      -32.255      -10.403       -0.806       12.046        9.694        8.558      145.100       93.971       73.234        0.073        0.016       33.891        3.292        0.009      342.183       17.414      861.192
08/28/2013  08:34:00      -28.801        0.912       -0.705       13.300       19.481       11.471      176.899      379.501      131.577        0.076        0.034       28.815        6.817        0.056      342.195       17.435      861.185
08/28/2013  08:35:00      -29.125       10.020        3.056       24.975       14.000       12.633      623.763      195.987      159.600        0.097        0.049       30.801       10.386        0.114      342.409       17.799      861.168
08/28/2013  08:36:00      -46.502       11.247       -0.888       20.539       20.493       13.583      421.843      419.963      184.495        0.166        0.051       47.843       10.999        0.053      342.266       17.555      861.157
08/28/2013  08:37:00      -21.561      -11.123        4.804       13.038       11.242        9.553      169.986      126.385       91.253        0.050        0.019       24.261        6.375        0.069      342.400       17.783      861.159
08/28/2013  08:38:00       -1.331       -4.694       13.567       12.595        8.624       10.593      158.643       74.372      112.201        0.028        0.017        4.879        5.604        1.319      342.757       18.390      861.155
08/28/2013  08:39:00      -35.559      -12.784       -2.292       22.781       15.888        9.134      518.969      252.415       83.431        0.114        0.043       37.787        8.279        0.048      342.343       17.685      861.177
08/28/2013  08:40:00      -72.066      -29.532       -0.849       24.600       19.503       17.982      605.137      380.363      323.364        0.369        0.065       77.883       15.040        0.037      342.341       17.683      861.186
08/28/2013  08:41:00      -61.378      -18.292       -6.890       21.047       17.054        9.164      442.970      290.847       83.985        0.248        0.041       64.045        4.900        0.006      342.358       17.710      861.215
08/28/2013  08:42:00       -9.529      -37.977      -15.457       25.761       18.385       12.051      663.644      338.002      145.236        0.146        0.057       39.155        3.702        0.009      342.358       17.712      861.222
08/28/2013  08:43:00       24.568      -31.102      -16.580       22.926       23.283       15.709      525.611      542.091      246.785        0.158        0.066       39.634       12.362        0.097      342.347       17.691      861.227
08/28/2013  08:44:00       -7.207       -8.824       20.517       25.195       29.137       21.104      634.793      848.944      445.395        0.124        0.096       11.393       22.321        3.838      342.641       18.193      861.232
08/28/2013  08:45:00       24.069      -41.089        2.751       33.935       30.617       23.278     1151.583      937.408      541.856        0.245        0.132       47.620       20.966        0.194      342.378       17.746      861.216
08/28/2013  08:46:00        5.556      -21.026       -0.050       22.016       29.095       22.698      484.704      846.495      515.199        0.116        0.092       21.747       16.003        0.541      342.420       17.816      861.196
08/28/2013  08:47:00       18.934        8.691       35.989       26.100       16.818       12.381      681.213      282.834      153.288        0.142        0.056       20.834       10.520        0.255      342.842       18.535      861.190
08/28/2013  08:48:00       28.307       31.728        3.222       17.081       14.257       20.586      291.764      203.261      423.802        0.137        0.046       42.520        6.488        0.023      342.522       17.990      861.185
08/28/2013  08:49:00       22.112       20.770       -2.454       12.587       16.215       11.732      158.421      262.914      137.638        0.074        0.028       30.337        2.189        0.005      342.457       17.879      861.197
08/28/2013  08:50:00      -16.335        9.464        2.738       14.322       12.530       19.945      205.133      157.002      397.784        0.056        0.038       18.879        9.175        0.236      342.660       18.225      861.188
08/28/2013  08:51:00       -6.353        6.049       24.720       23.708       24.729       12.549      562.069      611.517      157.487        0.101        0.067        8.772       15.249        3.022      342.793       18.453      861.191
08/28/2013  08:52:00       21.762      -69.469      -19.714       23.365       27.061       21.957      545.905      732.301      482.098        0.372        0.088       72.798       12.849        0.031      342.330       17.664      861.199
08/28/2013  08:53:00       21.081      -44.410       -6.795       21.750       23.921       20.468      473.053      572.217      418.937        0.196        0.073       49.160       14.965        0.093      342.521       17.987      861.211
08/28/2013  08:54:00        3.853      -34.827       -5.345       15.835       22.103       15.113      250.733      488.563      228.407        0.111        0.048       35.040        6.414        0.034      342.581       18.091      861.230
08/28/2013  08:55:00        3.023      -32.333      -11.625       33.974       38.204       27.264     1154.262     1459.540      743.324        0.227        0.168       32.474       12.302        0.144      342.828       18.511      861.223
08/28/2013  08:56:00      -12.193      -42.181        2.002       24.364       27.141       27.590      593.590      736.657      761.200        0.201        0.105       43.908       20.848        0.225      342.790       18.447      861.222
08/28/2013  08:57:00      -28.021       -9.144        5.978       17.298       21.801       12.735      299.216      475.303      162.187        0.092        0.047       29.476       10.969        0.138      342.810       18.480      861.196
08/28/2013  08:58:00       -6.646       -2.909        7.339       12.175        9.441       10.377      148.229       89.132      107.692        0.023        0.017        7.255        4.853        0.447      343.249       19.229      861.189
08/28/2013  08:59:00       -5.903      -12.036       11.112       25.192       14.947       15.659      634.638      223.409      245.208        0.070        0.055       13.406        3.546        0.070      342.872       18.587      861.173
08/28/2013  09:00:00      -50.737       -8.860      -16.601       16.462       15.892       11.339      271.014      252.556      128.567        0.179        0.033       51.505        6.379        0.015      342.701       18.294      861.171
08/28/2013  09:01:00      -27.699      -18.994       -7.620       22.447       23.239       20.532      503.888      540.030      421.566        0.133        0.073       33.586       12.670        0.142      342.746       18.371      861.179
08/28/2013  09:02:00      -31.837       -1.959        2.022       13.748       11.326       12.369      189.016      128.285      152.982        0.075        0.024       31.897        5.923        0.034      342.919       18.666      861.179
08/28/2013  09:03:00      -29.549       -1.138        2.952       18.405       16.558       13.353      338.760      274.184      178.290        0.084        0.040       29.571       13.420        0.206      343.178       19.107      861.188
08/28/2013  09:04:00      -64.274      -38.095       -4.462       32.612       17.299       17.437     1063.547      299.258      304.057        0.363        0.083       74.716       19.498        0.068      342.989       18.782      861.190
08/28/2013  09:05:00      -28.207      -66.089        1.122       23.348       16.051       10.725      545.141      257.630      115.027        0.304        0.046       71.856        6.771        0.009      342.972       18.757      861.207
08/28/2013  09:06:00      -19.174      -13.006       -6.599       17.282       20.139       15.182      298.671      405.564      230.497        0.076        0.047       23.169       12.134        0.274      343.096       18.968      861.225
08/28/2013  09:07:00      -13.331        3.187        3.865       12.020       11.265       16.887      144.473      126.906      285.159        0.038        0.028       13.707        7.843        0.327      343.361       19.418      861.211
08/28/2013  09:08:00       13.038      -28.223       -6.781       24.610       28.171       23.709      605.648      793.601      562.139        0.149        0.098       31.089       12.161        0.153      343.167       19.088      861.212
08/28/2013  09:09:00        8.880      -16.463      -13.241       21.517       20.877       17.662      462.964      435.863      311.950        0.087        0.061       18.705        8.940        0.228      343.099       18.971      861.215
08/28/2013  09:10:00      -28.447        4.657       -1.046       13.642        8.967       10.456      186.098       80.407      109.333        0.060        0.019       28.825        6.479        0.051      343.175       19.103      861.233
08/28/2013  09:11:00      -20.540        0.406        7.090       16.882       14.916       12.101      285.010      222.499      146.422        0.056        0.033       20.544       10.728        0.273      343.499       19.654      861.252
08/28/2013  09:12:00      -27.638       13.115        9.935       14.164       10.459        8.004      200.616      109.396       64.070        0.070        0.019       30.592        6.091        0.040      343.353       19.406      861.271
08/28/2013  09:13:00      -34.539       -8.131        5.680       20.657       16.974       12.527      426.697      288.105      156.926        0.108        0.044       35.483        8.936        0.063      343.344       19.389      861.278
08/28/2013  09:14:00      -10.724       -4.882       -6.647       13.364       14.717       11.525      178.599      216.582      132.829        0.036        0.026       11.783       10.238        0.755      343.593       19.814      861.264
08/28/2013  09:15:00       -4.362      -33.971        3.263       26.714       25.132       16.293      713.650      631.604      265.462        0.140        0.081       34.250       10.917        0.102      343.478       19.619      861.256
08/28/2013  09:16:00      -41.752      -49.044       -2.463       28.864       14.273       12.632      833.115      203.717      159.564        0.268        0.060       64.409       15.312        0.057      343.307       19.326      861.244
08/28/2013  09:17:00        1.098      -16.273       10.211       24.967       15.291       18.194      623.354      233.828      331.009        0.078        0.059       16.310       12.090        0.549      343.653       19.917      861.235
08/28/2013  09:18:00       25.361        5.073       25.520       21.307       25.633       14.688      454.007      657.065      215.726        0.132        0.066       25.863       12.259        0.225      343.448       19.566      861.236
08/28/2013  09:19:00       32.300       17.951        3.430       21.683       25.085       20.461      470.148      629.270      418.643        0.145        0.076       36.953       13.739        0.138      343.430       19.537      861.220
08/28/2013  09:20:00       11.159      -19.081       11.071       27.617       28.783       24.115      762.682      828.437      581.551        0.139        0.109       22.105        8.717        0.155      343.628       19.874      861.210
08/28/2013  09:21:00        7.622       -4.371       20.012       17.900       16.453       18.133      320.402      270.703      328.796        0.070        0.046        8.787       16.301        3.442      343.931       20.392      861.205
08/28/2013  09:22:00        7.694      -15.808        8.374        9.647       12.210       12.340       93.067      149.096      152.283        0.039        0.020       17.581        6.036        0.118      343.579       19.790      861.203
08/28/2013  09:23:00       26.663       25.885       23.430       18.242       18.683       18.888      332.786      349.066      356.744        0.148        0.052       37.161        6.740        0.033      343.826       20.212      861.212
08/28/2013  09:24:00       24.380       -4.353       14.377       36.173       43.814       32.403     1308.478     1919.652     1049.934        0.255        0.214       24.765       23.890        0.931      343.655       19.920      861.232
08/28/2013  09:25:00       19.462       58.878       41.139       36.741       38.650       32.450     1349.907     1493.820     1052.993        0.472        0.195       62.011       18.580        0.090      343.896       20.330      861.244
08/28/2013  09:26:00       76.592       67.030       74.527       33.135       30.484       22.262     1097.917      929.299      495.612        0.922        0.126      101.782       15.590        0.023      343.579       19.789      861.259
08/28/2013  09:27:00       39.760       48.176       59.745       35.641       28.135       23.569     1270.264      791.603      555.479        0.504        0.131       62.464       15.650        0.063      343.756       20.093      861.271
08/28/2013  09:28:00       -1.175        7.104       35.451       18.485       22.618       15.625      341.689      511.592      244.145        0.120        0.055        7.201       12.296        2.916      344.250       20.936      861.282
08/28/2013  09:29:00       29.134       38.265       46.687       31.766       27.591       21.649     1009.078      761.283      468.675        0.337        0.112       48.094       13.212        0.075      343.957       20.435      861.292
08/28/2013  09:30:00       46.468      -37.228        0.402       27.599       24.845       20.611      761.701      617.265      424.830        0.267        0.090       59.542        8.273        0.019      343.463       19.593      861.307
08/28/2013  09:31:00       -5.341       -9.190       15.823       15.254       29.619       15.645      232.700      877.305      244.758        0.086        0.068       10.630       10.998        1.070      343.877       20.299      861.304
08/28/2013  09:32:00       11.051      -13.062       18.371       19.107       40.959       22.753      365.091     1677.631      517.720        0.159        0.128       17.110       23.078        1.819      344.133       20.735      861.302
08/28/2013  09:33:00       30.051      -49.504       -0.928       21.124       28.637       24.004      446.209      820.099      576.197        0.260        0.092       57.911       12.569        0.047      343.687       19.974      861.299
08/28/2013  09:34:00       45.861        7.690       20.780       28.303       55.336       29.567      801.046     3062.021      874.205        0.366        0.237       46.501       21.636        0.216      343.881       20.305      861.287
08/28/2013  09:35:00       56.575       46.351        1.557       22.018       26.554       18.542      484.773      705.102      343.793        0.344        0.077       73.138       13.326        0.033      343.923       20.377      861.278
08/28/2013  09:36:00       82.063       51.600       16.498       22.208       21.335       29.966      493.213      455.176      897.957        0.576        0.092       96.938       13.896        0.021      344.094       20.669      861.271
08/28/2013  09:37:00       65.353       47.784       20.821       33.642       25.886       23.356     1131.786      670.082      545.484        0.467        0.117       80.959       12.832        0.025      344.262       20.957      861.264
08/28/2013  09:38:00       72.181       34.844        3.557       46.810       30.263       24.490     2191.196      915.847      599.771        0.507        0.185       80.151       18.432        0.053      344.106       20.689      861.256
08/28/2013  09:39:00       22.870       38.054       10.415       35.706       31.571       24.994     1274.911      996.730      624.676        0.249        0.145       44.398       21.293        0.230      344.510       21.379      861.260
08/28/2013  09:40:00       69.270       50.954        0.652       37.865       25.587       23.653     1433.776      654.689      559.462        0.502        0.132       85.992       19.860        0.053      344.062       20.615      861.254
08/28/2013  09:41:00       -2.047       56.794        5.976       19.419       36.672       26.063      377.115     1344.857      679.262        0.283        0.120       56.831       22.363        0.155      344.296       21.015      861.249
08/28/2013  09:42:00        2.619       44.006       11.049       21.870       35.517       28.122      478.296     1261.476      790.859        0.230        0.127       44.084       23.540        0.285      344.443       21.265      861.241
08/28/2013  09:43:00        5.733       33.546       11.546       24.164       35.839       24.986      583.920     1284.402      624.291        0.189        0.125       34.033       19.970        0.344      344.456       21.288      861.239
08/28/2013  09:44:00       56.659       35.699       10.651       19.881       18.646       15.210      395.243      347.656      231.334        0.279        0.049       66.968        6.761        0.010      344.142       20.750      861.241
08/28/2013  09:45:00       35.686       27.027       11.189       19.821       20.767       17.243      392.863      431.280      297.312        0.163        0.056       44.765       11.571        0.067      344.339       21.087      861.250
08/28/2013  09:46:00       31.715       10.299       17.532       32.032       21.767       22.500     1026.073      473.815      506.228        0.171        0.100       33.346       21.086        0.400      344.677       21.666      861.256
08/28/2013  09:47:00       61.564       34.707       11.881       22.825       26.154       18.997      521.003      684.057      360.888        0.335        0.078       70.673       15.508        0.048      344.198       20.846      861.259
08/28/2013  09:48:00       15.644       27.023       33.708       19.217       19.763       15.022      369.307      390.594      225.655        0.155        0.049       31.225       10.771        0.119      344.610       21.551      861.245
08/28/2013  09:49:00       69.772       46.072        4.492       38.842       23.525       22.483     1508.723      553.421      505.463        0.479        0.128       83.611       20.427        0.060      344.423       21.230      861.251
08/28/2013  09:50:00       94.890       40.884       13.720       30.982       20.102       27.560      959.875      404.110      759.546        0.649        0.106      103.323       15.033        0.021      344.295       21.013      861.247
08/28/2013  09:51:00       68.315       45.150        4.314       34.150       25.070       26.532     1166.222      628.481      703.934        0.461        0.125       81.887       14.376        0.031      344.259       20.950      861.254
08/28/2013  09:52:00       72.413       40.028        7.280       27.925       26.366       21.439      779.785      695.181      459.622        0.442        0.097       82.740       11.931        0.021      344.287       20.999      861.246
08/28/2013  09:53:00       64.066       46.973        6.746       24.640       26.103       22.449      607.143      681.389      503.956        0.407        0.090       79.441       10.918        0.019      344.329       21.072      861.248
08/28/2013  09:54:00       72.746       49.504        9.974       36.993       23.184       25.900     1368.507      537.475      670.834        0.521        0.129       87.992       20.005        0.052      344.462       21.298      861.243
08/28/2013  09:55:00       49.232       66.745       57.235       39.646       30.625       33.718     1571.837      937.886     1136.873        0.690        0.182       82.938       16.178        0.038      344.463       21.300      861.243
08/28/2013  09:56:00       79.594       76.001       48.279       33.288       26.379       31.237     1108.111      695.844      975.771        0.861        0.139      110.052       26.110        0.056      344.194       20.839      861.232
08/28/2013  09:57:00       82.404       70.217       18.353       26.413       28.400       28.766      697.661      806.540      827.469        0.719        0.117      108.263       12.199        0.013      344.240       20.920      861.244
08/28/2013  09:58:00       82.501       59.769       84.772       43.593       34.614       14.855     1900.371     1198.154      220.670        1.044        0.166      101.876        7.011        0.005      344.270       20.969      861.244
08/28/2013  09:59:00       27.793       52.906       34.537       34.500       32.855       35.224     1190.253     1079.455     1240.716        0.414        0.176       59.762        4.776        0.006      344.453       21.283      861.260
08/28/2013  10:00:00       48.744       73.258       11.960       41.075       26.854       38.673     1687.125      721.152     1495.617        0.589        0.195       87.993       23.344        0.070      344.405       21.201      861.266
08/28/2013  10:01:00       42.229       53.324       58.963       40.673       39.659       21.232     1654.307     1572.814      450.788        0.589        0.184       68.020       22.166        0.106      344.386       21.168      861.265
08/28/2013  10:02:00       12.821       30.396       53.849       29.467       42.698       22.674      868.319     1823.122      514.108        0.360        0.160       32.990       19.824        0.361      344.490       21.345      861.284
08/28/2013  10:03:00       22.226       40.640       41.234       35.009       36.286       25.151     1225.598     1316.642      632.563        0.351        0.159       46.321       20.716        0.200      344.417       21.219      861.290
08/28/2013  10:04:00       32.834       40.968       38.702       37.426       53.046       23.575     1400.689     2813.909      555.790        0.451        0.239       52.502       12.742        0.059      344.313       21.044      861.282
08/28/2013  10:05:00       86.910       63.843       30.983       47.925       30.839       32.428     2296.835      951.066     1051.602        0.844        0.215      107.839       29.367        0.074      344.337       21.084      861.290
08/28/2013  10:06:00      127.474       72.206       21.942       29.541       28.935       27.341      872.697      837.231      747.521        1.220        0.123      146.503       14.265        0.009      344.253       20.940      861.293
08/28/2013  10:07:00      135.723       68.994       23.713       30.187       20.267       26.519      911.274      410.748      703.241        1.288        0.101      152.253       10.382        0.005      344.236       20.912      861.293
08/28/2013  10:08:00      102.139       81.526       52.199       43.300       31.115       32.565     1874.916      968.147     1060.466        1.185        0.195      130.686       27.544        0.044      344.206       20.862      861.306
08/28/2013  10:09:00       50.932       56.074       48.631       50.389       38.141       25.167     2539.071     1454.722      633.401        0.636        0.231       75.751       17.203        0.052      344.402       21.194      861.317
08/28/2013  10:10:00       91.386       72.114       49.494       45.103       26.021       33.884     2034.304      677.072     1148.119        0.993        0.193      116.412       29.613        0.065      344.338       21.087      861.328
08/28/2013  10:11:00       34.389       48.225       27.075       37.347       29.173       21.798     1394.790      851.064      475.147        0.348        0.136       59.230       14.059        0.056      344.496       21.357      861.333
08/28/2013  10:12:00       21.539      -25.908       11.565       49.800       42.400       29.962     2480.061     1797.798      897.697        0.322        0.259       33.692       20.707        0.378      344.461       21.297      861.348
08/28/2013  10:13:00       15.442       49.582       51.280       38.743       31.720       24.279     1501.015     1006.163      589.469        0.421        0.155       51.930       17.306        0.111      344.472       21.314      861.366
08/28/2013  10:14:00       32.080       51.989       47.650       34.626       33.227       21.108     1198.984     1104.066      445.551        0.438        0.137       61.090        8.188        0.018      344.436       21.254      861.384
08/28/2013  10:15:00       47.920       46.606       23.023       22.530       20.279       26.606      507.584      411.241      707.883        0.331        0.081       66.846        7.082        0.011      344.390       21.175      861.405
08/28/2013  10:16:00       51.354       42.209       45.814       26.182       20.231       16.144      685.520      409.305      260.621        0.394        0.068       66.474        9.358        0.020      344.506       21.373      861.417
08/28/2013  10:17:00       36.058       36.847       39.017       23.969       28.539       29.109      574.499      814.483      847.309        0.321        0.112       51.554       12.793        0.062      344.547       21.442      861.422
08/28/2013  10:18:00       43.224       66.280       63.348       45.376       45.477       35.539     2059.015     2068.153     1263.027        0.783        0.270       79.129       28.631        0.131      344.537       21.424      861.419
08/28/2013  10:19:00      164.790       82.070       36.413       42.699       35.835       34.950     1823.230     1284.149     1221.514        1.977        0.216      184.096       23.913        0.017      344.442       21.262      861.419
08/28/2013  10:20:00      101.625       76.225       42.811       72.126       42.862       51.442     5202.214     1837.120     2646.243        1.383        0.484      127.034       51.093        0.162      344.503       21.367      861.434
08/28/2013  10:21:00      121.230       50.790       22.462       46.871       35.140       34.304     2196.870     1234.824     1176.768        1.119        0.230      131.440       22.614        0.030      344.575       21.492      861.439
08/28/2013  10:22:00      111.853       51.300       16.075       56.942       42.730       35.267     3242.371     1825.827     1243.777        1.086        0.316      123.056       18.002        0.021      344.656       21.628      861.440
08/28/2013  10:23:00      109.222       73.963       20.939       48.596       36.372       37.637     2361.563     1322.940     1416.509        1.147        0.255      131.909       30.539        0.054      344.623       21.573      861.429
08/28/2013  10:24:00       47.952       20.946       14.813       54.775       46.706       27.846     3000.264     2181.477      775.384        0.446        0.298       52.328       24.502        0.219      344.801       21.877      861.410
08/28/2013  10:25:00       96.838       77.418       38.171       50.478       37.573       39.529     2548.057     1411.745     1562.563        1.117        0.276      123.980       16.721        0.018      344.681       21.671      861.396
08/28/2013  10:26:00       65.655       47.709       24.199       54.902       40.329       39.768     3014.245     1626.456     1581.475        0.670        0.311       81.158       22.059        0.074      344.675       21.661      861.404
08/28/2013  10:27:00      113.807       80.652       17.624       53.603       36.591       38.110     2873.281     1338.914     1452.399        1.271        0.283      139.488       25.935        0.035      344.596       21.527      861.411
08/28/2013  10:28:00      101.009       72.442        7.297       44.130       42.430       35.162     1947.471     1800.316     1236.344        1.024        0.249      124.301       25.387        0.042      344.699       21.703      861.423
08/28/2013  10:29:00      127.951       84.626       26.007       44.866       39.250       42.064     2012.932     1540.564     1769.387        1.477        0.266      153.405       20.668        0.018      344.586       21.510      861.437
08/28/2013  10:30:00       76.614       49.080       20.575       45.309       32.076       30.513     2052.883     1028.869      931.015        0.636        0.201       90.987       14.731        0.026      344.751       21.793      861.448
08/28/2013  10:31:00       72.459       62.713        3.738       52.572       37.111       30.922     2763.773     1377.208      956.174        0.715        0.255       95.829       25.368        0.070      344.715       21.730      861.455
08/28/2013  10:32:00      127.632       82.132       14.006       30.292       27.677       27.694      917.595      766.020      766.935        1.284        0.123      151.775       16.029        0.011      344.540       21.431      861.453
08/28/2013  10:33:00      107.975       48.794       16.875       50.986       36.102       35.274     2599.524     1303.370     1244.281        0.973        0.257      118.488       16.844        0.020      344.635       21.594      861.439
08/28/2013  10:34:00       47.651       47.611       29.193       43.659       30.739       34.470     1906.110      944.912     1188.160        0.471        0.202       67.360       15.227        0.051      344.773       21.830      861.437
08/28/2013  10:35:00       74.882       75.405       15.803       50.066       42.516       39.582     2506.621     1807.628     1566.710        0.871        0.294      106.270       28.646        0.073      344.653       21.623      861.424
08/28/2013  10:36:00      145.690       80.933       32.246       64.561       45.916       48.516     4168.074     2108.286     2353.756        1.872        0.432      166.660       28.765        0.030      344.598       21.530      861.407
08/28/2013  10:37:00      109.789       29.658       10.543       80.765       55.776       48.260     6523.017     3111.013     2329.019        1.250        0.598      113.724       26.747        0.055      344.660       21.635      861.392
08/28/2013  10:38:00       53.338       30.973       15.392       48.644       38.328       27.222     2366.279     1469.033      741.031        0.431        0.229       61.679       17.945        0.085      344.722       21.743      861.382
08/28/2013  10:39:00      106.631       62.062       11.456       53.265       42.936       30.131     2837.182     1843.533      907.887        1.047        0.279      123.377       29.300        0.056      344.757       21.801      861.387
08/28/2013  10:40:00      102.454       67.205        8.782       53.133       36.482       30.392     2823.066     1330.905      923.673        1.008        0.254      122.529       22.312        0.033      344.752       21.793      861.385
08/28/2013  10:41:00       95.382       72.733       20.611       54.114       34.206       38.152     2928.377     1170.052     1455.555        1.018        0.278      119.949       22.029        0.034      344.831       21.928      861.387
08/28/2013  10:42:00      125.497       88.010       23.033       57.383       35.913       43.292     3292.780     1289.713     1874.203        1.524        0.323      153.281       27.405        0.032      344.773       21.829      861.386
08/28/2013  10:43:00       72.845       59.066       -5.907       46.195       53.050       33.114     2134.010     2814.278     1096.561        0.744        0.302       93.782       32.809        0.122      344.879       22.010      861.387
08/28/2013  10:44:00       89.634       83.267        3.002       42.637       45.544       43.302     1817.882     2074.298     1875.077        1.037        0.288      122.342       32.496        0.071      344.748       21.787      861.386
08/28/2013  10:45:00       53.639       47.951        6.055       40.803       39.306       25.441     1664.901     1544.975      647.254        0.453        0.193       71.947       15.828        0.048      344.920       22.081      861.388
08/28/2013  10:46:00      103.501       74.952       23.070       34.927       27.332       30.003     1219.902      747.049      900.153        0.986        0.143      127.790       11.525        0.008      344.928       22.096      861.400
08/28/2013  10:47:00       83.228       60.823       31.093       52.426       39.854       34.243     2748.536     1588.347     1172.604        0.855        0.275      103.084       26.348        0.065      344.848       21.958      861.402
08/28/2013  10:48:00       84.125       67.663       53.580       74.657       48.435       43.273     5573.738     2345.927     1872.535        1.216        0.490      107.959       31.225        0.084      344.858       21.974      861.404
08/28/2013  10:49:00      105.834       75.783       20.688       43.984       28.517       30.535     1934.614      813.213      932.375        1.053        0.184      130.169       11.962        0.008      344.927       22.094      861.401
08/28/2013  10:50:00       78.611       69.372       14.189       34.971       28.063       32.244     1222.996      787.554     1039.690        0.712        0.153      104.843       17.246        0.027      344.929       22.095      861.400
08/28/2013  10:51:00       92.464       77.778       15.842       39.323       26.275       30.059     1546.331      690.386      903.552        0.899        0.157      120.826        7.204        0.004      344.855       21.970      861.394
08/28/2013  10:52:00       78.296       66.442       21.741       56.394       33.717       21.771     3180.330     1136.845      473.984        0.790        0.240      102.688       14.448        0.020      344.990       22.199      861.389
08/28/2013  10:53:00       66.364       55.059        2.059       20.614       29.741       13.613      424.927      884.533      185.312        0.447        0.075       86.231       10.327        0.014      344.831       21.927      861.383
08/28/2013  10:54:00       42.964       26.557       14.412       20.280       16.927       19.850      411.261      286.515      394.012        0.193        0.055       50.509       15.287        0.092      345.001       22.222      861.377
08/28/2013  10:55:00       56.023       53.667       -0.263       30.858       18.943       19.783      952.243      358.845      391.359        0.386        0.085       77.581       16.020        0.043      345.113       22.411      861.374
08/28/2013  10:56:00       25.951       69.824       -3.873       35.197       37.463       23.128     1238.855     1403.455      534.907        0.437        0.159       74.491       16.825        0.051      345.103       22.395      861.374
08/28/2013  10:57:00      102.845       62.352       21.867       37.480       29.228       31.687     1404.758      854.263     1004.078        0.910        0.163      120.270       19.128        0.025      345.006       22.228      861.376
08/28/2013  10:58:00       92.445       61.124       38.254       36.034       23.016       34.312     1298.440      529.728     1177.347        0.837        0.150      110.825       13.712        0.015      345.044       22.294      861.373
08/28/2013  10:59:00       87.874       72.354       21.254       24.184       19.025       22.935      584.855      361.968      526.033        0.744        0.074      113.828        4.875        0.002      345.002       22.222      861.375
08/28/2013  11:00:00       69.739       55.538        6.950       25.084       24.748       23.968      629.218      612.458      574.470        0.491        0.091       89.151       14.422        0.026      345.078       22.354      861.382
08/28/2013  11:01:00       18.561       19.474        4.843       22.988       20.928       16.029      528.432      437.976      256.923        0.099        0.061       26.903       17.474        0.422      345.222       22.600      861.377
08/28/2013  11:02:00       48.275       16.912       10.989       32.431       20.324       19.548     1051.754      413.074      382.109        0.229        0.092       51.151       17.758        0.121      345.143       22.465      861.375
08/28/2013  11:03:00       17.965        4.081        9.272       28.800       21.823       20.903      829.437      476.249      436.932        0.108        0.087       18.422       20.246        1.208      345.437       22.967      861.376
08/28/2013  11:04:00        6.236        2.954        9.064       16.493       14.334       10.488      272.016      205.455      109.999        0.036        0.029        6.900        4.879        0.500      345.403       22.909      861.387
08/28/2013  11:05:00       23.128       33.217       -3.550       15.124       21.860       14.947      228.727      477.842      223.414        0.129        0.046       40.476       12.062        0.089      345.118       22.420      861.393
08/28/2013  11:06:00        2.667       -5.756       -3.211        6.661       17.263       11.363       44.375      298.003      129.128        0.026        0.024        6.344        5.654        0.794      345.220       22.598      861.395
08/28/2013  11:07:00        1.120        3.951       16.256       13.761        7.678        7.116      189.372       58.949       50.641        0.029        0.015        4.107        3.773        0.844      345.707       23.432      861.398
08/28/2013  11:08:00       -2.335       15.471       18.729       11.634       15.240       14.259      135.342      232.261      203.316        0.058        0.029       15.647       10.992        0.494      345.701       23.420      861.405
08/28/2013  11:09:00      -42.257        8.337        2.395       21.500       19.301       17.599      462.238      372.525      309.733        0.150        0.057       43.071       14.163        0.108      345.386       22.878      861.403
08/28/2013  11:10:00      -28.426      -30.372        3.352       24.114       15.195       14.359      581.471      230.897      206.169        0.138        0.051       41.599        8.519        0.042      345.326       22.777      861.393
08/28/2013  11:11:00       -4.399        3.909       11.612       11.957        8.713       11.969      142.965       75.922      143.267        0.027        0.018        5.885        7.504        1.626      345.783       23.562      861.386
08/28/2013  11:12:00      -40.981       25.191       -5.604       18.075       12.572       13.434      326.691      158.062      180.459        0.151        0.033       48.104       11.537        0.058      345.262       22.666      861.386
08/28/2013  11:13:00      -45.368       -0.951       -2.102       16.238       19.993       12.058      263.673      399.734      145.390        0.144        0.040       45.378       10.516        0.054      345.219       22.592      861.387
08/28/2013  11:14:00      -29.486       14.941       -0.066       12.503       10.628        9.989      156.315      112.946       99.772        0.073        0.018       33.055        6.539        0.039      345.391       22.886      861.373
08/28/2013  11:15:00      -49.157        3.384       -2.686       19.474       15.162       13.068      379.245      229.884      170.764        0.161        0.039       49.274       12.466        0.064      345.379       22.866      861.358
08/28/2013  11:16:00      -31.494        7.044        0.090       17.881       12.140       12.156      319.743      147.385      147.763        0.083        0.031       32.272       11.924        0.137      345.460       23.006      861.353
08/28/2013  11:17:00       12.757        6.321       26.319       15.743        9.778       12.114      247.845       95.602      146.758        0.069        0.025       14.237        9.652        0.460      345.810       23.607      861.347
08/28/2013  11:18:00       26.643       17.446       10.107       14.919       10.681       11.951      222.576      114.087      142.820        0.080        0.024       31.847        5.680        0.032      345.526       23.119      861.326
08/28/2013  11:19:00       52.252       38.982        4.568       14.948       13.711       14.983      223.437      188.003      224.490        0.245        0.032       65.191        8.751        0.018      345.453       22.994      861.308
08/28/2013  11:20:00       36.950       40.454        7.953       17.400       20.781       21.389      302.761      431.850      457.479        0.213        0.060       54.788       16.695        0.093      345.473       23.029      861.291
08/28/2013  11:21:00       39.263       48.828       17.039       16.042       17.793       23.202      257.361      316.587      538.323        0.266        0.056       62.656       11.394        0.033      345.383       22.873      861.278
08/28/2013  11:22:00       21.219       23.273       11.581       23.190       15.501       14.092      537.758      240.286      198.579        0.105        0.049       31.494        7.223        0.053      345.667       23.362      861.259
08/28/2013  11:23:00       17.008       21.044       13.032       31.738       28.235       18.829     1007.303      797.223      354.519        0.153        0.108       27.058       14.171        0.274      345.589       23.226      861.250
08/28/2013  11:24:00       11.652       22.528        6.978       22.406       18.603       16.159      502.045      346.090      261.112        0.090        0.055       25.363       12.708        0.251      345.601       23.246      861.247
08/28/2013  11:25:00      -10.109      -31.765       19.881       17.689       23.881       20.939      312.905      570.294      438.462        0.141        0.066       33.335        8.841        0.070      345.732       23.474      861.247
08/28/2013  11:26:00       18.417       -1.749       35.604       30.468       42.390       24.158      928.310     1796.923      583.604        0.246        0.165       18.500       24.743        1.789      345.849       23.674      861.235
08/28/2013  11:27:00       47.614       36.857       35.108       28.785       18.503       26.794      828.553      342.375      717.901        0.337        0.094       60.212       17.505        0.085      345.728       23.466      861.236
08/28/2013  11:28:00       26.949       50.645       48.151       41.608       42.690       37.705     1731.240     1822.398     1421.671        0.529        0.249       57.368       35.859        0.391      345.852       23.679      861.234
08/28/2013  11:29:00       50.583       54.556       20.960       26.756       36.963       24.402      715.904     1366.277      595.447        0.433        0.134       74.398        9.884        0.018      345.647       23.327      861.220
08/28/2013  11:30:00       55.251       45.851       21.500       23.356       21.973       18.201      545.492      482.800      331.267        0.349        0.068       71.799       11.287        0.025      345.732       23.473      861.214
08/28/2013  11:31:00      108.543       72.121       36.647       35.236       28.004       24.431     1241.547      784.248      596.850        1.047        0.131      130.319        6.555        0.003      345.681       23.385      861.199
08/28/2013  11:32:00       89.412       58.319       25.551       42.644       47.647       35.600     1818.474     2270.252     1267.383        0.870        0.268      106.750       22.288        0.044      345.723       23.458      861.178
08/28/2013  11:33:00       74.826       46.146       15.158       40.183       23.988       28.620     1614.658      575.402      819.114        0.548        0.150       87.911       14.627        0.028      345.722       23.455      861.159
08/28/2013  11:34:00       15.033       18.994       26.744       24.323       24.810       31.388      591.617      615.540      985.191        0.175        0.110       24.223       11.979        0.245      346.016       23.960      861.148
08/28/2013  11:35:00       60.182       50.977       22.395       43.997       24.827       19.807     1935.734      616.404      392.327        0.483        0.147       78.870       23.702        0.090      345.947       23.844      861.136
08/28/2013  11:36:00       58.539       35.714       -0.174       32.255       16.108       16.017     1040.371      259.459      256.548        0.313        0.078       68.573       14.741        0.046      345.742       23.489      861.129
08/28/2013  11:37:00       25.066       19.253       38.404       45.700       34.317       22.072     2088.535     1177.666      487.183        0.311        0.188       31.607       23.298        0.543      346.362       24.556      861.125
08/28/2013  11:38:00       74.207       53.986       -2.048       38.942       41.660       30.232     1516.467     1735.581      913.949        0.629        0.208       91.767       22.057        0.058      346.055       24.028      861.116
08/28/2013  11:39:00       64.740       61.697        7.746       63.364       43.222       34.561     4014.950     1868.131     1194.449        0.757        0.354       89.430       27.209        0.093      346.129       24.155      861.124
08/28/2013  11:40:00       37.639       47.014        2.711       48.564       30.852       24.847     2358.420      951.857      617.390        0.378        0.196       60.225       18.768        0.097      346.111       24.125      861.117
08/28/2013  11:41:00       -9.933       33.580       10.876       21.633       27.061       21.840      467.991      732.320      476.999        0.151        0.084       35.018       16.045        0.210      346.526       24.837      861.128
08/28/2013  11:42:00        9.496       -9.476        3.199       15.951       30.062       11.893      254.444      903.748      141.454        0.074        0.065       13.415        7.782        0.337      346.333       24.504      861.126
08/28/2013  11:43:00       55.801       32.528       16.235       40.318       42.167       27.152     1625.507     1778.047      737.238        0.429        0.207       64.590       24.063        0.139      346.156       24.201      861.130
08/28/2013  11:44:00      114.455       64.934      -10.843       19.409       29.582       22.519      376.696      875.074      507.091        0.960        0.088      131.592       17.238        0.017      345.938       23.827      861.143
08/28/2013  11:45:00       47.173       39.423       -7.866       31.859       21.092       15.458     1015.003      444.853      238.943        0.277        0.085       61.478       15.435        0.063      345.962       23.867      861.144
08/28/2013  11:46:00       17.296       30.154        1.536       25.297       19.540       18.915      639.929      381.798      357.772        0.129        0.069       34.762       16.913        0.237      346.126       24.150      861.146
08/28/2013  11:47:00       39.510       20.529       18.059       32.449       21.653       19.155     1052.931      468.863      366.902        0.210        0.094       44.525        9.236        0.043      346.070       24.054      861.144
08/28/2013  11:48:00       19.646      -23.343       14.839       22.498       34.790       16.976      506.138     1210.344      288.172        0.158        0.100       30.510       13.593        0.198      346.080       24.069      861.162
08/28/2013  11:49:00        5.645       -6.779       16.900       19.696       32.236       20.249      387.915     1039.162      410.025        0.110        0.092        8.822       18.841        4.562      346.288       24.429      861.166
08/28/2013  11:50:00        9.649       -1.375       23.039       21.116       29.331       26.791      445.884      860.290      717.748        0.132        0.101        9.747       21.646        4.932      346.404       24.626      861.165
08/28/2013  11:51:00       14.511       11.341       20.117       25.433       17.291       23.763      646.835      298.966      564.688        0.113        0.076       18.417       18.568        1.016      346.361       24.553      861.159
08/28/2013  11:52:00       12.062      -16.871       14.715       16.313       23.886       19.091      266.106      570.527      364.480        0.092        0.060       20.739        6.815        0.108      346.143       24.177      861.153
08/28/2013  11:53:00       44.671      -19.229       -7.023       19.689       31.011       17.225      387.661      961.677      296.697        0.203        0.082       48.634       16.256        0.112      345.902       23.764      861.154
08/28/2013  11:54:00       25.006       18.536       -1.441       24.861       17.710       18.287      618.058      313.645      334.400        0.112        0.063       31.127       12.155        0.152      345.950       23.848      861.147
08/28/2013  11:55:00      -22.527       -1.307       -8.677       10.135       18.587       10.940      102.711      345.480      119.673        0.058        0.028       22.565       11.552        0.262      346.225       24.321      861.138
08/28/2013  11:56:00      -40.769      -11.449        5.892       25.036       19.218       12.121      626.803      369.325      146.914        0.149        0.057       42.346        9.158        0.047      346.437       24.683      861.120
08/28/2013  11:57:00      -52.456      -20.823       -3.273       19.803       18.966       15.749      392.161      359.728      248.043        0.210        0.050       56.438        3.205        0.003      346.408       24.635      861.097
08/28/2013  11:58:00       28.884      -30.216       11.071       39.787       27.824       22.123     1582.981      774.166      489.424        0.236        0.142       41.801       12.343        0.087      346.314       24.473      861.088
08/28/2013  11:59:00       -7.008      -23.201        4.424       26.747       22.517       19.847      715.402      507.024      393.889        0.111        0.081       24.237       10.931        0.203      346.165       24.218      861.086
08/28/2013  12:00:00      -15.818      -39.381       10.391       16.441       26.146       15.475      270.303      683.599      239.475        0.155        0.060       42.439        5.156        0.015      346.442       24.691      861.084
08/28/2013  12:01:00       11.246        4.617       29.941       15.253       14.289       16.005      232.655      204.190      256.172        0.087        0.035       12.157        5.752        0.224      346.994       25.643      861.075
08/28/2013  12:02:00       12.049       11.885       19.156       16.776       17.581       17.517      281.427      309.087      306.840        0.078        0.045       16.924       10.042        0.352      346.854       25.401      861.071
08/28/2013  12:03:00        9.247       27.246       11.126       23.836       29.175       23.859      568.153      851.175      569.241        0.147        0.099       28.772       15.851        0.303      347.052       25.742      861.056
08/28/2013  12:04:00       11.264       75.752       -1.534       28.453       56.669       25.046      809.574     3211.400      627.320        0.526        0.232       76.584       31.906        0.174      346.680       25.101      861.042
08/28/2013  12:05:00      -19.851       70.273        2.665       21.421       48.091       23.957      458.865     2312.763      573.944        0.434        0.167       73.023       29.287        0.161      346.927       25.529      861.029
08/28/2013  12:06:00        8.000       90.261       -1.361       26.177       44.849       25.528      685.224     2011.439      651.697        0.578        0.167       90.615       27.606        0.093      346.873       25.435      861.019
08/28/2013  12:07:00       -1.234       41.566        1.483       19.388       39.748       24.220      375.876     1579.927      586.589        0.214        0.127       41.584       22.716        0.298      347.034       25.712      861.014
08/28/2013  12:08:00        8.403       64.060        3.795       35.519       41.625       32.440     1261.618     1732.612     1052.370        0.412        0.202       64.609       30.152        0.218      347.015       25.678      860.998
08/28/2013  12:09:00       -6.589       65.392        4.739       18.555       50.961       28.761      344.274     2597.011      827.190        0.405        0.188       65.723       26.917        0.168      346.884       25.454      860.996
08/28/2013  12:10:00       -3.027       37.594        9.357       15.580       25.026       22.517      242.738      626.278      506.995        0.144        0.069       37.715       17.108        0.206      347.069       25.771      860.990
08/28/2013  12:11:00      -16.493       13.703       19.135       20.622       18.778       24.143      425.283      352.630      582.878        0.109        0.068       21.443       19.567        0.833      347.236       26.060      860.986
08/28/2013  12:12:00       28.818       32.560       12.210       21.636       23.728       23.310      468.117      563.018      543.357        0.181        0.079       43.481       11.847        0.074      347.110       25.841      860.959
08/28/2013  12:13:00       43.380       54.318       32.128       25.355       23.444       21.870      642.870      549.638      478.279        0.377        0.084       69.515       12.914        0.035      346.819       25.342      860.950
08/28/2013  12:14:00       -0.519       70.315       -4.688       16.768       40.009       22.924      281.179     1600.707      525.489        0.369        0.120       70.317       15.353        0.048      346.856       25.407      860.937
08/28/2013  12:15:00       -1.068      -28.978       10.325       17.774       36.850       27.641      315.916     1357.890      764.000        0.169        0.122       28.998       29.509        1.036      347.376       26.301      860.917
08/28/2013  12:16:00       -7.052      -76.817      -15.535       26.232       17.805       33.123      688.097      317.013     1097.124        0.415        0.105       77.140       17.553        0.052      346.586       24.941      860.897
08/28/2013  12:17:00        4.331      -68.518       -6.747       25.026       42.355       20.307      626.318     1793.911      412.357        0.380        0.142       68.655       17.841        0.068      346.915       25.506      860.874
08/28/2013  12:18:00       -4.243      -45.011      -10.245       30.474       53.335       27.925      928.654     2844.610      779.796        0.335        0.228       45.210       28.187        0.389      346.929       25.530      860.863
08/28/2013  12:19:00       -0.820        1.072       11.639       13.552       15.239       15.332      183.644      232.239      235.061        0.039        0.033        1.349        4.175        9.570      347.279       26.134      860.839
08/28/2013  12:20:00       -6.857       15.599       12.680       25.048       20.993       18.559      627.380      440.699      344.447        0.093        0.071       17.040       12.467        0.535      347.416       26.370      860.821
08/28/2013  12:21:00       12.466       15.157       11.530       29.697       33.587       28.625      881.896     1128.091      819.392        0.167        0.141       19.625       14.740        0.564      347.592       26.673      860.797
08/28/2013  12:22:00       67.363       37.715        2.014       52.343       59.126       35.274     2739.832     3495.866     1244.242        0.672        0.374       77.202        7.430        0.009      347.083       25.795      860.772
08/28/2013  12:23:00      134.447       86.313       17.193       61.748       42.935       46.539     3812.806     1843.437     2165.901        1.682        0.391      159.769       28.313        0.031      346.779       25.271      860.757
08/28/2013  12:24:00       60.997       69.433        3.400       38.719       45.604       33.616     1499.170     2079.699     1130.040        0.663        0.235       92.421       25.612        0.077      346.989       25.634      860.761
08/28/2013  12:25:00      102.349       40.522        3.752       49.372       44.822       33.786     2437.635     2009.011     1141.490        0.886        0.279      110.079       22.594        0.042      346.756       25.233      860.769
08/28/2013  12:26:00      -38.839       48.267      -17.855       38.939       33.589       28.386     1516.208     1128.198      805.767        0.380        0.173       61.953       25.921        0.175      346.829       25.357      860.766
08/28/2013  12:27:00        3.716       17.569       16.439       33.959       30.130       25.952     1153.232      907.840      673.526        0.166        0.137       17.958       25.883        2.077      347.517       26.544      860.764
08/28/2013  12:28:00       62.959       79.562       22.198       78.406       46.133       34.051     6147.576     2128.219     1159.478        1.011        0.472      101.459       21.039        0.043      347.128       25.872      860.761
08/28/2013  12:29:00       90.423       64.008       46.337       52.608       34.988       31.947     2767.620     1224.190     1020.626        0.972        0.251      110.786       22.717        0.042      347.029       25.702      860.747
08/28/2013  12:30:00       16.891       32.058       47.567       30.648       29.692       28.110      939.281      881.632      790.152        0.309        0.131       36.236       19.874        0.301      347.516       26.543      860.735
08/28/2013  12:31:00       35.804       52.748       55.729       39.453       35.198       21.064     1556.565     1238.885      443.702        0.520        0.162       63.752       10.738        0.028      347.342       26.241      860.729
08/28/2013  12:32:00       58.832       25.860        6.210       59.634       51.249       40.332     3556.251     2626.450     1626.653        0.599        0.390       64.265       29.534        0.211      347.352       26.258      860.724
08/28/2013  12:33:00       40.928      110.168        6.330       44.637       79.249       45.628     1992.478     6280.373     2081.901        1.210        0.518      117.525       44.221        0.142      347.314       26.193      860.704
08/28/2013  12:34:00       37.970      106.431       -9.123       49.008       42.120       36.692     2401.813     1774.099     1346.271        0.919        0.276      113.001       19.442        0.030      347.080       25.791      860.699
08/28/2013  12:35:00       42.661       74.631       -0.190       33.218       35.667       33.352     1103.403     1272.110     1112.339        0.544        0.174       85.964       29.525        0.118      347.303       26.176      860.697
08/28/2013  12:36:00        6.536       76.649       -1.855       32.755       40.827       19.164     1072.859     1666.842      367.274        0.451        0.155       76.927       15.293        0.040      347.201       25.999      860.678
08/28/2013  12:37:00      -13.677       43.541        5.125       17.947       32.475       20.448      322.082     1054.637      418.134        0.195        0.090       45.639       17.649        0.150      347.566       26.628      860.665
08/28/2013  12:38:00       20.089       11.822       34.922       23.358       17.666       22.101      545.592      312.085      488.438        0.155        0.067       23.309       18.764        0.648      347.988       27.356      860.656
08/28/2013  12:39:00       41.796       29.984       14.764       28.149       22.889       36.229      792.372      523.908     1312.560        0.275        0.131       51.439       22.154        0.185      347.167       25.940      860.650
08/28/2013  12:40:00        4.926       26.162       14.109       29.220       20.103       25.392      853.783      404.122      644.764        0.140        0.095       26.622       14.779        0.308      347.682       26.829      860.636
08/28/2013  12:41:00       12.184       27.532       23.565       19.602       23.378       18.513      384.255      546.553      342.730        0.137        0.064       30.107       13.746        0.208      348.131       27.602      860.633
08/28/2013  12:42:00        9.026       42.752       19.644       25.188       38.333       31.545      634.436     1469.445      995.107        0.270        0.155       43.695       30.974        0.502      347.926       27.250      860.607
08/28/2013  12:43:00       40.792       63.163       11.739       55.101       36.991       36.555     3036.137     1368.370     1336.259        0.576        0.287       75.190       26.479        0.124      347.581       26.655      860.593
08/28/2013  12:44:00       -9.969       56.973       -3.558       30.900       53.653       26.260      954.795     2878.604      689.580        0.394        0.226       57.839       22.769        0.155      347.503       26.521      860.584
08/28/2013  12:45:00       -7.181       59.928       -7.074       18.950       34.802       25.566      359.103     1211.199      653.597        0.296        0.111       60.357       17.929        0.088      347.580       26.653      860.564
08/28/2013  12:46:00      -30.175       -2.681       16.731       22.523       26.754       18.242      507.284      715.788      332.765        0.138        0.078       30.294       13.131        0.188      347.940       27.274      860.566
08/28/2013  12:47:00       13.850       -3.520        9.220       21.390       20.503       26.795      457.551      420.385      717.969        0.094        0.080       14.290       16.954        1.407      347.777       26.992      860.554
08/28/2013  12:48:00      -48.790        3.363       11.307       32.706       27.622       24.086     1069.675      762.995      580.147        0.247        0.121       48.906       19.184        0.154      347.929       27.255      860.547
08/28/2013  12:49:00      -20.161      -14.105        8.087       58.997       30.299       23.691     3480.608      918.023      561.262        0.281        0.248       24.605       12.902        0.275      347.907       27.216      860.534
08/28/2013  12:50:00       30.161       20.774       25.030       34.818       29.439       29.483     1212.264      866.672      869.231        0.246        0.147       36.623        5.937        0.026      347.997       27.373      860.532
08/28/2013  12:51:00       25.997       48.622        8.172       38.085       34.532       30.284     1450.471     1192.455      917.125        0.333        0.178       55.136       22.040        0.160      348.101       27.553      860.527
08/28/2013  12:52:00      -13.427       20.544       -9.177       16.409       40.868       15.919      269.255     1670.203      253.417        0.144        0.110       24.543       16.224        0.437      347.699       26.857      860.513
08/28/2013  12:53:00       26.561      -97.161       -5.962       65.754       51.395       24.789     4323.539     2641.396      614.493        0.888        0.379      100.726       18.505        0.034      347.650       26.773      860.506
08/28/2013  12:54:00       56.444      -77.728       11.816       44.377       64.833       45.915     1969.310     4203.324     2108.221        0.882        0.414       96.060       39.904        0.173      347.936       27.266      860.491
08/28/2013  12:55:00        5.359      -33.577       21.528       24.869       67.426       29.265      618.454     4546.252      856.435        0.382        0.301       34.002       38.007        1.249      348.184       27.696      860.481
08/28/2013  12:56:00       56.986      -33.148       23.840       52.251       52.201       41.404     2730.151     2724.966     1714.303        0.604        0.358       65.926       28.687        0.189      348.079       27.513      860.462
08/28/2013  12:57:00      -43.031      -11.037       14.594       28.894       48.991       21.844      834.858     2400.165      477.165        0.295        0.186       44.424       22.472        0.256      348.057       27.476      860.452
08/28/2013  12:58:00      -66.817      -17.118        2.485       57.359       34.485       22.809     3290.064     1189.224      520.255        0.488        0.250       68.975       23.751        0.119      347.796       27.024      860.440
08/28/2013  12:59:00      -24.690       21.986       33.222       24.978       31.722       32.699      623.886     1006.257     1069.211        0.245        0.135       33.060       25.684        0.604      348.476       28.202      860.437
08/28/2013  13:00:00      -26.380        8.543       21.439       20.072       27.006       21.410      402.870      729.337      458.377        0.141        0.080       27.728       16.850        0.369      348.316       27.924      860.426
08/28/2013  13:01:00       -3.980       14.382       49.339       21.820       26.143       18.867      476.133      683.445      355.959        0.209        0.076       14.922       15.562        1.088      348.626       28.461      860.404
08/28/2013  13:02:00      -30.382       23.676       16.803       36.774       22.881       21.612     1352.304      523.526      467.059        0.205        0.117       38.518       16.967        0.194      348.293       27.884      860.381
08/28/2013  13:03:00       -2.069        9.417       23.664       37.478       24.003       20.913     1404.585      576.152      437.371        0.154        0.121        9.642        8.944        0.861      348.281       27.864      860.353
08/28/2013  13:04:00      -29.309      -41.910       14.793       56.040       27.163       22.163     3140.445      737.832      491.206        0.360        0.218       51.141       23.744        0.216      348.437       28.133      860.337
08/28/2013  13:05:00       20.861      -44.801       16.169       28.023       38.297       26.248      785.279     1466.689      688.961        0.282        0.147       49.420       21.144        0.183      348.433       28.126      860.329
08/28/2013  13:06:00      -13.271      -48.976        5.173       25.941       21.690       19.172      672.930      470.440      367.565        0.206        0.076       50.742       10.975        0.047      348.115       27.575      860.334
08/28/2013  13:07:00      -20.209      -70.804      -10.890       33.828       37.404       22.769     1144.302     1399.054      518.449        0.430        0.153       73.632       14.244        0.037      347.849       27.117      860.337
08/28/2013  13:08:00      -95.209      -46.556       -2.403       40.013       30.054       17.925     1601.002      903.256      321.294        0.703        0.141      105.982       16.774        0.025      347.914       27.230      860.338
08/28/2013  13:09:00      -63.735      -62.684      -11.911       32.661       30.512       23.772     1066.748      930.968      565.107        0.535        0.128       89.395        4.126        0.002      347.752       26.949      860.330
08/28/2013  13:10:00      -24.587      -47.887        7.026       30.349       37.645       19.404      921.072     1417.176      376.497        0.283        0.136       53.831       13.582        0.064      348.110       27.569      860.325
08/28/2013  13:11:00      -73.433      -37.211        1.918       32.803       48.015       21.549     1076.062     2305.432      464.339        0.531        0.192       82.323       16.773        0.042      348.065       27.490      860.308
08/28/2013  13:12:00     -133.871      -43.130        6.504       63.277       42.598       31.646     4004.022     1814.570     1001.491        1.332        0.341      140.647       36.179        0.066      348.205       27.731      860.312
08/28/2013  13:13:00     -111.265      -50.283        4.786       63.825       43.889       27.548     4073.675     1926.218      758.894        1.084        0.338      122.100       27.656        0.051      348.214       27.746      860.303
08/28/2013  13:14:00      -75.439      -42.319       13.784       62.265       73.872       44.960     3876.983     5457.091     2021.432        0.951        0.568       86.498       43.510        0.253      348.186       27.698      860.304
08/28/2013  13:15:00     -111.214       25.006       -3.874       63.099       69.015       41.832     3981.435     4763.094     1749.957        1.175        0.525      113.990       35.800        0.099      348.191       27.706      860.318
08/28/2013  13:16:00     -179.610       72.871      -22.680       49.648       51.243       35.828     2464.929     2625.880     1283.611        2.223        0.319      193.829       32.276        0.028      347.888       27.182      860.331
08/28/2013  13:17:00     -107.982       32.349       -9.375       37.803       40.332       22.005     1429.036     1626.637      484.203        0.817        0.177      112.724       21.919        0.038      348.022       27.414      860.325
08/28/2013  13:18:00     -109.959      -14.796       -7.069       48.075       28.244       26.917     2311.200      797.725      724.506        0.810        0.192      110.950       28.635        0.067      347.928       27.253      860.311
08/28/2013  13:19:00       20.198       44.073       40.872       48.449       31.704       32.131     2347.319     1005.120     1032.390        0.420        0.219       48.480       25.781        0.283      348.255       27.819      860.310
08/28/2013  13:20:00       -4.483       70.154       21.497       36.835       52.759       30.742     1356.852     2783.509      945.092        0.524        0.254       70.298       32.066        0.208      348.335       27.956      860.298
08/28/2013  13:21:00      -72.941      124.135       -8.578       40.306       38.160       31.097     1624.553     1456.204      967.012        1.242        0.202      143.979       24.756        0.030      347.989       27.358      860.305
08/28/2013  13:22:00      -66.108       51.033       -1.861       48.013       41.617       26.286     2305.254     1732.014      690.975        0.585        0.236       83.515       27.805        0.111      348.099       27.550      860.304
08/28/2013  13:23:00      -43.277       86.387       -8.120       29.495       32.414       23.300      869.932     1050.651      542.901        0.593        0.123       96.621       21.049        0.047      348.020       27.411      860.292
08/28/2013  13:24:00     -109.490       55.102      -16.041       67.951       55.359       24.437     4617.383     3064.645      597.166        1.178        0.414      122.574       22.055        0.032      347.816       27.058      860.294
08/28/2013  13:25:00      -80.817      -38.310      -10.121       57.306       30.964       22.959     3283.980      958.782      527.098        0.643        0.238       89.437       26.764        0.090      347.824       27.074      860.274
08/28/2013  13:26:00       -5.456       -0.910        9.902       17.743       15.997       28.666      314.806      255.908      821.735        0.076        0.070        5.532       18.614       11.323      348.555       28.335      860.266
08/28/2013  13:27:00        8.914       45.430        3.302       22.190       48.299       18.527      492.414     2332.826      343.251        0.266        0.158       46.296       17.402        0.141      348.369       28.013      860.262
08/28/2013  13:28:00      -74.940       40.729        1.758       85.496       31.546       35.412     7309.646      995.165     1254.008        0.842        0.478       85.293       43.056        0.255      348.195       27.713      860.256
08/28/2013  13:29:00       -7.567       35.989       17.720       32.488       45.404       29.150     1055.454     2061.521      849.735        0.282        0.198       36.776       22.356        0.370      348.509       28.257      860.245
08/28/2013  13:30:00       -2.447       44.898       10.656       38.406       36.354       34.121     1475.030     1321.639     1164.252        0.305        0.198       44.965       19.446        0.187      348.461       28.172      860.239
08/28/2013  13:31:00      -46.211       77.626       -8.763       38.595       40.850       24.931     1489.558     1668.743      621.568        0.601        0.189       90.339       25.269        0.078      348.133       27.607      860.232
08/28/2013  13:32:00      -12.601        0.128       15.014       13.127       23.670       16.838      172.327      560.252      283.506        0.070        0.051       12.601       11.364        0.813      348.327       27.941      860.214
08/28/2013  13:33:00       18.421       54.761        0.425       24.684       21.575       24.315      609.286      465.474      591.195        0.250        0.083       57.777       14.898        0.066      348.143       27.623      860.184
08/28/2013  13:34:00       31.208       18.494       24.883       25.209       21.617       33.311      635.480      467.275     1109.651        0.207        0.111       36.276       21.460        0.350      348.435       28.129      860.173
08/28/2013  13:35:00       11.638       51.983       11.167       42.495       45.754       30.555     1805.817     2093.409      933.636        0.390        0.242       53.270       33.598        0.398      348.454       28.163      860.173
08/28/2013  13:36:00       32.404      157.993      -25.510       34.101       59.809       37.140     1162.864     3577.071     1379.350        1.639        0.306      161.281       39.520        0.060      348.131       27.604      860.175
08/28/2013  13:37:00       31.888       22.873       15.603       54.168       50.883       28.555     2934.152     2589.105      815.396        0.406        0.317       39.243       26.757        0.465      348.346       27.974      860.157
08/28/2013  13:38:00       25.832       22.361       18.726       50.045       25.142       26.033     2504.500      632.132      677.706        0.267        0.191       34.166       20.100        0.346      348.333       27.951      860.160
08/28/2013  13:39:00      -64.716       21.611        2.543       33.413       24.967       20.433     1116.449      623.329      417.489        0.341        0.108       68.229       14.546        0.045      348.470       28.190      860.163
08/28/2013  13:40:00      -48.934       31.550        3.036       61.488       39.355       33.140     3780.831     1548.799     1098.254        0.491        0.321       58.223       35.761        0.377      348.527       28.288      860.158
08/28/2013  13:41:00     -149.747      -20.552       -5.595       65.656       71.353       36.321     4310.672     5091.249     1319.241        1.680        0.536      151.151       38.582        0.065      348.515       28.265      860.143
08/28/2013  13:42:00      -67.475       10.364       17.091       50.314       28.632       36.222     2531.501      819.765     1312.066        0.481        0.233       68.266       26.785        0.154      348.724       28.629      860.121
08/28/2013  13:43:00     -130.135      166.450      -10.137       75.049       96.669       52.646     5632.287     9344.968     2771.579        3.124        0.887      211.283       39.328        0.035      348.422       28.102      860.124
08/28/2013  13:44:00     -134.999      174.961      -27.923       47.134       61.058       31.092     2221.614     3728.107      966.697        2.826        0.346      220.989       23.377        0.011      348.152       27.636      860.118
08/28/2013  13:45:00     -221.255       -6.485      -13.448       87.532       68.004       33.463     7661.794     4624.525     1119.768        3.129        0.670      221.350       35.175        0.025      348.344       27.968      860.105
08/28/2013  13:46:00     -215.236      -33.576      -28.567       68.089       52.658       31.400     4636.175     2772.856      985.955        2.833        0.420      217.839       27.946        0.016      348.164       27.654      860.097
08/28/2013  13:47:00     -109.816      -46.135        3.845       98.811       84.223       46.179     9763.529     7093.469     2132.493        1.659        0.949      119.114       58.369        0.240      348.436       28.129      860.069
08/28/2013  13:48:00     -209.983      -96.615      -15.044       76.073       66.212       37.258     5787.067     4383.987     1388.124        3.260        0.578      231.143       31.463        0.019      348.195       27.710      860.050
08/28/2013  13:49:00      -74.161      121.625      -18.302       56.500       83.829       46.972     3192.275     7027.382     2206.414        1.652        0.621      142.452       31.555        0.049      348.270       27.842      860.048
08/28/2013  13:50:00      -79.846      109.960        5.585       59.995       74.848       45.506     3599.436     5602.274     2070.796        1.488        0.564      135.892       43.861        0.104      348.579       28.377      860.036
08/28/2013  13:51:00     -148.585       89.187      -29.674       61.934       55.326       31.249     3835.768     3060.953      976.485        1.939        0.394      173.297       27.868        0.026      348.344       27.970      860.033
08/28/2013  13:52:00     -157.356      -37.359       -4.911       41.970       47.644       28.530     1761.520     2269.932      813.963        1.551        0.242      161.730       18.888        0.014      348.381       28.034      860.019
08/28/2013  13:53:00      -71.159       -9.169        6.011       91.131       43.910       42.696     8304.811     1928.115     1822.984        0.862        0.603       71.747       51.492        0.515      348.369       28.013      860.013
08/28/2013  13:54:00      -57.288       91.900        8.507       51.446       72.915       38.669     2646.741     5316.640     1495.287        1.063        0.473      108.294       48.673        0.202      348.570       28.362      860.000
08/28/2013  13:55:00     -199.226      -45.724      -17.141       72.925       70.354       38.117     5318.011     4949.647     1452.902        2.690        0.586      204.406       37.460        0.034      348.421       28.101      859.994
08/28/2013  13:56:00     -172.111      -12.979       -0.722      103.466       66.324       44.752    10705.121     4398.909     2002.776        2.345        0.855      172.599       53.933        0.098      348.537       28.304      860.000
08/28/2013  13:57:00     -121.409      128.566      -15.494       68.027       50.953       36.932     4627.670     2596.251     1364.004        2.005        0.429      176.831       33.629        0.036      348.274       27.850      859.998
08/28/2013  13:58:00       83.122       82.078       32.048       45.727       43.666       39.773     2090.990     1906.757     1581.931        1.013        0.279      116.816       27.663        0.056      348.343       27.970      859.959
08/28/2013  13:59:00       48.357       42.026       20.397       20.067       19.192       23.646      402.701      368.340      559.132        0.293        0.067       64.067       13.614        0.045      348.302       27.899      859.942
08/28/2013  14:00:00       34.247      -43.757        9.311       47.310       30.021       30.765     2238.202      901.282      946.463        0.363        0.204       55.566       17.260        0.096      348.166       27.664      859.932
08/28/2013  14:01:00       25.537        8.159       30.280       53.676       29.304       23.939     2881.132      858.714      573.092        0.297        0.216       26.808       15.216        0.322      348.016       27.404      859.931
08/28/2013  14:02:00      -28.102      -22.823       -2.359       27.004       27.593       26.353      729.240      761.393      694.469        0.175        0.109       36.202       22.908        0.400      348.463       28.178      859.930
08/28/2013  14:03:00       59.204      -56.336       -1.652       76.027       50.120       39.992     5780.128     2512.034     1599.387        0.828        0.495       81.724       29.057        0.126      348.358       27.995      859.905
08/28/2013  14:04:00       21.815      -46.775       38.597       35.793       56.554       39.271     1281.138     3198.303     1542.199        0.509        0.301       51.612       28.528        0.306      348.571       28.364      859.873
08/28/2013  14:05:00       53.941       55.275       19.073       48.891       42.759       38.549     2390.281     1828.359     1486.023        0.602        0.285       77.234       33.101        0.184      348.571       28.364      859.883
08/28/2013  14:06:00       18.756       73.029        6.289       29.378       46.808       33.867      863.090     2190.962     1146.983        0.496        0.210       75.399       29.698        0.155      348.798       28.758      859.882
08/28/2013  14:07:00      -47.643      104.397        6.322       44.512       43.403       37.448     1981.298     1883.850     1402.332        0.924        0.263      114.755       28.809        0.063      348.876       28.892      859.871
08/28/2013  14:08:00     -113.847      101.246      -15.403       51.313       47.648       28.748     2633.009     2270.359      826.468        1.459        0.286      152.354       27.713        0.033      348.723       28.627      859.849
08/28/2013  14:09:00      -79.611        2.059       -1.805       63.502       39.696       27.805     4032.496     1575.802      773.134        0.636        0.319       79.638       40.217        0.255      348.539       28.310      859.826
08/28/2013  14:10:00      -25.460      103.422        5.130       50.461       76.893       44.523     2546.345     5912.585     1982.278        1.090        0.522      106.510       47.017        0.195      348.942       29.007      859.802
08/28/2013  14:11:00      -78.519      231.116      -35.345      100.175       75.420       52.611    10035.062     5688.248     2767.924        3.966        0.925      244.090       40.748        0.028      348.522       28.275      859.785
08/28/2013  14:12:00       31.657      244.140      -33.098       48.156       79.961       40.230     2319.027     6393.730     1618.470        3.601        0.517      246.184       39.649        0.026      348.571       28.360      859.758
08/28/2013  14:13:00       75.824      112.629       -4.221       60.840       81.072       49.302     3701.531     6572.748     2430.704        1.558        0.635      135.774       47.496        0.122      348.665       28.524      859.732
08/28/2013  14:14:00       78.867       85.328       21.400       91.044       60.911       40.846     8288.992     3710.093     1668.376        1.381        0.683      116.194       36.878        0.101      348.810       28.778      859.715
08/28/2013  14:15:00      -41.651       82.379      -10.980       52.749       45.771       34.511     2782.496     2094.957     1190.977        0.735        0.303       92.309       28.022        0.092      348.870       28.883      859.720
08/28/2013  14:16:00       -7.510       27.867       16.014       34.508       51.600       23.594     1190.823     2662.546      556.669        0.275        0.221       28.861       27.442        0.904      349.408       29.813      859.697
08/28/2013  14:17:00       52.874       59.770        1.060       33.933       36.900       29.905     1151.436     1361.637      894.335        0.489        0.170       79.801       22.546        0.080      348.488       28.221      859.687
08/28/2013  14:18:00       28.717       14.960       17.934       24.702       33.931       27.441      610.169     1151.343      752.992        0.194        0.126       32.380       14.698        0.206      348.467       28.184      859.669
08/28/2013  14:19:00       -1.359       -1.333       23.764       30.813       22.070       17.447      949.462      487.090      304.383        0.115        0.087        1.904       15.421       65.606      349.078       29.241      859.657
08/28/2013  14:20:00       -1.932       31.240       14.238       28.552       38.340       22.399      815.239     1469.931      501.711        0.198        0.139       31.300       19.244        0.378      348.986       29.082      859.630
08/28/2013  14:21:00       66.117       41.372      -10.387       26.430       41.611       39.893      698.570     1731.445     1591.483        0.511        0.201       77.994       27.112        0.121      348.686       28.563      859.621
08/28/2013  14:22:00       53.969        8.214       -4.414       33.218       50.928       30.074     1103.416     2593.670      904.461        0.380        0.230       54.590       27.144        0.247      348.626       28.460      859.627
08/28/2013  14:23:00       50.203       98.706       -4.319       56.334       40.293       40.971     3173.515     1623.533     1678.658        0.938        0.324      110.740       17.721        0.026      348.723       28.626      859.629
08/28/2013  14:24:00       44.950       46.819        8.300       28.843       21.275       30.527      831.944      452.644      931.910        0.325        0.111       64.904       20.935        0.104      348.902       28.937      859.619
08/28/2013  14:25:00       38.375       47.327        7.616       29.597       38.865       30.801      875.985     1510.505      948.720        0.355        0.167       60.931       29.925        0.241      349.131       29.334      859.609
08/28/2013  14:26:00       -9.089        5.533       26.381       19.387       21.617       18.672      375.846      467.288      348.646        0.100        0.060       10.641       15.546        2.134      349.380       29.766      859.613
08/28/2013  14:27:00       52.867       -3.705       25.533       46.602       25.952       25.286     2171.784      673.511      639.382        0.347        0.174       52.997       25.623        0.234      348.783       28.732      859.618
08/28/2013  14:28:00       55.267       48.124       20.504       51.572       41.592       37.206     2659.684     1729.897     1384.259        0.578        0.289       73.283        9.672        0.017      348.872       28.886      859.581
08/28/2013  14:29:00      -85.536      -54.902       14.580       72.081      126.545       54.119     5195.719    16013.593     2928.881        1.734        1.207      101.639       65.918        0.421      349.125       29.323      859.574
08/28/2013  14:30:00      -55.164     -107.241       -6.468       96.218      103.464       47.191     9257.926    10704.872     2227.018        1.838        1.109      120.597       47.617        0.156      349.003       29.112      859.612
08/28/2013  14:31:00      -26.603      -61.713        8.826       82.295       62.859       35.377     6772.415     3951.192     1251.547        0.828        0.599       67.203       23.436        0.122      349.185       29.428      859.592
08/28/2013  14:32:00      -14.325       27.134       18.301       57.236       31.036       29.496     3275.903      963.217      870.041        0.319        0.255       30.683       26.448        0.743      349.078       29.243      859.550
08/28/2013  14:33:00       17.926       41.462        4.960       24.351       29.007       26.436      592.964      841.384      698.842        0.210        0.107       45.171       22.501        0.248      349.069       29.226      859.524
08/28/2013  14:34:00       11.638       29.489       38.852       50.974       32.448       40.653     2598.397     1052.856     1652.679        0.391        0.265       31.703       35.766        1.273      349.365       29.739      859.501
08/28/2013  14:35:00      -58.405        1.875        4.187      162.755       55.544       44.781    26489.301     3085.135     2005.342        1.750        1.579       58.436       59.298        1.030      349.280       29.591      859.483
08/28/2013  14:36:00     -245.226      -98.008       -6.213      108.883      126.669       58.349    11855.525    16045.073     3404.636        5.054        1.565      264.086       40.956        0.024      349.408       29.811      859.462
08/28/2013  14:37:00     -307.777     -112.033       -5.531      157.648      145.548       62.645    24852.757    21184.119     3924.395        7.862        2.498      327.533       65.217        0.040      349.196       29.444      859.454
08/28/2013  14:38:00     -233.428      -81.762        7.532      139.216      126.662       62.518    19381.195    16043.363     3908.544        5.027        1.967      247.333       67.152        0.074      349.375       29.754      859.419
08/28/2013  14:39:00     -196.964     -141.276        2.367      113.380      137.228       76.114    12854.953    18831.427     5793.393        4.811        1.874      242.392       79.866        0.109      349.352       29.715      859.427
08/28/2013  14:40:00     -153.789     -228.740        1.047      169.351      134.515       72.135    28679.609    18094.177     5203.511        6.397        2.599      275.632       59.018        0.046      349.343       29.697      859.446
08/28/2013  14:41:00       36.313     -155.924        7.360      113.259      139.663       91.856    12827.565    19505.716     8437.459        3.322        2.039      160.097       86.832        0.294      349.286       29.601      859.458
08/28/2013  14:42:00      -67.027      -90.681        1.461      112.355       93.907       56.734    12623.682     8818.578     3218.723        1.868        1.233      112.764       51.443        0.208      349.473       29.925      859.467
08/28/2013  14:43:00      -45.302      -77.063        0.073      118.816       60.509       40.997    14117.238     3661.376     1680.716        1.372        0.973       89.392       36.448        0.166      349.360       29.731      859.473
08/28/2013  14:44:00     -128.432     -164.193       24.187      140.604       91.307       59.457    19769.397     8336.930     3535.170        3.783        1.582      208.457       67.413        0.105      349.238       29.515      859.495
08/28/2013  14:45:00     -110.678     -175.817       12.437      108.050      167.596       73.435    11674.864    28088.481     5392.747        4.423        2.258      207.753       70.731        0.116      349.212       29.470      859.481
08/28/2013  14:46:00      -11.921     -169.887      -11.367      115.937      120.017       70.473    13441.369    14404.107     4966.409        3.097        1.641      170.305       43.448        0.065      349.189       29.432      859.525
08/28/2013  14:47:00        1.200       59.539       36.073       67.279       61.700       51.483     4526.455     3806.873     2650.460        0.791        0.549       59.551       28.437        0.228      349.274       29.582      859.455
08/28/2013  14:48:00     -110.943        4.238       -4.838       60.563       52.805       33.617     3667.820     2788.418     1130.081        0.997        0.379      111.024       33.627        0.092      349.381       29.768      859.430
08/28/2013  14:49:00     -103.352     -105.114        9.695       99.421       95.885       50.897     9884.511     9193.990     2590.540        2.174        1.083      147.413       62.458        0.180      349.503       29.977      859.430
08/28/2013  14:50:00     -339.629     -178.784       -3.343      179.771      149.064       76.374    32317.687    22220.038     5832.944       10.383        3.019      383.812       81.266        0.045      349.232       29.505      859.412
08/28/2013  14:51:00     -168.564     -129.151       -6.623      117.325       79.021       51.720    13765.077     6244.275     2674.949        3.391        1.134      212.353       52.965        0.062      349.346       29.705      859.410
08/28/2013  14:52:00     -153.132     -101.823       22.101      122.489      114.400       62.097    15003.642    13087.279     3856.060        3.312        1.597      183.895       50.500        0.075      349.564       30.081      859.428
08/28/2013  14:53:00      -18.878     -104.788       22.015       83.546       83.553       42.629     6979.927     6981.048     1817.256        1.380        0.789      106.475       48.400        0.207      349.524       30.014      859.425
08/28/2013  14:54:00     -103.041     -145.736       -2.114       76.520      112.551       38.690     5855.296    12667.795     1496.944        2.594        1.001      178.484       31.844        0.032      349.525       30.014      859.406
08/28/2013  14:55:00     -113.658     -151.539       11.490      153.962      120.363       64.000    23704.298    14487.352     4096.037        3.914        2.114      189.426       63.768        0.113      349.410       29.815      859.374
08/28/2013  14:56:00     -176.457     -189.367       -5.710      124.772      127.964       55.350    15568.165    16374.736     3063.615        5.101        1.750      258.838       40.495        0.024      349.322       29.661      859.366
08/28/2013  14:57:00     -219.598      -94.383       -2.837      138.268      115.645       71.267    19117.910    13373.870     5078.942        4.735        1.879      239.022       71.907        0.091      349.498       29.966      859.339
08/28/2013  14:58:00     -289.178     -432.483      -22.762      224.831      261.575       94.585    50548.996    68421.631     8946.354       19.952        6.396      520.255       96.971        0.035      349.217       29.481      859.324
08/28/2013  14:59:00     -316.320     -262.892      -13.542      180.214      150.855       73.675    32477.148    22757.323     5427.992       11.500        3.033      411.303       80.472        0.038      349.153       29.368      859.287
08/28/2013  15:00:00     -253.579     -248.605        4.475      222.112      178.775       95.726    49333.560    31960.381     9163.420       10.827        4.523      355.115      104.034        0.086      349.265       29.563      859.272
08/28/2013  15:01:00     -483.731     -369.620      -16.117      234.679      240.180      110.025    55074.448    57686.609    12105.598       24.785        6.243      608.781      111.395        0.033      349.132       29.332      859.288
08/28/2013  15:02:00     -446.512     -275.050      -16.885      228.499      141.991       89.391    52211.690    20161.317     7990.693       17.782        4.018      524.428       97.819        0.035      349.056       29.200      859.281
08/28/2013  15:03:00     -248.317     -219.728        0.523      166.651      181.034       90.777    27772.577    32773.284     8240.462        8.935        3.439      331.574      102.909        0.096      349.220       29.486      859.271
08/28/2013  15:04:00     -307.588     -217.323        0.840      224.578      185.390      100.594    50435.420    34369.540    10119.133       11.836        4.746      376.617      114.113        0.092      349.298       29.620      859.260
08/28/2013  15:05:00     -307.869     -243.720        0.811      207.531      158.272       80.429    43069.163    25050.099     6468.801       11.437        3.729      392.661      101.981        0.067      349.296       29.617      859.289
08/28/2013  15:06:00     -229.318     -277.996       -1.877      167.517      170.316       84.011    28061.976    29007.637     7057.811        9.699        3.206      360.373       86.142        0.057      349.320       29.658      859.303
08/28/2013  15:07:00     -354.351     -246.259       10.243      232.111      156.487       95.433    53875.368    24488.267     9107.382       13.687        4.374      431.518       96.491        0.050      349.315       29.648      859.269
08/28/2013  15:08:00     -409.871     -292.825      -19.738      186.770      181.506       93.596    34883.076    32944.387     8760.206       16.534        3.829      503.726      101.270        0.040      349.235       29.510      859.292
08/28/2013  15:09:00     -334.844     -352.222      -13.389      130.407      154.972       69.235    17005.997    24016.417     4793.494       14.108        2.291      485.984       52.468        0.012      349.071       29.226      859.317
08/28/2013  15:10:00     -346.596     -266.677      -34.582      174.674      127.446       83.060    30511.113    16242.565     6899.005       12.304        2.683      437.316       72.501        0.027      349.109       29.293      859.299
08/28/2013  15:11:00     -385.725     -301.869      -27.042      196.510      159.991       88.591    38616.313    25597.280     7848.371       15.634        3.603      489.804       91.206        0.035      349.221       29.486      859.271
08/28/2013  15:12:00     -234.856     -182.039        1.983      209.118      126.586       73.306    43730.300    16024.020     5373.725        7.670        3.256      297.145       83.493        0.079      349.341       29.695      859.303
08/28/2013  15:13:00     -287.555     -186.261       -4.960      166.502      148.598       66.845    27722.984    22081.323     4468.270        8.583        2.714      342.609       76.208        0.049      349.226       29.496      859.286
08/28/2013  15:14:00     -438.596     -144.565      -12.067      180.683      135.279       85.288    32646.449    18300.394     7274.064       13.580        2.911      461.806       88.988        0.037      349.179       29.414      859.252
08/28/2013  15:15:00     -440.627     -244.056       -6.665      237.991      175.222       86.461    56639.551    30702.856     7475.438       17.427        4.741      503.701      102.137        0.041      349.197       29.444      859.219
08/28/2013  15:16:00     -305.668     -154.332       11.448      250.426      115.413       79.972    62713.301    13320.228     6395.448        9.989        4.121      342.420      102.771        0.090      349.239       29.519      859.232
08/28/2013  15:17:00     -240.436     -204.027        0.740      159.276      136.097       89.283    25368.768    18522.434     7971.423        7.564        2.593      315.336       89.653        0.081      349.249       29.536      859.202
08/28/2013  15:18:00     -196.007     -137.286       -0.147      164.421       99.119       75.263    27034.104     9824.486     5664.564        4.989        2.126      239.303       76.681        0.103      349.254       29.544      859.176
08/28/2013  15:19:00     -282.718     -202.632      -18.413      165.958      143.426       70.781    27542.145    20571.136     5009.918        8.722        2.656      347.835       88.525        0.065      349.352       29.716      859.182
08/28/2013  15:20:00     -333.277     -158.470       -5.130      256.704      213.388      108.766    65896.844    45534.252    11830.149       12.971        6.163      369.035      147.423        0.160      349.320       29.658      859.143
08/28/2013  15:21:00     -261.509      -75.186       -2.969      219.295      117.444       96.772    48090.419    13793.194     9364.769        7.263        3.562      272.102       96.478        0.126      349.421       29.832      859.183
08/28/2013  15:22:00     -223.489     -231.235       -3.132      179.876      185.782       82.612    32355.288    34514.911     6824.800        8.855        3.685      321.585       56.579        0.031      349.331       29.678      859.233
08/28/2013  15:23:00     -559.046     -405.849       -5.943      247.350      198.415      113.210    61182.204    39368.663    12816.412       29.530        5.668      690.830      123.696        0.032      349.152       29.366      859.182
08/28/2013  15:24:00     -358.094     -236.100        9.828      208.912      177.341       99.148    43644.395    31449.798     9830.295       13.448        4.246      428.923       95.614        0.050      349.188       29.430      859.192
08/28/2013  15:25:00     -343.253     -231.467       -5.561      193.275      151.017       89.407    37355.182    22806.087     7993.535       11.978        3.408      414.005       96.906        0.055      349.173       29.404      859.189
08/28/2013  15:26:00     -221.397     -190.899       -7.388       85.244      133.891       56.367     7266.506    17926.878     3177.258        5.694        1.419      292.334       43.140        0.022      349.172       29.402      859.175
08/28/2013  15:27:00     -251.911     -197.836       16.920      196.393      181.568       85.989    38570.222    32966.854     7394.048        9.089        3.947      320.310       99.129        0.096      349.345       29.701      859.176
08/28/2013  15:28:00     -494.997     -237.645      -39.173      170.467      162.413       83.204    29058.996    26377.860     6922.920       18.268        3.118      549.088       78.244        0.020      348.997       29.099      859.166
08/28/2013  15:29:00     -467.465     -150.983      -15.097      215.953      148.933      102.630    46635.784    22181.007    10532.936       16.043        3.967      491.242      113.985        0.054      349.051       29.190      859.172
08/28/2013  15:30:00     -393.501     -128.842      -29.210      190.092      157.722       80.412    36134.987    24876.339     6466.061       11.987        3.374      414.057       97.231        0.055      349.077       29.239      859.170
08/28/2013  15:31:00     -409.851      -97.943       -9.172      249.812      188.482       93.522    62406.199    35525.333     8746.283       14.214        5.334      421.392      104.221        0.061      349.154       29.371      859.105
08/28/2013  15:32:00     -351.748     -178.151      -15.421      182.632      234.488       81.231    33354.335    54984.482     6598.555       12.530        4.747      394.290       73.685        0.035      349.286       29.597      859.138
08/28/2013  15:33:00     -265.826     -218.318       -0.107      205.957      125.382       74.219    42418.348    15720.538     5508.500        9.097        3.182      343.985       92.439        0.072      349.237       29.516      859.146
08/28/2013  15:34:00     -200.126     -266.797       13.209      155.254      237.761       88.983    24103.870    56530.439     7917.935        9.996        4.428      333.513       96.272        0.083      349.347       29.706      859.174
08/28/2013  15:35:00     -218.300     -284.397       -9.334      132.968      148.554       69.140    17680.443    22068.306     4780.280        8.657        2.226      358.520       62.989        0.031      349.270       29.572      859.167
08/28/2013  15:36:00     -238.441     -139.027       17.487      187.504      122.718       86.723    35157.854    15059.816     7520.876        6.710        2.887      276.012       86.169        0.097      349.287       29.600      859.137
08/28/2013  15:37:00     -247.382     -173.099       10.745      195.621      201.005       75.951    38267.580    40403.112     5768.526        8.784        4.222      301.929       84.289        0.078      349.262       29.560      859.125
08/28/2013  15:38:00     -369.446     -263.979      -10.932      257.213      175.629       98.685    66158.409    30845.499     9738.642       15.650        5.337      454.066      128.414        0.080      349.188       29.429      859.108
08/28/2013  15:39:00     -214.459     -104.294       16.828      188.129      136.145       78.052    35392.355    18535.544     6092.077        5.857        3.001      238.474      101.085        0.180      349.274       29.581      859.073
08/28/2013  15:40:00     -332.660     -125.084      -18.336      170.484      107.438       64.552    29064.771    11542.829     4166.902        8.570        2.239      355.399       72.627        0.042      349.292       29.610      859.057
08/28/2013  15:41:00     -265.029     -107.229        9.277      193.299      112.950       87.786    37364.482    12757.631     7706.314        6.982        2.891      285.900       90.905        0.101      349.368       29.741      859.067
08/28/2013  15:42:00     -157.102     -217.140       -1.026      189.041      168.456       84.236    35736.652    28377.451     7095.747        7.151        3.560      268.012      101.408        0.143      349.396       29.791      859.075
08/28/2013  15:43:00     -243.947     -201.296        8.353      136.518      105.601       77.722    18637.219    11151.560     6040.716        6.796        1.791      316.275       72.456        0.052      349.390       29.777      859.056
08/28/2013  15:44:00     -157.606     -102.312        2.342      128.749      104.513       71.260    16576.335    10922.921     5077.944        3.394        1.629      187.902       70.651        0.141      349.439       29.865      859.068
08/28/2013  15:45:00     -411.781     -154.782       -8.289      208.014      121.373       75.885    43269.638    14731.348     5758.467       12.866        3.188      439.910       88.174        0.040      349.225       29.494      859.068
08/28/2013  15:46:00     -328.350     -277.462        4.993      199.277      165.264       96.221    39711.320    27312.343     9258.512       13.054        3.814      429.882       96.287        0.050      349.211       29.469      859.064
08/28/2013  15:47:00     -344.887     -301.301       -3.165      176.738      149.352      107.338    31236.295    22305.916    11521.350       13.739        3.253      457.962      108.850        0.056      349.214       29.475      859.079
08/28/2013  15:48:00     -278.418     -132.486        5.430      132.740      131.052       68.463    17619.876    17174.617     4687.165        6.728        1.974      308.333       58.031        0.035      349.172       29.400      859.105
08/28/2013  15:49:00     -194.022     -133.140       -1.725      105.352       78.944       61.880    11099.032     6232.190     3829.107        3.826        1.058      235.310       51.373        0.048      349.232       29.507      859.113
08/28/2013  15:50:00     -203.674     -238.406        6.628      160.535      183.297       79.460    25771.338    33597.775     6313.942        8.201        3.284      313.561       87.598        0.078      349.230       29.503      859.115
08/28/2013  15:51:00     -355.464     -250.401       -7.708      217.689      210.246      118.618    47388.650    44203.585    14070.119       14.737        5.283      434.805      106.984        0.061      349.238       29.517      859.120
08/28/2013  15:52:00     -288.211      -48.700       15.610      319.920      133.720      103.965   102348.772    17880.918    10808.621       10.833        6.552      292.296      136.598        0.218      349.172       29.403      859.087
08/28/2013  15:53:00     -434.440     -200.114       -6.333      231.254      167.524      106.357    53478.297    28064.288    11311.753       16.082        4.643      478.314      107.763        0.051      349.100       29.277      859.071
08/28/2013  15:54:00     -289.510     -170.226       -5.083      197.950      163.197       71.300    39184.303    26633.303     5083.635        9.185        3.545      335.846       94.374        0.079      349.191       29.434      859.078
08/28/2013  15:55:00     -231.216     -130.248      -12.579      105.270       93.684       55.732    11081.832     8776.779     3106.100        4.677        1.148      265.378       40.326        0.023      349.279       29.586      859.101
08/28/2013  15:56:00     -108.091     -101.314       16.704      111.674       86.604       49.824    12471.131     7500.302     2482.389        2.234        1.123      148.149       58.293        0.155      349.424       29.839      859.100
08/28/2013  15:57:00     -147.654      -38.906       15.619      120.015       79.786       52.687    14403.517     6365.831     2775.890        2.355        1.177      152.693       58.931        0.149      349.438       29.865      859.114
08/28/2013  15:58:00     -197.841      -59.190       18.999      158.971      105.182       63.650    25271.916    11063.242     4051.314        4.169        2.019      206.505       81.163        0.154      349.369       29.745      859.096
08/28/2013  15:59:00     -146.604     -206.709      -11.059      116.916      128.012       61.041    13669.292    16387.077     3725.943        4.906        1.689      253.420       65.801        0.067      349.291       29.609      859.086
08/28/2013  16:00:00     -221.010     -172.441       -4.827      120.198      114.027       61.432    14447.538    13002.245     3773.835        5.491        1.561      280.324       62.059        0.049      349.337       29.687      859.105
08/28/2013  16:01:00     -349.253     -303.315      -14.681      198.846      170.690       83.555    39539.807    29135.134     6981.426       14.491        3.783      462.577      102.752        0.049      349.136       29.337      859.083
08/28/2013  16:02:00     -416.155     -275.315      -29.301      215.153      212.104       88.584    46290.776    44988.250     7847.078       17.446        4.956      498.983      111.507        0.050      349.123       29.315      859.085
08/28/2013  16:03:00     -204.728     -124.913       24.757      196.020      144.055       84.620    38423.815    20751.744     7160.567        6.222        3.317      239.826       80.783        0.113      349.178       29.412      859.078
08/28/2013  16:04:00     -228.404     -149.265       21.416      177.702      139.453       77.550    31577.979    19447.092     6014.067        6.596        2.852      272.852       84.106        0.095      349.200       29.450      859.092
08/28/2013  16:05:00     -264.251     -187.337        7.394      240.599      124.305       65.318    57887.960    15451.731     4266.418        9.128        3.880      323.919       71.983        0.049      349.217       29.480      859.134
08/28/2013  16:06:00     -212.013     -178.046      -15.114      186.562      148.718       57.404    34805.460    22116.937     3295.164        6.854        3.011      276.857       78.568        0.081      349.096       29.269      859.140
08/28/2013  16:07:00     -191.222     -184.971       10.669      177.479      140.709       66.915    31498.872    19799.118     4477.555        6.332        2.789      266.045       76.656        0.083      349.219       29.483      859.153
08/28/2013  16:08:00     -247.168     -202.183      -16.981      150.903      124.018       61.187    22771.739    15380.557     3743.831        7.207        2.095      319.328       76.372        0.057      349.173       29.403      859.166
08/28/2013  16:09:00     -255.256     -135.421       17.011      175.371      104.085       81.656    30754.869    10833.777     6667.698        6.601        2.413      288.954       97.727        0.114      349.264       29.562      859.172
08/28/2013  16:10:00     -197.311     -130.844        6.156      182.403      133.341       59.167    33270.861    17779.833     3500.755        5.531        2.728      236.753       44.416        0.035      349.288       29.604      859.165
08/28/2013  16:11:00     -230.310     -220.796       -4.237      156.706      130.204       65.111    24556.704    16953.102     4239.389        7.377        2.287      319.051       72.536        0.052      349.274       29.581      859.180
08/28/2013  16:12:00     -183.299     -136.425       13.227      134.474       95.216       53.263    18083.165     9066.079     2836.984        4.118        1.499      228.496       61.703        0.073      349.196       29.443      859.182
08/28/2013  16:13:00     -173.707      -60.382       21.604      113.808       92.640       60.080    12952.171     8582.126     3609.587        2.971        1.257      183.902       60.123        0.107      349.266       29.567      859.192
08/28/2013  16:14:00     -242.752     -128.542       -1.544      134.247      148.741       72.773    18022.156    22123.966     5295.843        6.044        2.272      274.685       57.138        0.043      349.209       29.466      859.197
08/28/2013  16:15:00     -178.158     -318.633       23.459      189.127      171.067       92.175    35768.984    29264.054     8496.186       10.366        3.676      365.058       96.279        0.070      349.161       29.383      859.201
08/28/2013  16:16:00     -211.046     -178.258        1.983      146.512      130.838       74.111    21465.731    17118.592     5492.420        6.019        2.204      276.254       77.853        0.079      349.045       29.181      859.184
08/28/2013  16:17:00     -299.390     -111.737       -0.062      160.527      172.852       77.685    25768.962    29877.725     6034.930        8.189        3.084      319.562       79.402        0.062      349.013       29.124      859.188
08/28/2013  16:18:00     -400.905     -150.063      -10.931      220.436      110.462       78.787    48592.239    12201.842     6207.361       12.517        3.350      428.070       91.139        0.045      348.933       28.989      859.181
08/28/2013  16:19:00     -329.639     -250.417      -16.271      176.321      136.929       77.777    31088.973    18749.633     6049.214       11.375        2.794      413.970       82.078        0.039      348.942       29.005      859.206
08/28/2013  16:20:00     -498.234     -155.654        0.158      222.802      151.032       94.944    49640.948    22810.676     9014.416       17.695        4.073      521.982       93.520        0.032      348.907       28.941      859.176
08/28/2013  16:21:00     -350.779     -297.342       -1.454      204.314      139.041       89.722    41744.364    19332.348     8050.099       14.028        3.456      459.846      101.656        0.049      348.817       28.787      859.202
08/28/2013  16:22:00     -307.615     -234.827       12.201      197.638      135.829       92.178    39060.900    18449.653     8496.808       10.795        3.300      387.003      102.782        0.071      348.899       28.929      859.183
08/28/2013  16:23:00     -441.005     -200.061      -10.511      250.749      146.094       88.362    62875.049    21343.585     7807.864       16.330        4.601      484.262      113.855        0.055      348.936       28.993      859.172
08/28/2013  16:24:00     -404.232     -193.748       -5.518      194.570      178.019      100.273    37857.593    31690.686    10054.709       14.027        3.980      448.266       95.926        0.046      348.946       29.009      859.211
08/28/2013  16:25:00     -315.791     -228.226       -7.596      175.519      164.391       87.347    30807.091    27024.241     7629.555       10.865        3.273      389.630       97.093        0.062      348.915       28.955      859.233
08/28/2013  16:26:00     -322.261     -274.804      -12.454      199.831      147.045       94.123    39932.319    21622.243     8859.186       12.495        3.521      423.520      106.154        0.063      348.837       28.822      859.247
08/28/2013  16:27:00     -463.107     -205.678      -10.305      218.667      171.403       85.573    47815.296    29379.086     7322.694       17.068        4.226      506.726       90.447        0.032      348.785       28.730      859.250
08/28/2013  16:28:00     -432.436     -205.243       -3.976      183.108      142.003       89.606    33528.707    20164.857     8029.318       14.542        3.086      478.670       91.935        0.037      348.773       28.710      859.226
08/28/2013  16:29:00     -283.245     -162.652       -3.212      162.809      114.049       65.653    26506.838    13007.175     4310.339        7.525        2.191      326.624       69.912        0.046      348.876       28.888      859.226
08/28/2013  16:30:00     -240.727     -155.384      -10.752      121.583       67.585       51.767    14782.430     4567.722     2679.802        5.212        1.101      286.520       53.138        0.034      348.899       28.929      859.215
08/28/2013  16:31:00     -355.679     -221.593       -1.432      177.933      146.612       87.837    31660.020    21495.049     7715.417       11.823        3.044      419.059       98.737        0.056      348.909       28.945      859.189
08/28/2013  16:32:00     -348.599     -171.335       -7.222      200.906      178.836       82.793    40363.172    31982.164     6854.605       11.505        3.960      388.429       93.343        0.058      348.928       28.978      859.207
08/28/2013  16:33:00     -414.475     -283.805       -6.341      235.750      169.295       92.808    55578.021    28660.715     8613.292       17.259        4.643      502.329      115.561        0.053      348.913       28.953      859.187
08/28/2013  16:34:00     -475.958     -242.486      -24.704      202.688      218.777       97.113    41082.512    47863.273     9430.970       19.214        4.919      534.168       96.305        0.033      348.889       28.912      859.182
08/28/2013  16:35:00     -417.814     -210.402      -12.667      197.639      194.198       87.413    39061.118    37712.762     7641.099       15.169        4.221      467.801       96.456        0.043      348.876       28.887      859.183
08/28/2013  16:36:00     -344.124     -235.084        2.509      192.734      180.468       85.351    37146.238    32568.674     7284.825       12.533        3.850      416.757       91.576        0.048      348.870       28.878      859.199
08/28/2013  16:37:00     -377.380     -278.771       -8.734      190.179      207.180       91.072    36168.029    42923.743     8294.092       15.378        4.369      469.179       99.706        0.045      348.850       28.843      859.200
08/28/2013  16:38:00     -316.389     -226.542       -1.015      194.335      155.730       89.620    37766.016    24251.807     8031.783       11.072        3.502      389.131      104.284        0.072      348.872       28.881      859.228
08/28/2013  16:39:00     -197.606      -62.902        2.202      174.000      108.072       67.554    30276.126    11679.602     4563.607        4.476        2.326      207.376       91.840        0.196      348.913       28.954      859.213
08/28/2013  16:40:00     -216.539      -59.896        8.050      137.556      119.157       61.457    18921.780    14198.284     3777.002        4.371        1.845      224.670       64.262        0.082      348.961       29.037      859.221
08/28/2013  16:41:00     -334.143     -216.392        9.741      209.122      134.764       82.189    43731.980    18161.277     6755.086       11.360        3.432      398.092       89.541        0.051      348.872       28.881      859.216
08/28/2013  16:42:00     -315.745     -151.936        1.626      213.742      115.095       86.444    45685.470    13246.883     7472.627        9.458        3.320      350.399      105.033        0.090      348.923       28.971      859.198
08/28/2013  16:43:00     -394.831     -117.022      -10.164      175.636      152.925       86.436    30847.946    23386.162     7471.143       11.568        3.085      411.808       96.500        0.055      348.959       29.032      859.225
08/28/2013  16:44:00     -266.428       -7.248      -10.877      153.007      155.155       69.338    23411.142    24073.010     4807.726        6.171        2.615      266.527       74.444        0.078      348.940       29.001      859.230
08/28/2013  16:45:00     -219.659     -210.134        4.139      131.946      179.093       73.732    17409.690    32074.195     5436.417        7.366        2.746      303.984       72.097        0.056      348.936       28.994      859.239
08/28/2013  16:46:00     -428.318      -51.244      -12.203      230.603      181.931       81.161    53177.732    33098.725     6587.180       13.953        4.643      431.372       82.845        0.037      348.839       28.825      859.226
08/28/2013  16:47:00     -232.308     -170.026       -0.637      125.551      110.289       60.808    15763.025    12163.760     3697.664        5.724        1.581      287.881       57.198        0.039      348.865       28.868      859.252
08/28/2013  16:48:00     -276.952     -179.388        0.579      223.496      145.741       90.423    49950.568    21240.557     8176.262        9.411        3.968      329.973      111.424        0.114      348.795       28.749      859.259
08/28/2013  16:49:00     -364.529     -175.627      -18.191      149.031      174.385       69.803    22210.251    30410.211     4872.459       11.076        2.875      404.631       77.048        0.036      348.751       28.672      859.259
08/28/2013  16:50:00     -323.111     -127.194      -21.353      128.987      136.134       67.766    16637.525    18532.351     4592.238        8.039        1.988      347.245       73.829        0.045      348.765       28.697      859.247
08/28/2013  16:51:00     -387.466     -170.260      -17.618      164.643      140.135       72.113    27107.336    19637.845     5200.277       11.568        2.597      423.224       75.251        0.032      348.740       28.655      859.258
08/28/2013  16:52:00     -147.943     -107.511       21.670      119.636      111.959       59.559    14312.721    12534.917     3547.293        3.215        1.520      182.882       57.656        0.099      348.833       28.816      859.245
08/28/2013  16:53:00     -125.489     -127.803       14.928      118.697       91.772       58.906    14088.903     8422.103     3469.869        2.914        1.299      179.111       63.249        0.125      348.859       28.860      859.254
08/28/2013  16:54:00     -350.458      -73.589      -15.538      144.420      124.276       70.895    20857.253    15444.504     5026.034        8.489        2.066      358.101       80.049        0.050      348.849       28.840      859.238
08/28/2013  16:55:00     -345.326     -103.335       -5.779      154.277      175.507       72.498    23801.268    30802.751     5255.978        9.490        2.993      360.455       71.380        0.039      348.863       28.865      859.240
08/28/2013  16:56:00     -228.364      -80.765       22.011      188.192      106.427       73.972    35416.202    11326.604     5471.887        5.568        2.611      242.225       86.214        0.127      348.863       28.867      859.261
08/28/2013  16:57:00     -273.561     -250.576       -4.987      157.423      160.771       85.515    24781.946    25847.469     7312.838        9.778        2.897      370.977       74.470        0.040      348.832       28.813      859.280
08/28/2013  16:58:00     -396.958     -185.726       11.057      181.868      161.921       89.112    33075.800    26218.463     7940.963       12.970        3.362      438.257       86.083        0.039      348.799       28.755      859.255
08/28/2013  16:59:00     -276.307     -173.354        3.979      163.200      155.348       71.264    26634.142    24133.051     5078.597        8.112        2.792      326.186       70.101        0.046      348.845       28.834      859.266
08/28/2013  17:00:00     -265.654     -135.396        3.985      141.168      106.099       62.578    19928.537    11257.002     3915.961        6.200        1.755      298.168       69.895        0.055      348.897       28.925      859.289
08/28/2013  17:01:00     -366.709     -257.575       -1.908      159.090      126.534       76.018    25309.524    16010.974     5778.696       12.395        2.355      448.130       73.129        0.027      348.831       28.811      859.277
08/28/2013  17:02:00     -236.808     -170.435        9.446      144.685       95.253       71.835    20933.719     9073.056     5160.309        6.018        1.758      291.764       77.561        0.071      348.831       28.810      859.279
08/28/2013  17:03:00     -183.751     -146.482        7.995       95.979       98.441       66.449     9211.987     9690.606     4415.473        3.930        1.166      234.993       41.187        0.031      348.891       28.913      859.260
08/28/2013  17:04:00     -175.589     -110.273        4.654      133.352       94.313       52.569    17782.700     8894.997     2763.476        3.622        1.472      207.344       44.654        0.046      348.898       28.927      859.259
08/28/2013  17:05:00     -255.546     -276.072        3.118      188.672      167.705       86.289    35597.136    28124.867     7445.773       10.633        3.558      376.191       89.039        0.056      348.747       28.665      859.264
08/28/2013  17:06:00     -293.672     -295.074        4.294      206.467      172.913      112.315    42628.678    29898.929    12614.561       12.922        4.257      416.307      130.097        0.098      348.731       28.639      859.254
08/28/2013  17:07:00     -385.129     -197.335       -7.627      143.664      177.758       79.850    20639.451    31597.808     6375.978       12.296        2.931      432.742       75.256        0.030      348.681       28.552      859.293
08/28/2013  17:08:00     -280.476      -53.089      -15.853      161.666      147.689       65.274    26135.851    21812.060     4260.712        6.696        2.610      285.456       72.092        0.064      348.712       28.605      859.309
08/28/2013  17:09:00     -286.229      -67.335       -1.674      143.850       91.535       60.546    20692.933     8378.727     3665.804        5.959        1.637      294.043       69.533        0.056      348.725       28.626      859.333
08/28/2013  17:10:00     -167.146      -80.096       31.504      153.484      130.725       64.756    23557.458    17088.955     4193.372        4.008        2.242      185.346       72.354        0.152      348.673       28.538      859.329
08/28/2013  17:11:00     -334.687     -130.439       -6.531      120.516      127.026       71.529    14524.182    16135.613     5116.450        8.242        1.789      359.207       61.670        0.029      348.598       28.406      859.315
08/28/2013  17:12:00     -243.644     -123.844       -3.589      131.502       90.704       63.025    17292.683     8227.300     3972.178        5.210        1.475      273.312       66.840        0.060      348.641       28.483      859.320
08/28/2013  17:13:00     -118.561     -143.063       -0.313      149.341       97.682       59.088    22302.748     9541.751     3491.361        3.492        1.767      185.805       46.994        0.064      348.710       28.601      859.325
08/28/2013  17:14:00     -381.484     -236.309      -10.534      189.267      150.790       85.325    35822.097    22737.493     7280.317       13.365        3.292      448.745       88.257        0.039      348.646       28.489      859.335
08/28/2013  17:15:00     -320.092     -118.795       -0.395      167.193      130.278       73.250    27953.483    16972.235     5365.568        8.342        2.515      341.425       79.385        0.054      348.657       28.509      859.316
08/28/2013  17:16:00     -352.736     -143.167      -13.168      112.398      166.466       65.702    12633.320    27711.028     4316.755        9.487        2.233      380.683       54.209        0.020      348.637       28.475      859.321
08/28/2013  17:17:00     -140.668      -65.469       25.252      132.574      138.935       67.424    17575.944    19302.865     4546.021        3.306        2.071      155.157       76.737        0.245      348.650       28.497      859.306
08/28/2013  17:18:00     -375.655      -88.476       -6.069      190.470      154.125       75.932    36278.927    23754.616     5765.661       10.738        3.290      385.934       76.545        0.039      348.621       28.447      859.308
08/28/2013  17:19:00     -350.347      -94.892      -13.406      155.304      128.282       77.394    24119.442    16456.397     5989.802        8.924        2.328      362.971       80.394        0.049      348.627       28.457      859.314
08/28/2013  17:20:00     -332.489     -153.965        0.458      146.647      116.824       64.916    21505.462    13647.815     4214.109        8.680        1.968      366.407       74.071        0.041      348.626       28.456      859.319
08/28/2013  17:21:00     -199.202      -57.231        1.520       96.021      111.153       56.455     9220.091    12354.970     3187.177        3.386        1.238      207.260       56.491        0.074      348.667       28.526      859.338
08/28/2013  17:22:00     -169.049     -107.402       25.571      157.381       96.841       59.771    24768.800     9378.139     3572.532        3.924        1.886      200.282       69.701        0.121      348.701       28.588      859.344
08/28/2013  17:23:00     -323.602     -105.730      -24.955      156.782       85.556       60.462    24580.625     7319.830     3655.661        7.603        1.778      340.436       55.838        0.027      348.691       28.569      859.337
08/28/2013  17:24:00     -222.082      -92.545      -11.518      121.985      100.723       51.715    14880.443    10145.154     2674.472        4.285        1.385      240.593       53.761        0.050      348.725       28.629      859.348
08/28/2013  17:25:00     -178.894     -145.683       12.621      123.835      100.416       59.591    15335.129    10083.444     3551.060        4.117        1.448      230.708       66.309        0.083      348.711       28.604      859.360
08/28/2013  17:26:00     -269.315      -99.484       -3.504      157.804       94.173       59.201    24902.170     8868.523     3504.738        5.985        1.864      287.102       67.708        0.056      348.673       28.539      859.374
08/28/2013  17:27:00      -74.942      -74.959       16.526       88.857       93.423       49.240     7895.534     8727.783     2424.575        1.527        0.952      105.996       41.055        0.150      348.702       28.590      859.388
08/28/2013  17:28:00     -222.811      -96.700       -3.984      158.341       89.652       52.036    25071.723     8037.435     2707.769        4.741        1.791      242.890       56.794        0.055      348.672       28.538      859.380
08/28/2013  17:29:00     -188.080      -67.999       21.844      135.061      130.144       71.570    18241.509    16937.583     5122.308        4.038        2.015      199.995       81.345        0.165      348.649       28.496      859.368
08/28/2013  17:30:00     -223.557      -68.160        2.004      149.006      108.256       59.453    22202.910    11719.353     3534.669        4.603        1.873      233.717       59.379        0.065      348.680       28.552      859.379
08/28/2013  17:31:00     -328.040     -262.330       -3.021      173.133      138.206       99.896    29975.022    19100.873     9979.222       11.773        2.953      420.032      106.171        0.064      348.560       28.340      859.367
08/28/2013  17:32:00     -334.759     -252.775      -16.193      158.057      136.121       81.533    24981.931    18528.989     6647.686       11.318        2.508      419.474       73.571        0.031      348.523       28.277      859.352
08/28/2013  17:33:00     -294.637     -254.859      -14.522      175.684      144.644       80.296    30864.767    20921.929     6447.380       10.509        2.912      389.569       87.185        0.050      348.551       28.325      859.316
08/28/2013  17:34:00     -153.471      -51.719       14.025      119.717      123.552       56.914    14332.091    15265.148     3239.186        2.962        1.642      161.951       56.608        0.122      348.594       28.402      859.331
08/28/2013  17:35:00     -240.957      -64.408        4.325      124.229      100.554       55.744    15432.951    10111.079     3107.441        4.543        1.433      249.417       54.367        0.048      348.613       28.433      859.323
08/28/2013  17:36:00     -179.424      -26.398        3.306       84.513      113.794       61.266     7142.437    12949.150     3753.521        2.837        1.192      181.355       46.403        0.065      348.580       28.378      859.304
08/28/2013  17:37:00     -298.518     -153.693      -19.764      116.032      105.061       58.063    13463.482    11037.807     3371.280        7.049        1.394      335.760       45.940        0.019      348.600       28.409      859.340
08/28/2013  17:38:00     -252.735      -47.831       -7.304      154.664      103.424       58.562    23920.849    10696.615     3429.478        5.212        1.902      257.221       42.035        0.027      348.583       28.381      859.340
08/28/2013  17:39:00     -218.876     -154.886       14.834      142.782      155.750       71.958    20386.693    24258.132     5177.990        6.096        2.491      268.135       79.485        0.088      348.518       28.268      859.364
08/28/2013  17:40:00     -242.140     -172.602        4.833      170.671      116.650       80.114    29128.537    13607.301     6418.326        6.879        2.458      297.360       88.168        0.088      348.517       28.266      859.371
08/28/2013  17:41:00     -219.000     -147.559       -6.163      132.475      120.052       67.552    17549.629    14412.467     4563.267        5.314        1.826      264.073       74.259        0.079      348.505       28.248      859.384
08/28/2013  17:42:00     -236.242      -98.221       13.283      150.826      109.540       64.452    22748.566    11998.913     4154.109        5.226        1.945      255.847       71.140        0.077      348.505       28.247      859.398
08/28/2013  17:43:00     -357.567     -165.923      -15.701      164.099      122.037       72.869    26928.436    14892.915     5309.871       10.137        2.357      394.189       70.774        0.032      348.456       28.163      859.394
08/28/2013  17:44:00     -270.470     -140.229        1.409      171.562      113.929       70.806    29433.591    12979.848     5013.554        7.011        2.371      304.661       82.899        0.074      348.433       28.123      859.387
08/28/2013  17:45:00     -369.151     -263.818      -13.591      170.153      135.809       86.401    28952.029    18444.214     7465.073       13.045        2.743      453.731       84.275        0.034      348.379       28.028      859.363
08/28/2013  17:46:00     -350.508     -129.694      -10.070      175.288      114.293       73.182    30725.823    13062.784     5355.539        9.445        2.457      373.733       75.868        0.041      348.413       28.089      859.377
08/28/2013  17:47:00     -201.959      -99.294        4.196      169.930      128.906       77.779    28876.328    16616.764     6049.607        5.109        2.577      225.048       90.656        0.162      348.410       28.084      859.362
08/28/2013  17:48:00     -243.290     -158.162       -1.991      148.480      123.553       78.786    22046.363    15265.234     6207.296        6.386        2.176      290.181       90.854        0.098      348.413       28.088      859.350
08/28/2013  17:49:00     -187.931     -128.969        8.459      168.509      115.051       79.755    28395.115    13236.673     6360.822        5.000        2.400      227.928       76.204        0.112      348.423       28.107      859.358
08/28/2013  17:50:00      -85.864      -97.662        9.190       86.729       74.058       45.766     7521.999     5484.641     2094.561        1.605        0.755      130.040       48.343        0.138      348.410       28.084      859.355
08/28/2013  17:51:00     -169.592      -97.421        5.381      107.055       86.837       46.519    11460.736     7540.668     2163.997        2.972        1.058      195.582       51.211        0.069      348.412       28.088      859.349
08/28/2013  17:52:00     -191.013      -98.970       -4.590      123.072      124.561       68.031    15146.709    15515.424     4628.151        4.079        1.765      215.130       67.812        0.099      348.381       28.033      859.333
08/28/2013  17:53:00     -198.114     -121.361        2.635      146.734       97.672       72.036    21530.776     9539.727     5189.198        4.511        1.813      232.331       69.121        0.089      348.384       28.038      859.316
08/28/2013  17:54:00     -169.738      -56.003       -0.016      126.595      128.524       59.032    16026.241    16518.367     3484.813        3.398        1.801      178.738       64.012        0.128      348.420       28.101      859.315
08/28/2013  17:55:00     -145.315     -136.071       10.245      168.367      136.134       79.602    28347.302    18532.550     6336.477        4.647        2.661      199.078       86.185        0.187      348.387       28.044      859.275
08/28/2013  17:56:00     -293.978      -94.589      -24.509      269.522      144.932       62.581    72642.145    21005.264     3916.384        9.675        4.878      308.820       72.103        0.055      348.409       28.082      859.277
08/28/2013  17:57:00     -315.397      -90.949       -1.433      202.293      184.836       87.954    40922.355    34164.509     7735.898        9.527        4.141      328.248       87.851        0.072      348.369       28.011      859.269
08/28/2013  17:58:00     -261.481     -142.333      -19.291      161.707      129.329       84.035    26149.072    16726.020     7061.884        6.946        2.497      297.710       86.210        0.084      348.405       28.073      859.270
08/28/2013  17:59:00     -274.183      -82.741        5.692      165.315      108.182       73.543    27329.073    11703.323     5408.549        6.324        2.222      286.395       79.119        0.076      348.405       28.074      859.281
08/28/2013  18:00:00     -508.887     -142.939      -14.689      212.090      133.396       89.418    44982.115    17794.379     7995.596       17.518        3.539      528.580      102.270        0.037      348.374       28.018      859.281
08/28/2013  18:01:00     -240.230      -45.962       10.230      198.099      159.425       96.910    39243.203    25416.447     9391.486        6.697        3.703      244.588      107.341        0.193      348.388       28.044      859.276
08/28/2013  18:02:00     -333.440     -261.241       -8.574      198.196      178.016      104.438    39281.458    31689.575    10907.365       13.067        4.094      423.591      119.014        0.079      348.358       27.992      859.304
08/28/2013  18:03:00     -252.295     -197.406        1.676      169.131      135.156       80.478    28605.161    18267.118     6476.777        7.798        2.667      320.347       84.599        0.070      348.361       27.998      859.310
08/28/2013  18:04:00     -253.151     -114.662       -7.527      148.267      130.783       59.159    21983.115    17104.068     3499.784        5.993        2.129      277.908       69.855        0.063      348.392       28.052      859.327
08/28/2013  18:05:00     -245.983      -64.106       -9.215      103.143       76.116       46.603    10638.541     5793.575     2171.871        4.165        0.930      254.200       56.777        0.050      348.401       28.066      859.336
08/28/2013  18:06:00     -199.752     -108.422        4.318      136.104      107.729       61.121    18524.320    11605.626     3735.807        4.276        1.693      227.279       66.782        0.086      348.377       28.024      859.332
08/28/2013  18:07:00     -276.433     -162.918        5.820      149.177      131.199       69.582    22253.728    17213.183     4841.615        7.364        2.215      320.870       64.377        0.040      348.367       28.007      859.340
08/28/2013  18:08:00     -444.021     -117.360      -15.742      164.245      141.343       64.092    26976.450    19977.775     4107.804       13.111        2.553      459.268       62.210        0.018      348.333       27.947      859.351
08/28/2013  18:09:00     -254.627      -41.448        7.578      148.749      133.415       69.006    22126.299    17799.518     4761.795        5.564        2.234      257.979       75.802        0.086      348.312       27.911      859.367
08/28/2013  18:10:00     -181.282      -73.647        8.945      175.694      102.847       72.173    30868.543    10577.448     5208.995        4.250        2.333      195.671       76.451        0.153      348.300       27.893      859.386
08/28/2013  18:11:00     -233.991      -81.314      -12.769      108.039       95.717       57.630    11672.475     9161.724     3321.214        4.284        1.208      247.717       48.718        0.039      348.285       27.865      859.395
08/28/2013  18:12:00     -300.598     -125.817      -10.584      123.917      133.970       66.802    15355.530    17947.886     4462.480        7.203        1.888      325.866       58.890        0.033      348.270       27.839      859.383
08/28/2013  18:13:00     -372.649     -196.748      -19.529      157.659      167.760       72.292    24856.509    28143.551     5226.201       11.808        2.911      421.399       74.034        0.031      348.257       27.817      859.359
08/28/2013  18:14:00     -278.298     -112.272       -9.090      178.625      140.306       76.071    31906.750    19685.732     5786.824        7.375        2.869      300.091       81.879        0.074      348.252       27.807      859.352
08/28/2013  18:15:00     -352.452      -70.596      -14.696      131.516      143.008       80.896    17296.352    20451.386     6544.143        8.685        2.215      359.453       76.186        0.045      348.255       27.813      859.359
08/28/2013  18:16:00     -332.818     -125.041       -7.630      234.700      199.699       76.077    55083.895    39879.624     5787.761       11.359        5.038      355.532       71.222        0.040      348.247       27.800      859.356
08/28/2013  18:17:00     -370.309     -144.369      -22.574      161.765      172.312       78.831    26167.778    29691.558     6214.389       11.026        3.104      397.456       86.317        0.047      348.239       27.788      859.385
08/28/2013  18:18:00     -300.171     -110.717       -1.572      175.709      165.658       86.738    30873.590    27442.605     7523.410        8.409        3.292      319.939      100.148        0.098      348.205       27.729      859.372
08/28/2013  18:19:00     -227.462     -118.627        1.455      170.436      103.026       57.565    29048.524    10614.384     3313.732        5.439        2.149      256.537       70.095        0.075      348.219       27.753      859.399
08/28/2013  18:20:00     -160.547     -103.018       -9.604      142.316       83.672       59.011    20253.812     7000.927     3482.259        3.360        1.537      190.757       59.645        0.098      348.217       27.750      859.409
08/28/2013  18:21:00     -216.463      -83.943       -3.983      154.226      119.504       73.036    23785.582    14281.109     5334.282        4.865        2.170      232.170       82.854        0.127      348.200       27.719      859.410
08/28/2013  18:22:00     -334.417     -201.046      -14.429      164.765      143.792       74.754    27147.364    20676.215     5588.168       10.293        2.671      390.198       84.211        0.047      348.187       27.698      859.390
08/28/2013  18:23:00     -269.190      -92.511       -0.413      146.268      105.771       59.431    21394.320    11187.570     3532.024        5.856        1.806      284.643       59.206        0.043      348.179       27.684      859.411
08/28/2013  18:24:00     -276.024     -144.718       -7.703      192.710      147.764       63.917    37136.995    21834.332     4085.396        8.011        3.153      311.660       65.760        0.045      348.142       27.619      859.405
08/28/2013  18:25:00     -268.685     -163.976      -22.204      194.318      118.944       86.827    37759.645    14147.753     7538.949        7.950        2.972      314.770       96.254        0.094      348.140       27.617      859.381
08/28/2013  18:26:00     -274.487     -149.045       -8.041      126.142      127.896       62.960    15911.798    16357.390     3964.016        6.692        1.812      312.342       61.408        0.039      348.135       27.607      859.381
08/28/2013  18:27:00     -379.273     -161.208       -4.243      195.337      144.562       73.726    38156.661    20898.205     5435.525       11.716        3.225      412.112       88.652        0.046      348.133       27.602      859.404
08/28/2013  18:28:00     -266.430     -111.805        2.052      126.277      114.339       65.685    15945.952    13073.319     4314.575        5.841        1.667      288.939       70.103        0.059      348.077       27.505      859.417
08/28/2013  18:29:00     -369.528     -115.197      -11.010      192.883      158.366       70.623    37203.741    25079.702     4987.603       10.859        3.364      387.068       88.900        0.053      348.095       27.537      859.405
08/28/2013  18:30:00     -349.990     -110.907      -15.497      182.510      136.469       75.846    33309.959    18623.869     5752.652        9.635        2.884      367.143       87.897        0.057      348.096       27.540      859.393
08/28/2013  18:31:00     -332.464     -104.576       -7.948      182.805      112.093       61.774    33417.621    12564.889     3815.988        8.565        2.490      348.523       65.418        0.035      348.073       27.497      859.410
08/28/2013  18:32:00     -299.932      -95.491       -0.559      142.446      100.206       64.777    20290.989    10041.259     4196.065        6.680        1.726      314.766       66.870        0.045      348.077       27.506      859.425
08/28/2013  18:33:00     -209.580     -131.561       -5.315      146.632      106.917       66.276    21500.957    11431.300     4392.526        4.929        1.866      247.451       76.055        0.094      348.047       27.456      859.422
08/28/2013  18:34:00     -333.203      -64.824      -31.322      171.890      129.412       56.210    29546.242    16747.570     3159.589        8.282        2.473      339.450       63.841        0.035      348.064       27.484      859.420
08/28/2013  18:35:00     -414.245      -50.721      -32.483      138.082      105.809       70.063    19066.589    11195.559     4908.809       10.519        1.759      417.339       70.492        0.029      348.021       27.410      859.414
08/28/2013  18:36:00     -288.049      -85.804      -22.876      152.811      111.589       63.111    23351.049    12452.015     3982.955        6.531        1.989      300.557       77.393        0.066      348.011       27.393      859.400
08/28/2013  18:37:00     -182.391      -50.235       16.229      144.508       97.894       58.075    20882.622     9583.190     3372.726        3.494        1.692      189.183       67.527        0.127      347.970       27.321      859.399
08/28/2013  18:38:00     -167.653      -97.275        9.038      126.605      102.759       62.438    16028.933    10559.459     3898.537        3.406        1.524      193.830       69.175        0.127      347.963       27.311      859.409
08/28/2013  18:39:00      -98.403      -98.876        2.111      122.573       62.763       52.354    15024.220     3939.153     2740.891        2.058        1.085      139.498       51.838        0.138      347.959       27.304      859.426
08/28/2013  18:40:00     -335.237     -223.572       -1.249      171.478      163.247       77.069    29404.593    26649.741     5939.661       11.217        3.100      402.949       81.998        0.041      347.952       27.293      859.424
08/28/2013  18:41:00     -242.881     -142.702       -6.025      112.417      101.745       64.730    12637.688    10351.944     4189.914        5.328        1.359      281.701       62.463        0.049      347.957       27.300      859.419
08/28/2013  18:42:00     -222.248     -148.358      -13.090      136.791      115.061       72.049    18711.736    13239.004     5191.039        5.435        1.857      267.216       65.645        0.060      347.931       27.254      859.413
08/28/2013  18:43:00     -293.789      -37.656       -5.430      155.496      140.125       61.478    24179.040    19634.969     3779.574        6.767        2.380      296.192       67.999        0.053      347.901       27.203      859.433
08/28/2013  18:44:00     -107.717      -27.668       15.835      114.328      128.337       64.552    13070.896    16470.352     4166.979        2.316        1.685      111.214       80.384        0.522      347.845       27.107      859.433
08/28/2013  18:45:00     -140.129      -82.672        6.391      112.754      111.127       56.133    12713.561    12349.202     3150.893        2.736        1.411      162.699       63.284        0.151      347.890       27.184      859.434
08/28/2013  18:46:00     -234.531      -75.430      -10.882      146.087       93.570       63.398    21341.455     8755.326     4019.368        4.746        1.706      246.363       81.648        0.110      347.916       27.229      859.438
08/28/2013  18:47:00     -146.571      -35.506       17.574       95.692       91.032       50.899     9156.952     8286.758     2590.700        2.154        1.002      150.810       54.785        0.132      347.872       27.153      859.448
08/28/2013  18:48:00     -187.820     -103.381       -4.940      122.114       88.531       61.581    14911.885     7837.721     3792.175        3.626        1.327      214.392       62.551        0.085      347.873       27.153      859.456
08/28/2013  18:49:00     -242.792     -111.609       11.216      175.576      153.981       76.309    30826.865    23710.293     5823.064        6.593        3.018      267.216       98.205        0.135      347.851       27.116      859.461
08/28/2013  18:50:00     -268.771      -83.456       -2.025      166.278      124.086       74.057    27648.288    15397.415     5484.469        6.386        2.427      281.430       83.453        0.088      347.856       27.124      859.476
08/28/2013  18:51:00     -200.053      -87.551       22.100      193.626      151.674       82.854    37490.969    23004.867     6864.707        5.775        3.368      218.372      105.762        0.235      347.825       27.073      859.484
08/28/2013  18:52:00     -291.060      -15.565        6.914      140.586      121.788       74.151    19764.365    14832.219     5498.383        6.254        2.005      291.475       75.270        0.067      347.846       27.108      859.500
08/28/2013  18:53:00     -424.010     -159.647      -15.206      180.539      190.723       88.147    32594.399    36375.151     7769.951       14.111        3.837      453.070       86.361        0.036      347.858       27.127      859.500
08/28/2013  18:54:00     -153.477     -100.970        9.270      146.115      103.784       71.819    21349.656    10771.062     5157.905        3.555        1.864      183.712       71.984        0.154      347.785       27.002      859.513
08/28/2013  18:55:00     -238.478     -141.391       -2.614      133.628      108.020       68.746    17856.420    11668.237     4726.044        5.555        1.713      277.242       75.955        0.075      347.817       27.056      859.518
08/28/2013  18:56:00     -284.481      -60.011       -5.719      283.723      104.616       69.969    80498.967    10944.515     4895.617        9.043        4.817      290.741      102.426        0.124      347.784       27.001      859.531
08/28/2013  18:57:00     -322.796      -56.061       -4.608      157.968      121.414       65.461    24954.041    14741.328     4285.201        7.566        2.199      327.628       71.296        0.047      347.811       27.047      859.514
08/28/2013  18:58:00     -254.774      -86.851       13.717      184.096      136.846       72.187    33891.259    18726.759     5210.980        6.522        2.891      269.171       63.573        0.056      347.779       26.993      859.522
08/28/2013  18:59:00     -458.895     -138.585       -5.483      207.225      121.875       69.575    42942.147    14853.462     4840.648       14.622        3.132      479.365       85.525        0.032      347.783       26.999      859.506
08/28/2013  19:00:00     -297.576      -42.876      -15.167      137.012      135.340       78.690    18772.367    18317.011     6192.098        6.694        2.164      300.649       76.907        0.065      347.750       26.942      859.515
08/28/2013  19:01:00     -389.167        8.997       -7.927      200.291      127.698       83.513    40116.604    16306.761     6974.413       10.748        3.170      389.271       97.311        0.062      347.719       26.888      859.505
08/28/2013  19:02:00     -225.162     -173.112       -1.919      141.556      125.218       76.174    20038.146    15679.629     5802.459        6.109        2.076      284.017       62.357        0.048      347.732       26.911      859.499
08/28/2013  19:03:00     -368.668     -121.193       -8.723      167.791      179.434       83.137    28153.756    32196.427     6911.838       10.896        3.363      388.077       87.156        0.050      347.730       26.907      859.510
08/28/2013  19:04:00     -283.090      -99.513      -15.892      117.132      120.779       64.214    13719.954    14587.661     4123.482        6.136        1.622      300.071       52.343        0.030      347.703       26.860      859.529
08/28/2013  19:05:00     -343.848      -52.829      -12.000      200.073      111.491       76.861    40029.343    12430.348     5907.639        8.976        2.918      347.883       83.315        0.057      347.677       26.814      859.521
08/28/2013  19:06:00     -348.817     -103.913       -2.990      173.809      116.357       84.726    30209.517    13539.057     7178.546        9.169        2.546      363.966       89.622        0.061      347.673       26.809      859.542
08/28/2013  19:07:00     -351.827      -16.633      -17.661      148.919      104.644       65.360    22176.855    10950.282     4271.883        8.088        1.870      352.220       63.255        0.032      347.667       26.797      859.589
08/28/2013  19:08:00     -325.166     -117.986       -7.805      233.898      149.089       69.074    54708.042    22227.520     4771.173       10.069        4.085      345.910       79.322        0.053      347.659       26.785      859.602
08/28/2013  19:09:00     -263.747     -173.508       15.510      201.317      172.766       78.584    40528.341    29847.967     6175.458        8.821        3.828      315.702       97.599        0.096      347.658       26.784      859.597
08/28/2013  19:10:00     -403.516      -93.331      -14.558      165.872      169.749       85.015    27513.471    28814.806     7227.623       11.764        3.178      414.169       94.856        0.052      347.627       26.731      859.606
08/28/2013  19:11:00     -217.712      -18.733      -11.954      131.262       82.502       54.933    17229.750     6806.597     3017.676        3.747        1.353      218.517       60.263        0.076      347.606       26.694      859.613
08/28/2013  19:12:00     -145.020      -72.936       19.332      158.185      106.859       69.475    25022.497    11418.892     4826.750        3.399        2.063      162.328       72.085        0.197      347.571       26.635      859.611
08/28/2013  19:13:00     -150.028      -12.361       12.456      155.275      133.618       76.764    24110.391    17853.679     5892.765        3.533        2.393      150.536       77.780        0.267      347.501       26.514      859.608
08/28/2013  19:14:00     -375.207     -195.868       -7.939      181.648       84.567       64.298    32995.927     7151.586     4134.217       11.174        2.214      423.255       80.199        0.036      347.562       26.619      859.618
08/28/2013  19:15:00     -211.502      -54.953       -8.183      111.464       77.048       42.795    12424.194     5936.359     1831.419        3.400        1.010      218.525       52.312        0.057      347.500       26.512      859.644
08/28/2013  19:16:00     -125.173       -2.066       17.368      107.660       94.043       48.274    11590.609     8844.147     2330.384        1.937        1.138      125.190       47.800        0.146      347.390       26.323      859.665
08/28/2013  19:17:00     -357.626     -114.143      -19.388      135.774      115.748       66.894    18434.547    13397.688     4474.855        8.880        1.815      375.399       70.381        0.035      347.496       26.504      859.670
08/28/2013  19:18:00     -382.164      -84.810      -27.431       98.622      109.495       62.850     9726.382    11989.060     3950.130        8.982        1.283      391.461       52.865        0.018      347.459       26.439      859.676
08/28/2013  19:19:00     -297.644      -16.629       -3.126      155.637      130.864       74.299    24222.886    17125.369     5520.406        6.786        2.343      298.108       76.699        0.066      347.386       26.314      859.708
08/28/2013  19:20:00     -235.199      -24.275        0.884      103.541       90.774       49.732    10720.781     8239.838     2473.255        3.867        1.072      236.449       54.607        0.053      347.400       26.337      859.728
08/28/2013  19:21:00     -368.319     -115.286      -29.788      192.257      184.070       68.460    36962.735    33881.800     4686.711       11.267        3.777      385.940       76.847        0.040      347.414       26.361      859.731
08/28/2013  19:22:00     -327.567       -8.887      -16.205      120.449      109.068       66.363    14507.909    11895.749     4403.991        6.922        1.540      327.687       53.473        0.027      347.413       26.359      859.729
08/28/2013  19:23:00     -339.374      -66.723      -28.283      110.730      117.014       43.687    12261.089    13692.201     1908.582        7.414        1.393      345.871       26.839        0.006      347.388       26.317      859.760
08/28/2013  19:24:00     -142.367        9.478        8.762      153.241       99.730       57.802    23482.874     9945.999     3341.118        2.860        1.838      142.682       56.734        0.158      347.337       26.232      859.770
08/28/2013  19:25:00     -357.589      -24.286      -15.624      179.101      130.069       70.566    32077.269    16918.052     4979.536        9.133        2.699      358.413       88.214        0.061      347.371       26.289      859.765
08/28/2013  19:26:00     -410.112      -28.255      -30.410      162.411      123.641       73.715    26377.487    15287.025     5433.857       10.850        2.355      411.084       84.226        0.042      347.377       26.298      859.764
08/28/2013  19:27:00     -141.516      -22.108       -3.828      117.557       63.724       49.890    13819.687     4060.783     2488.980        2.045        1.018      143.232       53.780        0.141      347.329       26.218      859.771
08/28/2013  19:28:00     -362.211     -107.293      -11.944      172.626      129.854       65.577    29799.657    16862.105     4300.279        9.690        2.548      377.768       58.380        0.024      347.347       26.247      859.765
08/28/2013  19:29:00     -384.048      -27.301      -13.281      141.281      131.545       74.514    19960.391    17304.028     5552.331        9.561        2.141      385.017       77.959        0.041      347.294       26.155      859.759
08/28/2013  19:30:00     -445.924      -30.433      -28.767      173.954      165.485       78.392    30259.939    27385.171     6145.355       13.218        3.190      446.961       81.500        0.033      347.318       26.196      859.757
08/28/2013  19:31:00     -306.647     -107.586        1.846      148.286      158.786       77.186    21988.752    25213.010     5957.654        7.937        2.658      324.972       87.191        0.072      347.289       26.145      859.782
08/28/2013  19:32:00     -387.508      -86.767       -3.229      146.849      135.430       62.085    21564.670    18341.351     3854.579       10.072        2.188      397.103       69.701        0.031      347.280       26.132      859.796
08/28/2013  19:33:00     -405.068      -56.703      -29.797      134.871       93.136       70.887    18190.102     8674.382     5025.011       10.003        1.594      409.018       71.791        0.031      347.308       26.180      859.807
08/28/2013  19:34:00     -292.066      -19.850      -16.796      148.077       92.593       52.404    21926.942     8573.534     2746.155        5.961        1.662      292.739       65.339        0.050      347.250       26.078      859.809
08/28/2013  19:35:00     -275.094      -78.000       -0.350      161.932       83.923       55.223    26221.955     7043.061     3049.603        5.903        1.816      285.939       57.305        0.040      347.211       26.013      859.796
08/28/2013  19:36:00     -427.780      -11.772      -19.201      168.524      139.838       78.130    28400.476    19554.589     6104.247       11.877        2.703      427.942       80.991        0.036      347.224       26.035      859.776
08/28/2013  19:37:00     -301.601      -78.242       -9.620      149.974      123.350       73.865    22492.313    15215.196     5456.080        7.016        2.158      311.584       85.777        0.076      347.199       25.992      859.800
08/28/2013  19:38:00     -319.179      -65.607       -6.118      119.968      101.020       55.750    14392.419    10204.942     3108.078        6.696        1.385      325.852       56.891        0.030      347.189       25.975      859.801
08/28/2013  19:39:00     -171.187      -43.990       11.708      115.830       92.196       54.445    13416.698     8500.149     2964.295        2.812        1.244      176.748       60.333        0.117      347.122       25.861      859.811
08/28/2013  19:40:00     -258.894      -54.792      -13.538      145.570       79.994       56.889    21190.505     6399.035     3236.398        5.051        1.541      264.628       66.462        0.063      347.093       25.809      859.820
08/28/2013  19:41:00     -367.496      -11.038      -16.399      136.017       94.195       55.534    18500.578     8872.757     3084.050        8.294        1.523      367.662       55.079        0.022      347.168       25.938      859.817
08/28/2013  19:42:00     -263.481      -37.726      -12.976       93.960       70.685       44.763     8828.410     4996.382     2003.729        4.342        0.791      266.168       41.776        0.025      347.120       25.854      859.828
08/28/2013  19:43:00     -306.366      -27.587       -4.301      151.727       97.596       57.138    23020.940     9524.985     3264.700        6.522        1.791      307.606       71.437        0.054      347.109       25.837      859.834
08/28/2013  19:44:00     -268.002      -62.223       -4.778      143.242      144.453       67.030    20518.238    20866.646     4493.066        6.079        2.294      275.131       65.646        0.057      347.096       25.816      859.827
08/28/2013  19:45:00     -262.923      -24.497      -20.765      121.096      100.564       67.916    14664.158    10113.019     4612.553        4.977        1.469      264.062       65.418        0.061      347.088       25.799      859.811
08/28/2013  19:46:00     -179.569       28.441        4.111      119.448       80.306       52.498    14267.876     6449.000     2756.020        2.827        1.174      181.808       62.607        0.119      346.991       25.635      859.819
08/28/2013  19:47:00      -74.747      -39.994       15.333      129.349       66.889       41.571    16731.210     4474.184     1728.170        1.517        1.147       84.774       55.849        0.434      346.952       25.570      859.822
08/28/2013  19:48:00     -276.212      -62.220       -0.088      124.447      128.674       56.842    15487.156    16556.878     3231.013        5.771        1.764      283.133       61.290        0.047      346.978       25.612      859.811
08/28/2013  19:49:00     -243.731      -84.454       -1.253      136.462      120.812       65.468    18621.846    14595.630     4286.044        5.201        1.875      257.948       64.404        0.062      346.955       25.573      859.820
08/28/2013  19:50:00     -416.187     -117.026       -9.996      139.588      175.476       79.647    19484.923    30791.705     6343.584       12.180        2.831      432.327       71.925        0.028      347.005       25.658      859.846
08/28/2013  19:51:00     -401.846      -68.943      -18.575      126.064      157.846       70.338    15892.230    24915.381     4947.493       10.616        2.288      407.718       65.321        0.026      347.001       25.651      859.860
08/28/2013  19:52:00     -467.015       22.260      -43.367      151.109      131.167       71.117    22834.038    17204.866     5057.585       13.278        2.255      467.545       85.699        0.034      347.008       25.663      859.894
08/28/2013  19:53:00     -279.627       43.514      -25.381      142.997      126.999       59.519    20448.007    16128.641     3542.487        6.042        2.006      282.993       58.160        0.042      346.966       25.591      859.898
08/28/2013  19:54:00     -259.801      -47.764       -7.619      175.022      125.544       66.366    30632.623    15761.399     4404.444        6.031        2.540      264.155       83.614        0.100      346.918       25.508      859.906
08/28/2013  19:55:00     -341.061      -52.723      -13.171      128.228      100.562       58.506    16442.469    10112.805     3422.936        7.462        1.499      345.112       67.406        0.038      346.934       25.536      859.921
08/28/2013  19:56:00     -287.568     -106.173       -4.816      132.380      103.018       58.677    17524.332    10612.661     3442.998        6.278        1.579      306.542       66.910        0.048      346.896       25.470      859.940
08/28/2013  19:57:00     -312.861      -97.124      -20.732      118.099       93.509       65.800    13947.472     8744.018     4329.639        6.738        1.351      327.590       53.658        0.027      346.904       25.484      859.953
08/28/2013  19:58:00     -160.271      -24.934        3.336      115.789       92.442       53.377    13407.093     8545.517     2849.087        2.556        1.240      162.199       53.452        0.109      346.799       25.304      859.994
08/28/2013  19:59:00     -103.149       -6.565       10.834       77.047       59.956       51.086     5936.307     3594.781     2609.822        1.147        0.607      103.358       48.200        0.217      346.781       25.275      859.990
08/28/2013  20:00:00      -67.113      -25.686       10.452       53.199       61.607       37.687     2830.183     3795.458     1420.295        0.666        0.402       71.860       28.843        0.161      346.813       25.331      860.006
08/28/2013  20:01:00     -165.663      -57.239        1.085       66.659       65.716       33.226     4443.397     4318.586     1103.982        2.029        0.493      175.273       30.332        0.030      346.848       25.389      860.003
08/28/2013  20:02:00     -208.622      -42.630      -10.990      106.127       70.560       45.142    11262.914     4978.716     2037.812        3.187        0.914      212.933       55.505        0.068      346.807       25.318      860.022
08/28/2013  20:03:00     -111.748      -60.591        3.063      107.753       86.459       54.137    11610.634     7475.137     2930.783        1.909        1.101      127.118       52.251        0.169      346.735       25.195      860.044
08/28/2013  20:04:00     -103.052      -59.582        4.120       90.750       60.166       39.622     8235.523     3619.955     1569.913        1.380        0.671      119.036       48.914        0.169      346.700       25.137      860.054
08/28/2013  20:05:00     -144.112      -25.453        9.232      127.237      122.705       58.942    16189.267    15056.462     3474.109        2.810        1.736      146.342       47.775        0.107      346.701       25.135      860.061
08/28/2013  20:06:00     -107.240       -1.973       10.030      122.482       66.567       53.324    15001.814     4431.205     2843.431        1.694        1.114      107.258       38.987        0.132      346.647       25.043      860.110
08/28/2013  20:07:00     -148.768      -56.918       -1.132       85.989       83.897       43.410     7394.052     7038.727     1884.434        2.084        0.816      159.285       35.005        0.048      346.706       25.144      860.143
08/28/2013  20:08:00     -237.722      -14.483      -21.473       67.948       61.311       41.170     4616.881     3759.030     1694.957        3.362        0.504      238.163       38.487        0.026      346.724       25.173      860.167
08/28/2013  20:09:00     -135.609       16.144       -9.230      147.013       81.205       47.121    21612.966     6594.290     2220.420        2.458        1.521      136.567       50.876        0.139      346.717       25.164      860.142
08/28/2013  20:10:00     -293.770     -102.558       -7.177      116.312       82.889       54.641    13528.511     6870.593     2985.619        6.012        1.169      311.158       49.198        0.025      346.726       25.177      860.119
08/28/2013  20:11:00     -283.617     -110.087      -12.137      109.526      100.505       51.603    11996.052    10101.327     2662.898        5.873        1.238      304.233       44.996        0.022      346.680       25.097      860.159
08/28/2013  20:12:00     -175.229      -21.241        2.538      132.374      111.478       62.286    17522.780    12427.370     3879.515        3.249        1.691      176.512       69.457        0.155      346.635       25.022      860.184
08/28/2013  20:13:00     -160.046      -28.125       -1.549       91.526       63.089       47.187     8376.967     3980.171     2226.645        2.049        0.729      162.498       43.808        0.073      346.639       25.029      860.182
08/28/2013  20:14:00     -230.299      -87.597      -26.420      119.662       87.979       54.155    14318.955     7740.316     2932.775        4.320        1.250      246.396       45.595        0.034      346.618       24.992      860.187
08/28/2013  20:15:00     -236.687      -68.088       -8.924       88.000       81.460       44.703     7744.023     6635.770     1998.373        3.855        0.819      246.286       45.716        0.034      346.579       24.925      860.197
08/28/2013  20:16:00     -241.067      -53.494       -6.018      123.147       98.755       58.809    15165.078     9752.462     3458.544        4.469        1.419      246.931       67.701        0.075      346.556       24.885      860.215
08/28/2013  20:17:00     -293.274      -50.826       -7.738      127.114      103.747       54.459    16157.931    10763.469     2965.767        5.926        1.494      297.645       46.599        0.025      346.562       24.895      860.218
08/28/2013  20:18:00     -345.812      -93.146      -10.325      108.602      102.055       54.306    11794.348    10415.289     2949.099        7.676        1.258      358.137       58.928        0.027      346.557       24.887      860.240
08/28/2013  20:19:00     -340.929      -34.706      -16.454      127.279      102.808       62.101    16199.851    10569.526     3856.492        7.416        1.531      342.691       62.082        0.033      346.570       24.909      860.245
08/28/2013  20:20:00     -293.334      -12.579      -16.369      119.897       75.799       47.950    14375.237     5745.450     2299.160        5.444        1.121      293.603       58.162        0.039      346.576       24.919      860.261
08/28/2013  20:21:00     -351.933       35.948      -17.310      224.257      117.535       79.699    50291.315    13814.505     6351.979        9.794        3.523      353.764       94.460        0.071      346.482       24.758      860.269
08/28/2013  20:22:00     -356.020      -55.756       -8.740      166.318      129.595       67.959    27661.680    16794.972     4618.469        8.950        2.454      360.359       77.391        0.046      346.543       24.862      860.303
08/28/2013  20:23:00     -388.299     -103.531      -16.122      155.876      115.841       66.930    24297.341    13419.081     4479.677       10.197        2.110      401.864       78.023        0.038      346.539       24.858      860.308
08/28/2013  20:24:00     -366.554      -89.492       -3.073      176.588      119.960       67.094    31183.365    14390.476     4501.637        9.622        2.504      377.321       75.265        0.040      346.525       24.831      860.324
08/28/2013  20:25:00     -334.082      -75.930      -16.499      152.480      149.408       59.871    23250.267    22322.826     3584.490        8.339        2.458      342.602       67.162        0.038      346.558       24.888      860.323
08/28/2013  20:26:00     -425.582     -117.141      -26.233      153.761      108.752       63.792    23642.587    11826.998     4069.386       11.753        1.977      441.409       61.885        0.020      346.534       24.847      860.321
08/28/2013  20:27:00     -292.808      -69.504      -19.732      178.766      110.546       57.075    31957.359    12220.319     3257.547        6.919        2.372      300.944       66.540        0.049      346.456       24.714      860.376
08/28/2013  20:28:00     -345.236      -88.878      -22.974      178.992      124.876       78.340    32038.232    15594.052     6137.113        9.068        2.688      356.493       97.893        0.075      346.500       24.789      860.402
08/28/2013  20:29:00     -408.103     -126.881      -18.844      142.659      138.031       70.483    20351.648    19052.464     4967.786       11.368        2.219      427.372       64.651        0.023      346.556       24.886      860.408
08/28/2013  20:30:00     -358.706     -136.209      -11.349      141.125      107.435       70.985    19916.177    11542.322     5038.859        9.192        1.825      383.696       69.206        0.033      346.520       24.822      860.402
08/28/2013  20:31:00     -258.279      -15.315       -9.105      121.993      100.057       59.505    14882.313    10011.468     3540.826        4.772        1.422      258.732       62.807        0.059      346.450       24.705      860.413
08/28/2013  20:32:00     -411.472      -59.093      -27.199      163.441      128.977       68.927    26712.867    16635.024     4750.915       11.081        2.405      415.694       84.027        0.041      346.475       24.746      860.418
08/28/2013  20:33:00     -194.425      -50.607       -0.459      135.495      112.404       63.756    18358.934    12634.559     4064.877        3.770        1.753      200.904       75.033        0.139      346.366       24.558      860.428
08/28/2013  20:34:00     -351.879      -97.467       -9.715      143.624      122.697       69.302    20627.856    15054.457     4802.745        8.694        2.024      365.129       69.257        0.036      346.482       24.759      860.460
08/28/2013  20:35:00     -283.060      -69.129      -21.465      138.919      113.963       53.856    19298.458    12987.677     2900.427        6.027        1.759      291.379       64.370        0.049      346.429       24.667      860.485
08/28/2013  20:36:00     -218.384      -71.979       -0.484       79.777       81.447       46.691     6364.428     6633.692     2180.096        3.402        0.759      229.940       39.028        0.029      346.404       24.624      860.515
08/28/2013  20:37:00     -213.558      -93.161        4.091       80.282       83.331       52.352     6445.177     6944.114     2740.763        3.521        0.807      232.993       50.610        0.047      346.389       24.597      860.536
08/28/2013  20:38:00     -281.283       -9.097      -11.585      152.367      111.957       55.980    23215.773    12534.265     3133.809        5.910        1.944      281.430       63.137        0.050      346.416       24.646      860.519
08/28/2013  20:39:00     -204.166      -50.542       -9.191      144.547       86.461       57.994    20893.956     7475.436     3363.270        3.802        1.587      210.328       59.206        0.079      346.383       24.589      860.548
08/28/2013  20:40:00     -349.829      -54.990      -23.778      116.969       88.311       62.150    13681.753     7798.867     3862.617        7.565        1.267      354.124       57.639        0.026      346.373       24.571      860.552
08/28/2013  20:41:00     -350.967      -93.236      -15.313      136.021      136.065       59.095    18501.839    18513.559     3492.234        8.630        2.025      363.140       62.379        0.030      346.369       24.565      860.569
08/28/2013  20:42:00     -217.997      -84.503       -3.215      135.787      106.393       59.497    18438.193    11319.522     3539.858        4.398        1.665      233.802       67.995        0.085      346.382       24.587      860.621
08/28/2013  20:43:00     -149.452       -5.461      -11.133       92.423       99.279       49.333     8541.960     9856.223     2433.789        2.166        1.042      149.551       53.963        0.130      346.404       24.627      860.621
08/28/2013  20:44:00     -267.646      -43.606      -16.050      139.202       81.476       55.006    19377.185     6638.397     3025.691        5.141        1.452      271.175       65.615        0.059      346.361       24.550      860.604
08/28/2013  20:45:00     -267.803        1.465       -9.517      146.320      129.557       54.956    21409.648    16785.126     3020.210        5.650        2.061      267.807       62.384        0.054      346.323       24.483      860.624
08/28/2013  20:46:00     -311.631      -77.675      -14.592       94.428       99.735       45.520     8916.603     9947.091     2072.046        6.214        1.047      321.165       52.485        0.027      346.358       24.545      860.628
08/28/2013  20:47:00     -213.005      -49.529       -3.452      112.116      101.082       60.994    12570.089    10217.668     3720.285        3.717        1.325      218.688       59.075        0.073      346.254       24.366      860.643
08/28/2013  20:48:00     -267.186      -45.763      -29.401       93.035       77.837       48.246     8655.500     6058.606     2327.632        4.569        0.852      271.077       50.879        0.035      346.279       24.410      860.683
08/28/2013  20:49:00     -166.576      -38.780       -1.981       93.605       64.300       39.961     8761.882     4134.514     1596.911        2.187        0.725      171.030       46.080        0.073      346.221       24.310      860.694
08/28/2013  20:50:00     -234.567      -98.009       -4.416      104.194       97.524       56.611    10856.412     9511.016     3204.844        4.410        1.179      254.219       53.500        0.044      346.276       24.403      860.716
08/28/2013  20:51:00     -235.418      -38.275      -10.395       89.706      113.791       52.471     8047.213    12948.359     2753.180        4.037        1.187      238.509       47.831        0.040      346.328       24.492      860.745
08/28/2013  20:52:00     -199.171       50.693      -26.768      118.522      112.597       53.604    14047.523    12677.980     2873.432        3.627        1.480      205.520       43.862        0.046      346.281       24.412      860.733
08/28/2013  20:53:00     -240.956      -29.296       -9.456      166.795       88.647       64.363    27820.689     7858.295     4142.641        4.941        1.991      242.731       86.969        0.128      346.273       24.399      860.754
08/28/2013  20:54:00     -235.958     -110.104       -3.763      145.586      121.062       59.363    21195.309    14656.043     3523.955        5.359        1.969      260.382       69.790        0.072      346.252       24.363      860.777
08/28/2013  20:55:00     -205.555      -60.018       -1.230      120.478       89.951       52.126    14514.851     8091.143     2717.081        3.558        1.266      214.138       60.588        0.080      346.233       24.331      860.779
08/28/2013  20:56:00     -244.285      -96.012        0.721      107.831      106.163       69.162    11627.544    11270.644     4783.376        4.828        1.384      262.476       66.086        0.063      346.236       24.334      860.795
08/28/2013  20:57:00     -330.850      -44.375      -17.065      109.143       99.102       64.769    11912.214     9821.152     4195.041        6.882        1.296      333.813       49.618        0.022      346.255       24.366      860.822
08/28/2013  20:58:00     -300.696      -67.027      -18.207      163.323      106.939       64.807    26674.518    11435.877     4199.974        6.877        2.116      308.076       81.447        0.070      346.334       24.503      860.831
08/28/2013  20:59:00     -297.530       -6.828      -32.090       97.288      105.451       50.722     9464.870    11119.872     2572.684        5.637        1.158      297.608       36.196        0.015      346.401       24.617      860.846
08/28/2013  21:00:00     -317.453       19.346      -30.678      112.166       82.546       53.827    12581.158     6813.845     2897.349        6.219        1.115      318.042       53.073        0.028      346.409       24.632      860.847
08/28/2013  21:01:00     -222.386      -54.756       -7.638      124.852       90.729       49.967    15587.960     8231.695     2496.718        3.941        1.316      229.028       59.935        0.068      346.275       24.403      860.856
08/28/2013  21:02:00     -146.560      -38.857       -5.423      105.510       89.149       45.035    11132.345     7947.532     2028.157        2.206        1.055      151.623       49.823        0.108      346.219       24.308      860.850
08/28/2013  21:03:00     -307.126      -21.895      -25.409      111.010       96.556       53.018    12323.229     9322.967     2810.949        5.995        1.223      307.906       50.890        0.027      346.246       24.350      860.862
08/28/2013  21:04:00     -279.726     -113.714       -8.877      179.780      124.243       75.057    32320.739    15436.236     5633.540        7.231        2.670      301.956       87.453        0.084      346.211       24.291      860.855
08/28/2013  21:05:00     -388.221      -65.046      -27.766      179.704      131.617       60.929    32293.702    17322.920     3712.293       10.451        2.666      393.633       67.447        0.029      346.268       24.390      860.888
08/28/2013  21:06:00     -259.949     -110.317       -0.039      183.378       83.154       60.351    33627.633     6914.589     3642.290        6.196        2.209      282.389       76.422        0.073      346.339       24.514      860.939
08/28/2013  21:07:00     -101.537      -53.053        3.091       62.846       66.124       36.369     3949.621     4372.397     1322.717        1.139        0.482      114.562       22.255        0.038      346.332       24.503      860.952
08/28/2013  21:08:00     -171.838      -89.340       -6.277       50.590       53.621       32.025     2559.350     2875.251     1025.585        2.200        0.323      193.675       26.934        0.019      346.330       24.499      860.935
08/28/2013  21:09:00     -287.905      -92.125      -21.426       98.205       61.202       36.473     9644.289     3745.739     1330.281        5.327        0.736      302.285       25.876        0.007      346.246       24.352      860.934
08/28/2013  21:10:00     -375.711     -127.216      -11.697      104.989       80.735       49.023    11022.701     6518.158     2403.246        8.871        0.997      396.665       43.775        0.012      346.195       24.263      860.938
08/28/2013  21:11:00     -209.500     -134.463       -5.010       82.737       66.595       45.410     6845.456     4434.843     2062.026        3.767        0.667      248.939       45.143        0.033      346.167       24.216      860.946
08/28/2013  21:12:00     -276.967      -96.645      -13.451      101.665       74.217       41.698    10335.869     5508.089     1738.689        5.190        0.879      293.344       48.103        0.027      346.155       24.195      860.967
08/28/2013  21:13:00      -97.540       -4.727        8.974      101.799       97.414       54.363    10363.102     9489.452     2955.298        1.621        1.140       97.654       60.333        0.382      345.996       23.923      860.990
08/28/2013  21:14:00     -208.036      -42.160       -7.505      104.223       73.063       53.483    10862.516     5338.234     2860.412        3.208        0.953      212.265       58.776        0.077      346.154       24.194      860.978
08/28/2013  21:15:00     -322.135      -66.901       -9.431      155.384       90.664       67.791    24144.282     8220.030     4595.642        7.264        1.848      329.009       77.047        0.055      346.134       24.159      860.972
08/28/2013  21:16:00     -300.855      -90.477       -9.365      131.447      125.814       60.948    17278.206    15829.126     3714.714        6.780        1.841      314.166       62.867        0.040      346.102       24.103      860.981
08/28/2013  21:17:00     -289.268      -65.949      -11.437      108.685       80.047       55.916    11812.440     6407.535     3126.560        5.475        1.067      296.691       56.327        0.036      346.080       24.066      860.996
08/28/2013  21:18:00     -207.066      -36.372       -6.869       87.560       79.391       44.746     7666.751     6302.997     2002.172        3.011        0.799      210.237       43.901        0.044      346.105       24.110      861.016
08/28/2013  21:19:00     -244.215      -82.768       -5.606       95.233       95.740       44.293     9069.271     9166.108     1961.840        4.336        1.010      257.860       50.268        0.038      346.103       24.105      861.014
08/28/2013  21:20:00     -309.724      -40.606       -3.291      168.256      120.863       63.137    28310.128    14607.880     3986.268        7.224        2.345      312.375       67.086        0.046      346.056       24.024      861.031
08/28/2013  21:21:00     -261.947      -23.034       -5.901      115.737       79.872       58.534    13395.133     6379.608     3426.196        4.619        1.160      262.958       63.045        0.057      346.028       23.978      861.054
08/28/2013  21:22:00     -174.615      -29.546       -9.224       91.694       76.971       44.141     8407.832     5924.532     1948.428        2.386        0.814      177.098       47.627        0.072      346.098       24.098      861.055
08/28/2013  21:23:00     -101.865      -25.321       20.003       96.492       74.873       51.099     9310.734     5605.986     2611.075        1.447        0.876      104.965       52.485        0.250      346.017       23.960      861.062
08/28/2013  21:24:00     -175.538      -49.154        5.467       91.021       94.987       40.889     8284.848     9022.471     1671.910        2.612        0.949      182.290       44.068        0.058      346.011       23.949      861.068
08/28/2013  21:25:00     -170.596      -22.707        3.899      129.700       84.605       50.476    16821.980     7158.024     2547.871        2.808        1.326      172.101       63.569        0.136      346.010       23.947      861.057
08/28/2013  21:26:00     -322.096      -13.993      -23.755      104.881       88.324       53.990    10999.984     7801.206     2914.935        6.311        1.086      322.400       48.317        0.022      346.048       24.011      861.048
08/28/2013  21:27:00     -287.878      -61.718        1.970      171.167      114.355       74.803    29298.283    13077.004     5595.477        6.732        2.399      294.420       81.550        0.077      346.048       24.012      861.065
08/28/2013  21:28:00     -244.421      -53.195       18.500      208.165      120.446       72.926    43332.688    14507.166     5318.202        6.302        3.158      250.142       92.824        0.138      346.031       23.984      861.116
08/28/2013  21:29:00     -357.310      -43.538      -32.275      125.669       80.607       50.395    15792.767     6497.560     2539.612        7.771        1.241      359.953       56.432        0.025      346.136       24.161      861.139
08/28/2013  21:30:00     -333.822        8.587      -19.679       93.651       99.382       55.869     8770.520     9876.759     3121.379        6.683        1.088      333.933       50.661        0.023      346.103       24.107      861.126
08/28/2013  21:31:00     -215.156      -83.472        3.396      138.827       70.551       38.965    19272.954     4977.442     1518.276        3.951        1.288      230.780       40.635        0.031      346.011       23.949      861.127
08/28/2013  21:32:00     -472.597     -135.891      -29.231      156.792      120.921       77.803    24583.665    14621.777     6053.307       14.395        2.263      491.746       72.068        0.021      346.174       24.227      861.130
08/28/2013  21:33:00     -255.117     -120.624        2.202      145.840       91.826       79.223    21269.337     8431.985     6276.312        5.780        1.799      282.196       83.632        0.088      346.141       24.171      861.166
08/28/2013  21:34:00     -129.556      -30.571        3.801      120.746       96.081       53.504    14579.706     9231.594     2862.693        2.220        1.334      133.114       49.792        0.140      346.147       24.184      861.156
08/28/2013  21:35:00     -166.000       -9.973      -14.442       91.224       76.431       46.299     8321.773     5841.666     2143.643        2.208        0.815      166.299       46.547        0.078      346.069       24.051      861.164
08/28/2013  21:36:00     -247.391      -26.970        5.579      148.336      104.161       70.030    22003.486    10849.579     4904.203        4.985        1.888      248.857       80.188        0.104      346.001       23.932      861.177
08/28/2013  21:37:00     -244.388      -67.227        4.335      157.208       95.029       57.380    24714.275     9030.543     3292.428        5.064        1.852      253.466       76.756        0.092      346.011       23.950      861.183
08/28/2013  21:38:00     -418.600      -61.714      -25.996      108.989      134.740       59.773    11878.512    18154.945     3572.847       10.665        1.680      423.124       53.697        0.016      346.114       24.124      861.195
08/28/2013  21:39:00     -272.220       -9.722      -30.906       91.851       72.909       37.033     8436.529     5315.664     1371.408        4.514        0.756      272.394       33.363        0.015      346.084       24.071      861.190
08/28/2013  21:40:00     -313.230      -64.754        1.350      118.496       76.650       49.304    14041.287     5875.295     2430.890        6.232        1.117      319.853       41.878        0.017      346.057       24.026      861.173
08/28/2013  21:41:00     -275.642      -11.394      -16.370       99.220       94.010       49.302     9844.574     8837.850     2430.692        4.874        1.056      275.878       35.544        0.017      346.043       24.003      861.157
08/28/2013  21:42:00     -279.306     -146.118      -14.903       86.934       87.141       42.702     7557.522     7593.552     1823.441        5.828        0.849      315.218       26.482        0.007      346.052       24.019      861.149
08/28/2013  21:43:00     -291.475      -70.777      -11.971      133.738      118.261       58.203    17885.859    13985.726     3387.587        6.268        1.763      299.945       61.377        0.042      345.971       23.880      861.154
08/28/2013  21:44:00     -361.711     -126.344      -11.767      129.024      100.316       58.711    16647.156    10063.299     3446.943        8.854        1.508      383.142       60.834        0.025      346.009       23.946      861.156
08/28/2013  21:45:00     -273.015      -62.620      -11.188      150.224       96.820       66.532    22567.276     9374.176     4426.463        5.747        1.818      280.105       72.022        0.066      346.027       23.976      861.153
08/28/2013  21:46:00     -273.571     -109.391      -18.258      199.526      127.203       79.675    39810.651    16180.694     6348.180        7.473        3.117      294.631       85.317        0.084      346.056       24.028      861.147
08/28/2013  21:47:00     -327.821     -114.594      -29.035      104.545      109.784       58.042    10929.560    12052.490     3368.838        7.389        1.318      347.273       29.730        0.007      346.207       24.285      861.192
08/28/2013  21:48:00     -256.861      -36.214       -4.933      132.553      130.945       57.948    17570.331    17146.572     3357.988        5.269        1.904      259.401       57.950        0.050      346.222       24.313      861.255
08/28/2013  21:49:00     -132.134      -91.770      -15.478       66.631       55.249       30.977     4439.722     3052.497      959.558        1.728        0.423      160.876       28.816        0.032      346.401       24.622      861.271
08/28/2013  21:50:00     -158.898      -75.260       16.552      118.364       72.337       58.949    14010.139     5232.590     3475.006        2.695        1.136      175.820       61.621        0.123      346.138       24.166      861.273
08/28/2013  21:51:00     -105.710      -89.256        2.362       98.031       62.075       42.369     9610.075     3853.289     1795.102        1.720        0.763      138.352       51.387        0.138      346.083       24.073      861.281
08/28/2013  21:52:00     -201.697      -75.672       -8.531       98.449       85.950       36.851     9692.200     7387.421     1357.962        3.246        0.922      215.424       32.788        0.023      346.099       24.101      861.290
08/28/2013  21:53:00     -237.200     -120.766       -3.352       86.126       92.185       50.060     7417.707     8498.061     2506.018        4.464        0.921      266.174       47.492        0.032      346.102       24.106      861.304
08/28/2013  21:54:00     -264.860       11.905      -20.396      122.681       90.246       46.963    15050.682     8144.258     2205.520        4.805        1.270      265.127       50.093        0.036      346.113       24.123      861.331
08/28/2013  21:55:00     -264.437       26.056      -22.245      147.086       76.329       63.913    21634.156     5826.119     4084.926        5.132        1.577      265.718       70.024        0.069      346.268       24.391      861.358
08/28/2013  21:56:00     -188.658       62.117      -29.742       64.862      105.526       48.781     4207.017    11135.828     2379.548        2.903        0.886      198.621       36.039        0.033      346.253       24.362      861.368
08/28/2013  21:57:00     -198.431     -104.569       -9.357       80.668       66.705       39.464     6507.266     4449.597     1557.441        3.145        0.626      224.298       36.201        0.026      346.206       24.284      861.390
08/28/2013  21:58:00      -71.579      -29.230        9.507       43.636       38.699       24.194     1904.074     1497.587      585.366        0.503        0.199       77.317       23.901        0.096      346.149       24.188      861.397
08/28/2013  21:59:00     -131.154      -37.767       -1.015       80.414       46.892       29.065     6466.406     2198.901      844.782        1.407        0.476      136.483       19.111        0.020      346.051       24.019      861.424
08/28/2013  22:00:00     -152.718      -29.115        3.293       89.357       74.144       41.646     7984.593     5497.364     1734.379        1.970        0.761      155.469       40.350        0.067      346.001       23.932      861.442
08/28/2013  22:01:00     -107.073        7.467       11.528      115.563       74.336       62.399    13354.764     5525.785     3893.592        1.721        1.139      107.333       68.484        0.407      345.984       23.903      861.443
08/28/2013  22:02:00     -206.381      -61.397       -8.349       62.066       63.228       40.617     3852.180     3997.763     1649.704        2.796        0.475      215.320       29.784        0.019      345.972       23.882      861.446
08/28/2013  22:03:00     -222.722     -134.244      -13.710       96.050       78.829       46.214     9225.635     6214.087     2135.725        4.269        0.879      260.051       48.317        0.035      346.036       23.991      861.444
08/28/2013  22:04:00     -136.719      -82.127       -0.355       88.065       61.794       34.357     7755.531     3818.518     1180.377        1.909        0.638      159.489       39.919        0.063      345.971       23.882      861.448
08/28/2013  22:05:00      -42.055      -91.947       24.020       90.874       64.771       54.123     8258.005     4195.296     2929.267        1.309        0.769      101.108       56.235        0.309      345.976       23.891      861.453
08/28/2013  22:06:00     -101.063     -120.688        6.225       85.773       67.838       53.486     7356.970     4602.059     2860.749        1.982        0.741      157.415       50.209        0.102      345.999       23.930      861.454
08/28/2013  22:07:00     -127.563      -67.822        8.160       91.832       76.061       37.706     8433.121     5785.318     1421.749        1.829        0.782      144.472       39.470        0.075      345.934       23.818      861.474
08/28/2013  22:08:00      -89.715     -109.548       -5.685       53.900       54.241       26.787     2905.186     2942.116      717.541        1.332        0.328      141.597       11.005        0.006      345.925       23.804      861.481
08/28/2013  22:09:00      -84.205     -116.063        4.037       72.100       71.715       46.001     5198.445     5143.069     2116.103        1.652        0.623      143.391       50.061        0.122      345.934       23.817      861.482
08/28/2013  22:10:00     -144.181     -150.756       -3.858       84.565       86.079       45.242     7151.158     7409.527     2046.811        3.007        0.830      208.603       43.594        0.044      345.950       23.843      861.477
08/28/2013  22:11:00     -137.928     -113.158      -14.709       58.181       48.035       29.566     3385.013     2307.379      874.130        1.930        0.328      178.406       19.526        0.012      345.930       23.811      861.479
08/28/2013  22:12:00      -55.560     -110.978        4.774       66.550       48.861       23.165     4428.929     2387.441      536.626        1.139        0.368      124.109       14.161        0.013      345.913       23.782      861.488
08/28/2013  22:13:00     -146.246      -59.133      -11.087       53.367       73.412       31.605     2847.996     5389.335      998.854        1.712        0.462      157.748       17.721        0.013      345.885       23.735      861.498
08/28/2013  22:14:00     -115.029        1.699       -4.496       77.507       54.601       27.927     6007.305     2981.239      779.934        1.151        0.488      115.042       31.705        0.076      345.948       23.843      861.508
08/28/2013  22:15:00     -123.103      -63.384       -5.161       52.969       39.629       27.121     2805.689     1570.492      735.571        1.215        0.256      138.462       23.360        0.028      345.949       23.844      861.535
08/28/2013  22:16:00     -106.892      -33.337       -5.289       75.049       49.161       27.209     5632.291     2416.811      740.350        1.068        0.439      111.970       35.971        0.103      345.916       23.789      861.546
08/28/2013  22:17:00      -57.458      -31.641        4.111       53.400       28.427       26.326     2851.597      808.102      693.083        0.434        0.218       65.594       31.790        0.235      345.909       23.776      861.557
08/28/2013  22:18:00     -115.130      -57.959       -8.992       45.018       37.955       21.581     2026.584     1440.568      465.725        1.031        0.197      128.896       21.926        0.029      345.923       23.799      861.573
08/28/2013  22:19:00      -25.153      -29.604       -4.857       41.714       33.178       17.454     1740.058     1100.784      304.636        0.234        0.157       38.847       20.244        0.272      345.815       23.615      861.583
08/28/2013  22:20:00      -36.277      -48.538        2.490       40.230       43.269       22.518     1618.447     1872.164      507.054        0.384        0.200       60.597       22.070        0.133      345.899       23.760      861.592
08/28/2013  22:21:00     -109.377      -62.032       -7.447       82.857       42.066       28.281     6865.332     1769.538      799.795        1.265        0.472      125.744       36.315        0.083      345.849       23.673      861.603
08/28/2013  22:22:00      -52.573      -36.552        2.161       59.104       28.591       24.351     3493.285      817.466      592.967        0.450        0.245       64.031       27.677        0.187      345.795       23.579      861.611
08/28/2013  22:23:00      -27.625        0.897        0.489       43.830       39.730       24.074     1921.080     1578.435      579.581        0.242        0.204       27.640        3.704        0.018      345.835       23.649      861.623
08/28/2013  22:24:00       10.923       20.276       14.982       25.340       15.581       17.075      642.113      242.781      291.546        0.097        0.059       23.031        9.286        0.163      345.608       23.258      861.643
08/28/2013  22:25:00       47.941       10.473       13.588       31.874       32.773       22.360     1015.973     1074.055      499.948        0.259        0.129       49.072       15.180        0.096      345.033       22.276      861.658
08/28/2013  22:26:00       53.268       29.678       -7.754       32.867       20.854       25.733     1080.210      434.898      662.198        0.298        0.109       60.978        6.955        0.013      345.062       22.325      861.661
08/28/2013  22:27:00       89.996       62.434       19.223       35.427       23.315       27.477     1255.096      543.569      754.962        0.746        0.128      109.532       24.265        0.049      345.294       22.722      861.666
08/28/2013  22:28:00       50.427       51.693       49.881       33.361       29.567       29.813     1112.935      874.223      888.837        0.529        0.144       72.215       11.312        0.025      345.144       22.466      861.684
08/28/2013  22:29:00       28.067       55.944       61.365       40.167       34.416       23.034     1613.349     1184.472      530.562        0.551        0.166       62.590       14.816        0.056      345.110       22.407      861.704
08/28/2013  22:30:00       34.840        7.571       29.434       39.655       50.937       36.486     1572.539     2594.564     1331.232        0.382        0.275       35.653       37.391        1.100      344.809       21.890      861.717
08/28/2013  22:31:00       56.036      -44.678       -3.361       44.231       38.320       29.626     1956.351     1468.421      877.712        0.472        0.215       71.667       21.417        0.089      344.427       21.238      861.718
08/28/2013  22:32:00       15.852      -11.451        4.284       34.271       38.821       27.450     1174.499     1507.050      753.522        0.192        0.172       19.555       10.071        0.265      344.565       21.475      861.718
08/28/2013  22:33:00       -4.841       10.785        2.084       19.462       28.800       12.519      378.778      829.456      156.729        0.075        0.068       11.822       12.937        1.198      344.816       21.903      861.730
08/28/2013  22:34:00       -3.009      -28.456        2.678       21.215       23.266       15.863      450.059      541.297      251.627        0.103        0.062       28.614       12.400        0.188      344.838       21.943      861.738
08/28/2013  22:35:00       17.142      -10.691        8.796       16.782       15.605       13.995      281.627      243.510      195.855        0.060        0.036       20.202        4.986        0.061      344.651       21.621      861.743
08/28/2013  22:36:00       32.911      -12.199        7.632       15.983       12.879       20.149      255.465      165.856      405.987        0.106        0.041       35.099        9.001        0.066      344.642       21.606      861.747
08/28/2013  22:37:00       55.643      -18.470        1.350       19.873       24.336       23.563      394.920      592.248      555.194        0.249        0.077       58.628       15.220        0.067      344.715       21.729      861.765
08/28/2013  22:38:00       61.751      -11.269        3.665       30.666       27.197       25.625      940.421      739.689      656.633        0.314        0.117       62.770       11.875        0.036      344.948       22.130      861.785
08/28/2013  22:39:00       39.585      -10.613        7.704       16.191       19.797       15.519      262.155      391.938      240.854        0.132        0.045       40.983        5.351        0.017      345.291       22.717      861.809
08/28/2013  22:40:00       32.235      -12.177       12.709       24.628       22.092       12.765      606.546      488.036      162.948        0.130        0.063       34.458       15.131        0.193      345.124       22.432      861.828
08/28/2013  22:41:00       27.899       -9.208       18.227       31.418       50.698       32.359      987.120     2570.299     1047.079        0.290        0.230       29.379       39.929        1.847      345.487       23.053      861.835
08/28/2013  22:42:00       26.518       56.688       52.313       33.003       21.331       22.458     1089.202      455.004      504.340        0.435        0.102       62.584       23.658        0.143      345.678       23.379      861.832
08/28/2013  22:43:00       44.483       38.687       24.749       30.293       16.363       23.119      917.676      267.754      534.500        0.290        0.086       58.953       17.612        0.089      345.644       23.322      861.819
08/28/2013  22:44:00      -31.166      -20.325       14.476       26.602       35.603       24.192      707.690     1267.590      585.254        0.208        0.128       37.208       19.585        0.277      345.484       23.046      861.809
08/28/2013  22:45:00      -47.278      -27.342       -6.729       31.800       27.515       15.611     1011.242      757.099      243.708        0.252        0.101       54.615       15.137        0.077      345.461       23.009      861.821
08/28/2013  22:46:00      -65.071        7.647      -11.678       39.075       34.981       16.790     1526.830     1223.692      281.889        0.373        0.152       65.519       13.219        0.041      345.041       22.288      861.829
08/28/2013  22:47:00      -14.160      -50.142       11.410       17.046       25.504       18.378      290.552      650.454      337.766        0.206        0.064       52.103       11.309        0.047      345.509       23.090      861.796
08/28/2013  22:48:00      -65.667       33.870       -6.037       37.966       29.647       24.154     1441.390      878.934      583.425        0.420        0.145       73.887       24.611        0.111      345.176       22.519      861.809
08/28/2013  22:49:00      -72.687       37.056       -3.835       31.353       20.710       18.957      983.030      428.899      359.360        0.422        0.089       81.588       14.585        0.032      345.532       23.129      861.807
08/28/2013  22:50:00      -14.337       46.207        6.573       26.966       23.049       19.323      727.148      531.267      373.389        0.201        0.082       48.380       15.867        0.108      345.361       22.836      861.801
08/28/2013  22:51:00        2.928       15.663        6.377       10.301       17.381        9.666      106.119      302.103       93.425        0.040        0.025       15.934        7.736        0.236      345.337       22.796      861.788
08/28/2013  22:52:00      -40.403        8.550       -8.400       12.398       21.230        8.661      153.702      450.699       75.021        0.123        0.034       41.298        7.954        0.037      345.453       22.994      861.792
08/28/2013  22:53:00      -42.403        1.597       -2.524       11.430       11.717       12.738      130.636      137.294      162.260        0.112        0.022       42.434        5.892        0.019      345.336       22.794      861.792
08/28/2013  22:54:00      -52.748       -0.882       -7.335       13.724       16.190        8.399      188.335      262.114       70.547        0.168        0.026       52.755        7.706        0.021      345.131       22.444      861.793
08/28/2013  22:55:00      -61.776       14.593      -10.480       26.251       18.213       12.261      689.127      331.723      150.339        0.265        0.059       63.476       12.132        0.037      345.164       22.499      861.786
08/28/2013  22:56:00      -20.049       28.071       -9.152       28.076       18.329        9.264      788.278      335.957       85.815        0.124        0.061       34.495        6.713        0.038      345.183       22.531      861.783
08/28/2013  22:57:00       13.748       43.354       -2.358       11.639       17.941        8.606      135.456      321.886       74.057        0.130        0.027       45.482        4.838        0.011      345.481       23.042      861.771
08/28/2013  22:58:00       25.442       51.887        0.062       15.334       19.876       12.768      235.138      395.053      163.030        0.207        0.040       57.789       11.790        0.042      345.484       23.046      861.773
08/28/2013  22:59:00       65.031       52.352       11.780       23.515       17.457       13.967      552.939      304.754      195.065        0.408        0.053       83.485        9.553        0.013      345.443       22.976      861.772
08/28/2013  23:00:00       97.305       56.215       12.039       24.486       19.755       18.599      599.586      390.256      345.937        0.705        0.067      112.376        9.687        0.007      345.437       22.967      861.762
08/28/2013  23:01:00       80.675       44.338       15.018       24.696       23.681       21.259      609.904      560.797      451.952        0.516        0.081       92.056       15.277        0.028      345.458       23.001      861.768
08/28/2013  23:02:00      -30.376       24.914        4.896       44.632       23.073       19.874     1992.031      532.350      394.969        0.224        0.146       39.287       25.730        0.429      345.328       22.781      861.788
08/28/2013  23:03:00     -125.530        7.797       -6.821       48.453       47.125       26.886     2347.722     2220.776      722.865        1.058        0.265      125.772       26.287        0.044      344.862       21.982      861.807
08/28/2013  23:04:00     -180.527       31.920      -19.225       54.980       33.360       21.398     3022.774     1112.882      457.888        1.929        0.230      183.327       20.891        0.013      344.966       22.159      861.837
08/28/2013  23:05:00     -140.994       31.368       -8.957       41.587       26.691       21.936     1729.518      712.421      481.170        1.193        0.146      144.442       16.052        0.012      344.998       22.214      861.850
08/28/2013  23:06:00      -92.464       80.086      -19.521       37.608       52.414       29.655     1414.392     2747.188      879.402        1.019        0.252      122.325       29.868        0.060      345.369       22.849      861.855
08/28/2013  23:07:00      -88.816       41.602      -15.337       33.938       48.667       19.352     1151.763     2368.461      374.507        0.687        0.195       98.077       20.233        0.043      345.126       22.434      861.855
08/28/2013  23:08:00      -76.602       38.136      -16.495       22.053       25.886       17.924      486.340      670.101      321.258        0.454        0.074       85.570        9.683        0.013      345.213       22.582      861.853
08/28/2013  23:09:00      -61.317       12.149       -7.974       15.300       20.058        9.712      234.091      402.308       94.322        0.235        0.037       62.509        9.354        0.022      345.068       22.336      861.846
08/28/2013  23:10:00      -43.467        5.340       -7.031       14.042       12.540        9.936      197.174      157.249       98.730        0.121        0.023       43.793        8.540        0.038      344.806       21.886      861.848
08/28/2013  23:11:00      -82.500       33.101      -14.904       21.151       21.873       11.705      447.366      478.424      137.013        0.459        0.053       88.893        9.878        0.012      344.835       21.936      861.849
08/28/2013  23:12:00      -65.246       13.099       -7.567       19.713       19.801       12.495      388.622      392.082      156.125        0.271        0.047       66.548        8.513        0.016      344.708       21.719      861.830
08/28/2013  23:13:00      -66.030       20.696      -13.787       23.865       27.789       12.398      569.535      772.232      153.723        0.324        0.075       69.197       11.504        0.028      344.713       21.728      861.814
08/28/2013  23:14:00      -72.123       26.969      -11.580       22.305       24.178       15.483      497.496      584.554      239.726        0.369        0.066       77.000       11.720        0.023      344.945       22.124      861.802
08/28/2013  23:15:00      -76.467       -0.876      -16.087       26.687       27.815       14.708      712.200      773.673      216.334        0.390        0.085       76.472       15.041        0.039      344.869       21.993      861.789
08/28/2013  23:16:00      -47.354       -3.528       -9.175       14.670       14.018        8.756      215.201      196.499       76.673        0.141        0.024       47.485        6.967        0.022      344.840       21.945      861.795
08/28/2013  23:17:00      -33.588       -5.959       -3.784       15.176       15.358       11.100      230.324      235.859      123.207        0.088        0.029       34.112        7.831        0.053      344.941       22.118      861.804
08/28/2013  23:18:00      -38.307       18.015      -10.594       16.580       17.586        9.000      274.893      309.282       81.006        0.128        0.033       42.332        8.198        0.038      344.962       22.152      861.809
08/28/2013  23:19:00      -55.253       10.038       -9.175       15.417       16.821        8.204      237.698      282.957       67.313        0.191        0.029       56.157        5.976        0.011      345.040       22.288      861.814
08/28/2013  23:20:00      -45.824       -8.783       -4.642       20.359       16.138       10.122      414.469      260.443      102.445        0.149        0.039       46.658        6.796        0.021      344.906       22.057      861.814
08/28/2013  23:21:00      -61.506      -25.944       -3.490       15.732       27.109       12.875      247.492      734.890      165.757        0.281        0.057       66.754       11.060        0.027      344.788       21.855      861.810
08/28/2013  23:22:00      -69.645      -13.416       -2.013       24.673       21.117       12.283      608.739      445.927      150.875        0.312        0.060       70.925       11.105        0.025      344.689       21.687      861.817
08/28/2013  23:23:00     -102.210      -19.980       -5.279       27.420       20.534       17.268      751.869      421.645      298.184        0.617        0.074      104.144       16.742        0.026      344.628       21.581      861.829
08/28/2013  23:24:00     -130.341      -43.778       -6.785       21.052       20.249       15.597      443.187      410.027      243.262        1.002        0.055      137.497       10.923        0.006      344.607       21.546      861.829
08/28/2013  23:25:00      -99.246      -15.919       -9.853       29.314       17.607       14.187      859.283      310.015      201.281        0.579        0.069      100.514       13.965        0.019      344.485       21.338      861.828
08/28/2013  23:26:00     -109.901       18.120      -11.912       22.621       22.430       12.445      511.716      503.098      154.890        0.686        0.058      111.385        7.232        0.004      344.520       21.397      861.826
08/28/2013  23:27:00      -85.076       36.294       -5.948       42.112       22.768       22.006     1773.435      518.391      484.259        0.568        0.139       92.494       19.373        0.044      344.725       21.748      861.824
08/28/2013  23:28:00     -118.522       41.663      -12.740       24.776       23.690       17.352      613.841      561.216      301.083        0.871        0.074      125.632        8.551        0.005      344.726       21.751      861.824
08/28/2013  23:29:00     -126.536       30.132       -4.446       33.331       22.614       15.084     1110.987      511.379      227.538        0.939        0.092      130.075       11.618        0.008      344.743       21.779      861.819
08/28/2013  23:30:00     -146.135       11.702      -17.021       22.344       32.510       17.156      499.270     1056.917      294.337        1.182        0.093      146.603       13.209        0.008      344.679       21.669      861.812
08/28/2013  23:31:00     -162.470      -48.111       -5.815       26.384       54.516       24.639      696.096     2972.021      607.065        1.651        0.214      169.444       18.833        0.012      344.423       21.230      861.822
08/28/2013  23:32:00     -116.147      -31.642        0.147       45.805       49.200       30.037     2098.125     2420.628      902.227        0.996        0.271      120.380       22.869        0.036      344.321       21.055      861.843
08/28/2013  23:33:00     -162.280       34.941      -15.709       33.441       27.774       17.845     1118.331      771.370      318.456        1.500        0.110      165.999       15.018        0.008      344.401       21.193      861.848
08/28/2013  23:34:00     -144.710       30.186      -15.336       43.233       24.808       15.456     1869.082      615.448      238.900        1.240        0.136      147.825       15.198        0.011      344.481       21.330      861.848
08/28/2013  23:35:00     -111.549       18.390       -9.471       37.102       21.492       17.022     1376.577      461.907      289.740        0.750        0.106      113.054       14.527        0.017      344.436       21.252      861.836
08/28/2013  23:36:00     -125.271      -20.583       -8.396       23.959       22.683       14.528      574.042      514.535      211.073        0.874        0.065      126.951       10.424        0.007      344.378       21.153      861.840
08/28/2013  23:37:00      -97.234      -29.538       -5.368       32.529       27.801       17.849     1058.149      772.892      318.592        0.625        0.107      101.622       16.418        0.026      344.348       21.103      861.861
08/28/2013  23:38:00      -82.501       -8.178       -4.835       33.262       23.153       18.943     1106.337      536.084      358.827        0.445        0.100       82.905       18.942        0.052      344.301       21.022      861.887
08/28/2013  23:39:00      -90.603       -5.023       -6.168       23.415       21.402       17.301      548.247      458.045      299.329        0.479        0.065       90.742       12.327        0.018      344.343       21.094      861.903
08/28/2013  23:40:00      -92.905       23.731       -7.938       40.416       33.882       20.115     1633.464     1147.992      404.632        0.622        0.159       95.888       18.069        0.036      344.561       21.467      861.908
08/28/2013  23:41:00      -78.543       -9.326       -5.248       24.266       22.917       12.942      588.847      525.202      167.503        0.378        0.064       79.095       11.877        0.023      344.405       21.198      861.918
08/28/2013  23:42:00     -123.603      -19.947      -10.418       34.044       20.835       20.504     1158.984      434.088      420.432        0.890        0.101      125.203       20.697        0.027      344.281       20.988      861.934
08/28/2013  23:43:00     -141.357        2.006      -13.787       46.404       29.827       21.953     2153.298      889.628      481.954        1.185        0.176      141.371       19.162        0.018      344.237       20.914      861.945
08/28/2013  23:44:00     -153.462        9.390      -13.070       18.521       28.534       12.624      343.019      814.197      159.368        1.256        0.066      153.750        9.617        0.004      344.263       20.958      861.953
08/28/2013  23:45:00     -132.557       -3.365      -13.980       28.950       29.118       20.201      838.103      847.854      408.080        0.994        0.105      132.599       14.100        0.011      344.230       20.901      861.969
08/28/2013  23:46:00     -108.163      -20.510       -7.372       31.678       31.313       17.192     1003.475      980.475      295.555        0.723        0.114      110.091       15.265        0.019      344.198       20.847      861.979
08/28/2013  23:47:00      -68.548      -16.505       -1.600       36.602       23.614       15.986     1339.693      557.637      255.543        0.356        0.108       70.507       16.525        0.055      344.121       20.715      861.982
08/28/2013  23:48:00      -88.277      -18.784       -7.487       24.027       20.501       14.313      577.312      420.311      204.852        0.470        0.060       90.254       11.974        0.018      344.205       20.859      861.989
08/28/2013  23:49:00      -61.621      -12.315        2.000       28.020       22.551       13.954      785.093      508.526      194.708        0.272        0.074       62.840       12.875        0.042      344.349       21.105      861.996
08/28/2013  23:50:00      -59.092        3.147       -6.130       17.297       17.708       13.221      299.177      313.580      174.791        0.216        0.039       59.175        9.217        0.024      344.259       20.949      862.011
08/28/2013  23:51:00     -120.150        7.474       -7.765       48.469       25.611       15.078     2349.213      655.940      227.348        0.889        0.162      120.382       16.305        0.018      344.195       20.843      862.025
08/28/2013  23:52:00     -164.558       37.975      -12.076       23.900       23.615       15.729      571.196      557.689      247.416        1.502        0.069      168.883        8.598        0.003      344.221       20.887      862.025
08/28/2013  23:53:00     -104.371       36.152       -8.844       47.952       22.812       17.282     2299.424      520.365      298.674        0.770        0.156      110.454       16.851        0.023      344.186       20.825      862.026
08/28/2013  23:54:00     -100.530       -4.131       -6.621       28.044       27.651       15.543      786.448      764.605      241.583        0.598        0.090      100.615       15.238        0.023      344.174       20.805      862.037
08/28/2013  23:55:00      -11.619       -5.010        5.667       31.715       20.587       13.421     1005.860      423.837      180.131        0.090        0.080       12.653       14.726        1.355      344.053       20.601      862.054
08/28/2013  23:56:00      -62.048       -0.188       -3.786       32.890       18.393       15.031     1081.745      338.297      225.930        0.275        0.082       62.048       10.338        0.028      344.115       20.706      862.066
08/28/2013  23:57:00      -51.698      -13.377       -1.601       27.428       19.654       14.800      752.308      386.279      219.048        0.211        0.068       53.401       11.919        0.050      344.120       20.712      862.076
08/28/2013  23:58:00      -61.767       -4.161      -16.341       20.785       27.186       14.950      432.001      739.099      223.509        0.275        0.070       61.907       11.096        0.032      344.161       20.783      862.073
08/28/2013  23:59:00      -46.809        3.513      -11.190       24.337       28.629       15.415      592.299      819.629      237.618        0.199        0.082       46.940        7.783        0.027      344.183       20.821      862.073
